Wetterdaten: Samstag, 07.10.2017
Datum Zeit Temp. A. Pool Temp. Feuchte A. Luftdruck Regen Wind Richtung Richtung Sonnenschein ET UV Solar Taupunkt Windchill Windben Empfang
07.10.2017 00:00 7,6 C 12,2 C 91 % 1019,2 hPa 0,0 l/m 15,4 km/h (3 Bft) SW 231 0 min 0,000 mm 0,0 UV-I 0 W/m 6,2 C 2,0 C 27,4 km/h (4 Bft) 97,87 %
07.10.2017 00:02 7,7 C 12,2 C 91 % 1019,2 hPa 0,0 l/m 14,8 km/h (3 Bft) W-SW 248 0 min 0,000 mm 0,0 UV-I 0 W/m 6,3 C 2,4 C 19,3 km/h (3 Bft) 100,00 %
07.10.2017 00:04 7,7 C 12,2 C 91 % 1019,2 hPa 0,0 l/m 12,4 km/h (3 Bft) S-SW 202 0 min 0,000 mm 0,0 UV-I 0 W/m 6,3 C 3,6 C 17,7 km/h (3 Bft) 100,00 %
07.10.2017 00:06 7,7 C 12,2 C 91 % 1019,2 hPa 0,0 l/m 11,8 km/h (2 Bft) SW 234 0 min 0,000 mm 0,0 UV-I 0 W/m 6,3 C 4,0 C 19,3 km/h (3 Bft) 100,00 %
07.10.2017 00:08 7,8 C 12,2 C 91 % 1019,2 hPa 0,0 l/m 13,2 km/h (3 Bft) SW 234 0 min 0,000 mm 0,0 UV-I 0 W/m 6,4 C 3,3 C 19,3 km/h (3 Bft) 98,00 %
07.10.2017 00:10 7,8 C 12,2 C 91 % 1019,2 hPa 0,0 l/m 14,4 km/h (3 Bft) S-SW 205 0 min 0,000 mm 0,0 UV-I 0 W/m 6,4 C 2,7 C 22,5 km/h (4 Bft) 97,87 %
07.10.2017 00:12 7,8 C 12,2 C 91 % 1019,2 hPa 0,0 l/m 11,0 km/h (2 Bft) W-SW 249 0 min 0,000 mm 0,0 UV-I 0 W/m 6,4 C 4,6 C 16,1 km/h (3 Bft) 97,37 %
07.10.2017 00:14 7,8 C 12,2 C 91 % 1019,2 hPa 0,0 l/m 14,8 km/h (3 Bft) S-SW 203 0 min 0,000 mm 0,0 UV-I 0 W/m 6,4 C 2,6 C 19,3 km/h (3 Bft) 98,00 %
07.10.2017 00:16 7,9 C 12,2 C 91 % 1019,3 hPa 0,0 l/m 12,5 km/h (3 Bft) S-SW 206 0 min 0,000 mm 0,0 UV-I 0 W/m 6,5 C 3,8 C 17,7 km/h (3 Bft) 97,87 %
07.10.2017 00:18 7,9 C 12,2 C 90 % 1019,3 hPa 0,0 l/m 14,2 km/h (3 Bft) SW 234 0 min 0,000 mm 0,0 UV-I 0 W/m 6,4 C 3,0 C 19,3 km/h (3 Bft) 97,87 %
07.10.2017 00:20 7,9 C 12,2 C 90 % 1019,3 hPa 0,0 l/m 14,4 km/h (3 Bft) W-SW 240 0 min 0,000 mm 0,0 UV-I 0 W/m 6,4 C 2,9 C 24,1 km/h (4 Bft) 97,87 %
07.10.2017 00:22 7,9 C 12,2 C 90 % 1019,3 hPa 0,0 l/m 10,3 km/h (2 Bft) W-SW 250 0 min 0,000 mm 0,0 UV-I 0 W/m 6,4 C 5,1 C 14,5 km/h (3 Bft) 97,87 %
07.10.2017 00:24 7,9 C 12,2 C 90 % 1019,3 hPa 0,0 l/m 13,1 km/h (3 Bft) W-SW 242 0 min 0,000 mm 0,0 UV-I 0 W/m 6,4 C 3,5 C 19,3 km/h (3 Bft) 98,00 %
07.10.2017 00:26 7,9 C 12,2 C 90 % 1019,3 hPa 0,0 l/m 12,1 km/h (2 Bft) SW 230 0 min 0,000 mm 0,0 UV-I 0 W/m 6,4 C 4,0 C 19,3 km/h (3 Bft) 95,74 %
07.10.2017 00:28 7,9 C 12,2 C 90 % 1019,3 hPa 0,0 l/m 14,2 km/h (3 Bft) W-SW 257 0 min 0,000 mm 0,0 UV-I 0 W/m 6,4 C 3,0 C 22,5 km/h (4 Bft) 97,62 %
07.10.2017 00:30 8,0 C 12,2 C 90 % 1019,3 hPa 0,0 l/m 14,7 km/h (3 Bft) W 259 0 min 0,000 mm 0,0 UV-I 0 W/m 6,5 C 2,8 C 19,3 km/h (3 Bft) 98,11 %
07.10.2017 00:32 8,0 C 12,2 C 90 % 1019,3 hPa 0,0 l/m 14,9 km/h (3 Bft) W 266 0 min 0,000 mm 0,0 UV-I 0 W/m 6,5 C 2,8 C 22,5 km/h (4 Bft) 95,83 %
07.10.2017 00:34 8,0 C 12,2 C 90 % 1019,3 hPa 0,0 l/m 13,4 km/h (3 Bft) SW 229 0 min 0,000 mm 0,0 UV-I 0 W/m 6,5 C 3,5 C 19,3 km/h (3 Bft) 97,87 %
07.10.2017 00:36 8,1 C 12,2 C 90 % 1019,3 hPa 0,0 l/m 12,7 km/h (3 Bft) W 261 0 min 0,000 mm 0,0 UV-I 0 W/m 6,6 C 4,0 C 19,3 km/h (3 Bft) 94,29 %
07.10.2017 00:38 8,1 C 12,2 C 90 % 1019,4 hPa 0,0 l/m 12,8 km/h (3 Bft) W 271 0 min 0,000 mm 0,0 UV-I 0 W/m 6,6 C 3,9 C 22,5 km/h (4 Bft) 98,31 %
07.10.2017 00:40 8,1 C 12,2 C 90 % 1019,4 hPa 0,0 l/m 14,0 km/h (3 Bft) SW 231 0 min 0,000 mm 0,0 UV-I 0 W/m 6,6 C 3,3 C 19,3 km/h (3 Bft) 97,87 %
07.10.2017 00:42 8,1 C 12,2 C 90 % 1019,3 hPa 0,0 l/m 12,7 km/h (3 Bft) SW 230 0 min 0,000 mm 0,0 UV-I 0 W/m 6,6 C 4,0 C 17,7 km/h (3 Bft) 97,22 %
07.10.2017 00:44 8,1 C 12,2 C 90 % 1019,3 hPa 0,0 l/m 11,1 km/h (2 Bft) W 269 0 min 0,000 mm 0,0 UV-I 0 W/m 6,6 C 4,8 C 17,7 km/h (3 Bft) 97,87 %
07.10.2017 00:46 8,1 C 12,2 C 90 % 1019,2 hPa 0,2 l/m 9,8 km/h (2 Bft) W-SW 239 0 min 0,000 mm 0,0 UV-I 0 W/m 6,6 C 5,6 C 19,3 km/h (3 Bft) 96,00 %
07.10.2017 00:48 8,1 C 12,2 C 90 % 1019,2 hPa 0,0 l/m 8,8 km/h (2 Bft) W-SW 248 0 min 0,000 mm 0,0 UV-I 0 W/m 6,6 C 6,3 C 16,1 km/h (3 Bft) 97,87 %
07.10.2017 00:50 8,1 C 12,2 C 91 % 1019,3 hPa 0,2 l/m 13,0 km/h (3 Bft) W 266 0 min 0,000 mm 0,0 UV-I 0 W/m 6,7 C 3,8 C 19,3 km/h (3 Bft) 95,83 %
07.10.2017 00:52 8,0 C 12,2 C 91 % 1019,3 hPa 0,0 l/m 9,9 km/h (2 Bft) W-NW 291 0 min 0,000 mm 0,0 UV-I 0 W/m 6,6 C 5,4 C 14,5 km/h (3 Bft) 97,87 %
07.10.2017 00:54 8,0 C 12,2 C 91 % 1019,2 hPa 0,0 l/m 12,6 km/h (3 Bft) SW 223 0 min 0,000 mm 0,0 UV-I 0 W/m 6,6 C 3,9 C 19,3 km/h (3 Bft) 96,00 %
07.10.2017 00:56 8,0 C 12,2 C 91 % 1019,3 hPa 0,0 l/m 10,1 km/h (2 Bft) S-SW 209 0 min 0,000 mm 0,0 UV-I 0 W/m 6,6 C 5,3 C 17,7 km/h (3 Bft) 95,12 %
07.10.2017 00:58 7,9 C 12,2 C 91 % 1019,3 hPa 0,0 l/m 11,2 km/h (2 Bft) W 264 0 min 0,000 mm 0,0 UV-I 0 W/m 6,5 C 4,5 C 14,5 km/h (3 Bft) 96,00 %
07.10.2017 01:00 7,9 C 12,2 C 92 % 1019,3 hPa 0,0 l/m 9,0 km/h (2 Bft) W-SW 250 0 min 0,025 mm 0,0 UV-I 0 W/m 6,7 C 5,9 C 14,5 km/h (3 Bft) 97,87 %
07.10.2017 01:02 7,9 C 12,2 C 92 % 1019,3 hPa 0,0 l/m 10,3 km/h (2 Bft) SW 236 0 min 0,000 mm 0,0 UV-I 0 W/m 6,7 C 5,1 C 17,7 km/h (3 Bft) 97,87 %
07.10.2017 01:04 7,9 C 12,2 C 92 % 1019,3 hPa 0,0 l/m 11,5 km/h (2 Bft) W-SW 248 0 min 0,000 mm 0,0 UV-I 0 W/m 6,7 C 4,4 C 17,7 km/h (3 Bft) 98,00 %
07.10.2017 01:06 7,9 C 12,2 C 92 % 1019,3 hPa 0,0 l/m 14,8 km/h (3 Bft) W 261 0 min 0,000 mm 0,0 UV-I 0 W/m 6,7 C 2,7 C 20,9 km/h (4 Bft) 97,87 %
07.10.2017 01:08 7,9 C 12,2 C 92 % 1019,2 hPa 0,0 l/m 12,0 km/h (2 Bft) W-SW 243 0 min 0,000 mm 0,0 UV-I 0 W/m 6,7 C 4,1 C 22,5 km/h (4 Bft) 93,62 %
07.10.2017 01:10 7,9 C 12,2 C 92 % 1019,3 hPa 0,0 l/m 15,8 km/h (3 Bft) W-SW 246 0 min 0,000 mm 0,0 UV-I 0 W/m 6,7 C 2,2 C 22,5 km/h (4 Bft) 94,59 %
07.10.2017 01:12 7,9 C 12,2 C 92 % 1019,3 hPa 0,0 l/m 18,1 km/h (3 Bft) W-SW 243 0 min 0,000 mm 0,0 UV-I 0 W/m 6,7 C 1,3 C 29,0 km/h (5 Bft) 98,00 %
07.10.2017 01:14 7,9 C 12,2 C 92 % 1019,3 hPa 0,0 l/m 16,0 km/h (3 Bft) SW 235 0 min 0,000 mm 0,0 UV-I 0 W/m 6,7 C 2,1 C 22,5 km/h (4 Bft) 96,00 %
07.10.2017 01:16 7,9 C 12,2 C 92 % 1019,3 hPa 0,2 l/m 17,1 km/h (3 Bft) SW 229 0 min 0,000 mm 0,0 UV-I 0 W/m 6,7 C 1,7 C 24,1 km/h (4 Bft) 100,00 %
07.10.2017 01:18 7,8 C 12,2 C 93 % 1019,3 hPa 0,0 l/m 17,4 km/h (3 Bft) W-SW 244 0 min 0,000 mm 0,0 UV-I 0 W/m 6,7 C 1,4 C 27,4 km/h (4 Bft) 97,87 %
07.10.2017 01:20 7,8 C 12,2 C 93 % 1019,3 hPa 0,0 l/m 12,8 km/h (3 Bft) W-SW 242 0 min 0,000 mm 0,0 UV-I 0 W/m 6,7 C 3,6 C 19,3 km/h (3 Bft) 97,87 %
07.10.2017 01:22 7,8 C 12,2 C 93 % 1019,4 hPa 0,0 l/m 12,8 km/h (3 Bft) W-SW 244 0 min 0,000 mm 0,0 UV-I 0 W/m 6,7 C 3,6 C 19,3 km/h (3 Bft) 97,87 %
07.10.2017 01:24 7,8 C 12,2 C 93 % 1019,4 hPa 0,0 l/m 17,4 km/h (3 Bft) W-SW 256 0 min 0,000 mm 0,0 UV-I 0 W/m 6,7 C 1,4 C 25,7 km/h (4 Bft) 100,00 %
07.10.2017 01:26 7,8 C 12,2 C 93 % 1019,5 hPa 0,0 l/m 15,5 km/h (3 Bft) W 259 0 min 0,000 mm 0,0 UV-I 0 W/m 6,7 C 2,2 C 20,9 km/h (4 Bft) 95,74 %
07.10.2017 01:28 7,8 C 12,2 C 93 % 1019,4 hPa 0,0 l/m 14,1 km/h (3 Bft) W-SW 256 0 min 0,000 mm 0,0 UV-I 0 W/m 6,7 C 2,9 C 22,5 km/h (4 Bft) 97,37 %
07.10.2017 01:30 7,8 C 12,2 C 93 % 1019,4 hPa 0,0 l/m 15,4 km/h (3 Bft) W 266 0 min 0,000 mm 0,0 UV-I 0 W/m 6,7 C 2,3 C 22,5 km/h (4 Bft) 97,87 %
07.10.2017 01:32 7,8 C 12,2 C 93 % 1019,5 hPa 0,0 l/m 16,8 km/h (3 Bft) W 261 0 min 0,000 mm 0,0 UV-I 0 W/m 6,7 C 1,7 C 27,4 km/h (4 Bft) 95,74 %
07.10.2017 01:34 7,8 C 12,2 C 93 % 1019,4 hPa 0,0 l/m 15,1 km/h (3 Bft) W-SW 241 0 min 0,000 mm 0,0 UV-I 0 W/m 6,7 C 2,4 C 22,5 km/h (4 Bft) 97,87 %
07.10.2017 01:36 7,8 C 12,2 C 93 % 1019,5 hPa 0,0 l/m 14,2 km/h (3 Bft) W-SW 243 0 min 0,000 mm 0,0 UV-I 0 W/m 6,7 C 2,8 C 22,5 km/h (4 Bft) 97,87 %
07.10.2017 01:38 7,9 C 12,2 C 93 % 1019,6 hPa 0,0 l/m 11,8 km/h (2 Bft) NW 305 0 min 0,000 mm 0,0 UV-I 0 W/m 6,8 C 4,2 C 22,5 km/h (4 Bft) 97,87 %
07.10.2017 01:40 7,9 C 12,2 C 93 % 1019,6 hPa 0,0 l/m 12,6 km/h (3 Bft) W 261 0 min 0,000 mm 0,0 UV-I 0 W/m 6,8 C 3,8 C 22,5 km/h (4 Bft) 98,00 %
07.10.2017 01:42 7,9 C 12,2 C 93 % 1019,6 hPa 0,0 l/m 11,4 km/h (2 Bft) W-SW 250 0 min 0,000 mm 0,0 UV-I 0 W/m 6,8 C 4,4 C 19,3 km/h (3 Bft) 97,87 %
07.10.2017 01:44 7,9 C 12,2 C 93 % 1019,6 hPa 0,0 l/m 11,6 km/h (2 Bft) SW 235 0 min 0,000 mm 0,0 UV-I 0 W/m 6,8 C 4,3 C 17,7 km/h (3 Bft) 95,74 %
07.10.2017 01:46 8,0 C 12,2 C 93 % 1019,7 hPa 0,0 l/m 10,3 km/h (2 Bft) W-SW 240 0 min 0,000 mm 0,0 UV-I 0 W/m 6,9 C 5,2 C 17,7 km/h (3 Bft) 97,87 %
07.10.2017 01:48 8,1 C 12,2 C 93 % 1019,7 hPa 0,0 l/m 14,8 km/h (3 Bft) W-SW 250 0 min 0,000 mm 0,0 UV-I 0 W/m 7,0 C 2,9 C 24,1 km/h (4 Bft) 95,74 %
07.10.2017 01:50 8,1 C 12,2 C 93 % 1019,8 hPa 0,2 l/m 18,0 km/h (3 Bft) W-NW 286 0 min 0,000 mm 0,0 UV-I 0 W/m 7,0 C 1,6 C 27,4 km/h (4 Bft) 97,22 %
07.10.2017 01:52 8,1 C 12,2 C 93 % 1019,7 hPa 0,0 l/m 13,9 km/h (3 Bft) S-SW 211 0 min 0,000 mm 0,0 UV-I 0 W/m 7,0 C 3,3 C 22,5 km/h (4 Bft) 95,08 %
07.10.2017 01:54 8,2 C 12,2 C 93 % 1019,8 hPa 0,0 l/m 20,0 km/h (4 Bft) W-SW 240 0 min 0,000 mm 0,0 UV-I 0 W/m 7,1 C 1,0 C 29,0 km/h (5 Bft) 97,92 %
07.10.2017 01:56 8,2 C 12,2 C 92 % 1019,8 hPa 0,0 l/m 18,4 km/h (3 Bft) W-SW 254 0 min 0,000 mm 0,0 UV-I 0 W/m 7,0 C 1,5 C 30,6 km/h (5 Bft) 94,74 %
07.10.2017 01:58 8,2 C 12,2 C 92 % 1019,9 hPa 0,0 l/m 16,1 km/h (3 Bft) W-SW 254 0 min 0,000 mm 0,0 UV-I 0 W/m 7,0 C 2,5 C 25,7 km/h (4 Bft) 97,87 %
07.10.2017 02:00 8,3 C 12,2 C 92 % 1019,8 hPa 0,0 l/m 17,0 km/h (3 Bft) W 281 0 min 0,026 mm 0,0 UV-I 0 W/m 7,1 C 2,2 C 30,6 km/h (5 Bft) 93,62 %
07.10.2017 02:02 8,3 C 12,2 C 92 % 1019,8 hPa 0,0 l/m 15,6 km/h (3 Bft) SW 236 0 min 0,000 mm 0,0 UV-I 0 W/m 7,1 C 2,8 C 25,7 km/h (4 Bft) 100,00 %
07.10.2017 02:04 8,3 C 12,2 C 92 % 1019,9 hPa 0,0 l/m 16,0 km/h (3 Bft) W-SW 256 0 min 0,000 mm 0,0 UV-I 0 W/m 7,1 C 2,6 C 24,1 km/h (4 Bft) 100,00 %
07.10.2017 02:06 8,3 C 12,2 C 92 % 1019,9 hPa 0,0 l/m 16,4 km/h (3 Bft) W-SW 243 0 min 0,000 mm 0,0 UV-I 0 W/m 7,1 C 2,5 C 22,5 km/h (4 Bft) 100,00 %
07.10.2017 02:08 8,3 C 12,2 C 92 % 1019,9 hPa 0,0 l/m 17,2 km/h (3 Bft) SW 216 0 min 0,000 mm 0,0 UV-I 0 W/m 7,1 C 2,1 C 32,2 km/h (5 Bft) 100,00 %
07.10.2017 02:10 8,3 C 12,2 C 91 % 1019,8 hPa 0,0 l/m 16,6 km/h (3 Bft) W-SW 250 0 min 0,000 mm 0,0 UV-I 0 W/m 6,9 C 2,4 C 29,0 km/h (5 Bft) 98,00 %
07.10.2017 02:12 8,2 C 12,2 C 91 % 1019,7 hPa 0,0 l/m 21,1 km/h (4 Bft) W 261 0 min 0,000 mm 0,0 UV-I 0 W/m 6,8 C 0,6 C 37,0 km/h (5 Bft) 97,37 %
07.10.2017 02:14 8,2 C 12,2 C 91 % 1019,7 hPa 0,0 l/m 19,7 km/h (3 Bft) W-SW 254 0 min 0,000 mm 0,0 UV-I 0 W/m 6,8 C 1,1 C 29,0 km/h (5 Bft) 97,87 %
07.10.2017 02:16 8,2 C 12,2 C 91 % 1019,7 hPa 0,0 l/m 18,8 km/h (3 Bft) W-SW 239 0 min 0,000 mm 0,0 UV-I 0 W/m 6,8 C 1,4 C 30,6 km/h (5 Bft) 100,00 %
07.10.2017 02:18 8,2 C 12,2 C 91 % 1019,7 hPa 0,0 l/m 19,2 km/h (3 Bft) W-SW 247 0 min 0,000 mm 0,0 UV-I 0 W/m 6,8 C 1,2 C 35,4 km/h (5 Bft) 100,00 %
07.10.2017 02:20 8,2 C 12,2 C 91 % 1019,8 hPa 0,0 l/m 24,2 km/h (4 Bft) W 273 0 min 0,000 mm 0,0 UV-I 0 W/m 6,8 C -0,4 C 37,0 km/h (5 Bft) 97,87 %
07.10.2017 02:22 8,2 C 12,2 C 91 % 1019,8 hPa 0,0 l/m 22,5 km/h (4 Bft) W-NW 286 0 min 0,000 mm 0,0 UV-I 0 W/m 6,8 C 0,1 C 32,2 km/h (5 Bft) 100,00 %
07.10.2017 02:24 8,2 C 12,2 C 91 % 1019,9 hPa 0,0 l/m 20,1 km/h (4 Bft) W-SW 241 0 min 0,000 mm 0,0 UV-I 0 W/m 6,8 C 0,9 C 35,4 km/h (5 Bft) 100,00 %
07.10.2017 02:26 8,2 C 12,2 C 91 % 1019,9 hPa 0,0 l/m 18,8 km/h (3 Bft) W-SW 255 0 min 0,000 mm 0,0 UV-I 0 W/m 6,8 C 1,4 C 32,2 km/h (5 Bft) 100,00 %
07.10.2017 02:28 8,2 C 12,2 C 91 % 1019,8 hPa 0,0 l/m 22,3 km/h (4 Bft) W 270 0 min 0,000 mm 0,0 UV-I 0 W/m 6,8 C 0,2 C 38,6 km/h (5 Bft) 97,22 %
07.10.2017 02:30 8,2 C 12,2 C 91 % 1019,9 hPa 0,0 l/m 19,9 km/h (4 Bft) W-SW 253 0 min 0,000 mm 0,0 UV-I 0 W/m 6,8 C 1,0 C 29,0 km/h (5 Bft) 97,87 %
07.10.2017 02:32 8,2 C 12,2 C 91 % 1019,9 hPa 0,0 l/m 20,3 km/h (4 Bft) S-SW 209 0 min 0,000 mm 0,0 UV-I 0 W/m 6,8 C 0,9 C 32,2 km/h (5 Bft) 100,00 %
07.10.2017 02:34 8,3 C 12,2 C 91 % 1019,9 hPa 0,0 l/m 22,3 km/h (4 Bft) W-NW 300 0 min 0,000 mm 0,0 UV-I 0 W/m 6,9 C 0,3 C 30,6 km/h (5 Bft) 100,00 %
07.10.2017 02:36 8,3 C 12,2 C 91 % 1019,9 hPa 0,0 l/m 17,8 km/h (3 Bft) W-SW 254 0 min 0,000 mm 0,0 UV-I 0 W/m 6,9 C 1,9 C 22,5 km/h (4 Bft) 100,00 %
07.10.2017 02:38 8,3 C 12,2 C 91 % 1019,9 hPa 0,0 l/m 18,1 km/h (3 Bft) S 176 0 min 0,000 mm 0,0 UV-I 0 W/m 6,9 C 1,8 C 27,4 km/h (4 Bft) 100,00 %
07.10.2017 02:40 8,3 C 12,2 C 91 % 1019,8 hPa 0,0 l/m 19,4 km/h (3 Bft) W 268 0 min 0,000 mm 0,0 UV-I 0 W/m 6,9 C 1,3 C 30,6 km/h (5 Bft) 100,00 %
07.10.2017 02:42 8,3 C 12,2 C 91 % 1019,9 hPa 0,0 l/m 20,2 km/h (4 Bft) W-SW 257 0 min 0,000 mm 0,0 UV-I 0 W/m 6,9 C 1,0 C 32,2 km/h (5 Bft) 100,00 %
07.10.2017 02:44 8,3 C 12,2 C 91 % 1019,9 hPa 0,0 l/m 18,0 km/h (3 Bft) W 266 0 min 0,000 mm 0,0 UV-I 0 W/m 6,9 C 1,8 C 27,4 km/h (4 Bft) 98,00 %
07.10.2017 02:46 8,3 C 12,2 C 91 % 1020,0 hPa 0,0 l/m 15,9 km/h (3 Bft) W 278 0 min 0,000 mm 0,0 UV-I 0 W/m 6,9 C 2,7 C 33,8 km/h (5 Bft) 100,00 %
07.10.2017 02:48 8,3 C 12,2 C 91 % 1020,0 hPa 0,0 l/m 19,1 km/h (3 Bft) SW 234 0 min 0,000 mm 0,0 UV-I 0 W/m 6,9 C 1,4 C 29,0 km/h (5 Bft) 100,00 %
07.10.2017 02:50 8,3 C 12,2 C 91 % 1020,0 hPa 0,0 l/m 15,7 km/h (3 Bft) SW 227 0 min 0,000 mm 0,0 UV-I 0 W/m 6,9 C 2,8 C 24,1 km/h (4 Bft) 96,00 %
07.10.2017 02:52 8,3 C 12,2 C 91 % 1020,0 hPa 0,0 l/m 16,2 km/h (3 Bft) W-SW 246 0 min 0,000 mm 0,0 UV-I 0 W/m 6,9 C 2,6 C 20,9 km/h (4 Bft) 97,14 %
07.10.2017 02:54 8,2 C 12,2 C 91 % 1020,1 hPa 0,0 l/m 17,3 km/h (3 Bft) W-SW 254 0 min 0,000 mm 0,0 UV-I 0 W/m 6,8 C 2,0 C 29,0 km/h (5 Bft) 98,00 %
07.10.2017 02:56 8,2 C 12,2 C 91 % 1020,1 hPa 0,0 l/m 17,0 km/h (3 Bft) W 261 0 min 0,000 mm 0,0 UV-I 0 W/m 6,8 C 2,1 C 27,4 km/h (4 Bft) 97,87 %
07.10.2017 02:58 8,2 C 12,2 C 91 % 1020,1 hPa 0,0 l/m 10,7 km/h (2 Bft) W 261 0 min 0,000 mm 0,0 UV-I 0 W/m 6,8 C 5,2 C 17,7 km/h (3 Bft) 100,00 %
07.10.2017 03:00 8,2 C 12,2 C 91 % 1020,0 hPa 0,0 l/m 12,2 km/h (2 Bft) W-SW 254 0 min 0,025 mm 0,0 UV-I 0 W/m 6,8 C 4,3 C 17,7 km/h (3 Bft) 100,00 %
07.10.2017 03:02 8,2 C 12,2 C 91 % 1020,1 hPa 0,0 l/m 13,7 km/h (3 Bft) W 271 0 min 0,000 mm 0,0 UV-I 0 W/m 6,8 C 3,6 C 17,7 km/h (3 Bft) 100,00 %
07.10.2017 03:04 8,1 C 12,2 C 91 % 1020,1 hPa 0,0 l/m 13,6 km/h (3 Bft) W-SW 242 0 min 0,000 mm 0,0 UV-I 0 W/m 6,7 C 3,5 C 22,5 km/h (4 Bft) 100,00 %
07.10.2017 03:06 8,2 C 12,2 C 91 % 1020,0 hPa 0,0 l/m 19,4 km/h (3 Bft) W-SW 244 0 min 0,000 mm 0,0 UV-I 0 W/m 6,8 C 1,2 C 30,6 km/h (5 Bft) 95,74 %
07.10.2017 03:08 8,2 C 12,2 C 91 % 1020,0 hPa 0,0 l/m 12,6 km/h (3 Bft) W-SW 255 0 min 0,000 mm 0,0 UV-I 0 W/m 6,8 C 4,1 C 16,1 km/h (3 Bft) 100,00 %
07.10.2017 03:10 8,2 C 12,2 C 91 % 1020,1 hPa 0,0 l/m 13,2 km/h (3 Bft) W-SW 249 0 min 0,000 mm 0,0 UV-I 0 W/m 6,8 C 3,8 C 22,5 km/h (4 Bft) 100,00 %
07.10.2017 03:12 8,2 C 12,2 C 91 % 1020,1 hPa 0,0 l/m 13,0 km/h (3 Bft) SW 219 0 min 0,000 mm 0,0 UV-I 0 W/m 6,8 C 3,9 C 20,9 km/h (4 Bft) 100,00 %
07.10.2017 03:14 8,2 C 12,2 C 91 % 1020,1 hPa 0,0 l/m 15,4 km/h (3 Bft) W-SW 257 0 min 0,000 mm 0,0 UV-I 0 W/m 6,8 C 2,8 C 22,5 km/h (4 Bft) 95,12 %
07.10.2017 03:16 8,2 C 12,2 C 91 % 1020,1 hPa 0,0 l/m 12,8 km/h (3 Bft) W 267 0 min 0,000 mm 0,0 UV-I 0 W/m 6,8 C 4,0 C 22,5 km/h (4 Bft) 95,74 %
07.10.2017 03:18 8,2 C 12,2 C 91 % 1020,1 hPa 0,0 l/m 12,4 km/h (3 Bft) W-SW 248 0 min 0,000 mm 0,0 UV-I 0 W/m 6,8 C 4,2 C 20,9 km/h (4 Bft) 97,87 %
07.10.2017 03:20 8,2 C 12,2 C 91 % 1020,1 hPa 0,0 l/m 12,9 km/h (3 Bft) W 266 0 min 0,000 mm 0,0 UV-I 0 W/m 6,8 C 4,0 C 19,3 km/h (3 Bft) 100,00 %
07.10.2017 03:22 8,3 C 12,2 C 91 % 1020,1 hPa 0,0 l/m 13,0 km/h (3 Bft) W-SW 243 0 min 0,000 mm 0,0 UV-I 0 W/m 6,9 C 4,0 C 17,7 km/h (3 Bft) 100,00 %
07.10.2017 03:24 8,3 C 12,2 C 91 % 1020,1 hPa 0,0 l/m 12,6 km/h (3 Bft) W 260 0 min 0,000 mm 0,0 UV-I 0 W/m 6,9 C 4,2 C 19,3 km/h (3 Bft) 93,62 %
07.10.2017 03:26 8,3 C 12,2 C 91 % 1020,2 hPa 0,0 l/m 13,0 km/h (3 Bft) W-SW 253 0 min 0,000 mm 0,0 UV-I 0 W/m 6,9 C 4,0 C 25,7 km/h (4 Bft) 100,00 %
07.10.2017 03:28 8,3 C 12,2 C 91 % 1020,2 hPa 0,0 l/m 13,8 km/h (3 Bft) W 260 0 min 0,000 mm 0,0 UV-I 0 W/m 6,9 C 3,6 C 22,5 km/h (4 Bft) 97,87 %
07.10.2017 03:30 8,3 C 12,2 C 91 % 1020,2 hPa 0,0 l/m 11,4 km/h (2 Bft) W-SW 244 0 min 0,000 mm 0,0 UV-I 0 W/m 6,9 C 4,9 C 17,7 km/h (3 Bft) 100,00 %
07.10.2017 03:32 8,3 C 12,2 C 91 % 1020,2 hPa 0,0 l/m 10,4 km/h (2 Bft) W-NW 302 0 min 0,000 mm 0,0 UV-I 0 W/m 6,9 C 5,5 C 19,3 km/h (3 Bft) 97,87 %
07.10.2017 03:34 8,3 C 12,2 C 91 % 1020,2 hPa 0,0 l/m 14,2 km/h (3 Bft) W-SW 254 0 min 0,000 mm 0,0 UV-I 0 W/m 6,9 C 3,4 C 24,1 km/h (4 Bft) 97,87 %
07.10.2017 03:36 8,3 C 12,2 C 91 % 1020,3 hPa 0,0 l/m 15,7 km/h (3 Bft) W-SW 247 0 min 0,000 mm 0,0 UV-I 0 W/m 6,9 C 2,8 C 22,5 km/h (4 Bft) 97,87 %
07.10.2017 03:38 8,3 C 12,2 C 91 % 1020,2 hPa 0,0 l/m 10,7 km/h (2 Bft) W-SW 240 0 min 0,000 mm 0,0 UV-I 0 W/m 6,9 C 5,3 C 16,1 km/h (3 Bft) 97,37 %
07.10.2017 03:40 8,3 C 12,2 C 91 % 1020,3 hPa 0,0 l/m 14,8 km/h (3 Bft) W-SW 251 0 min 0,000 mm 0,0 UV-I 0 W/m 6,9 C 3,2 C 25,7 km/h (4 Bft) 97,87 %
07.10.2017 03:42 8,3 C 12,2 C 91 % 1020,3 hPa 0,0 l/m 12,8 km/h (3 Bft) W 271 0 min 0,000 mm 0,0 UV-I 0 W/m 6,9 C 4,1 C 20,9 km/h (4 Bft) 97,87 %
07.10.2017 03:44 8,3 C 12,2 C 91 % 1020,3 hPa 0,0 l/m 12,7 km/h (3 Bft) W-SW 258 0 min 0,000 mm 0,0 UV-I 0 W/m 6,9 C 4,2 C 19,3 km/h (3 Bft) 97,92 %
07.10.2017 03:46 8,3 C 12,2 C 91 % 1020,4 hPa 0,0 l/m 13,2 km/h (3 Bft) W-SW 249 0 min 0,000 mm 0,0 UV-I 0 W/m 6,9 C 3,9 C 25,7 km/h (4 Bft) 95,74 %
07.10.2017 03:48 8,3 C 12,2 C 91 % 1020,3 hPa 0,0 l/m 16,0 km/h (3 Bft) W-NW 284 0 min 0,000 mm 0,0 UV-I 0 W/m 6,9 C 2,6 C 27,4 km/h (4 Bft) 95,74 %
07.10.2017 03:50 8,3 C 12,2 C 91 % 1020,3 hPa 0,0 l/m 14,1 km/h (3 Bft) W 265 0 min 0,000 mm 0,0 UV-I 0 W/m 6,9 C 3,5 C 25,7 km/h (4 Bft) 96,00 %
07.10.2017 03:52 8,3 C 12,2 C 91 % 1020,4 hPa 0,0 l/m 10,5 km/h (2 Bft) W 266 0 min 0,000 mm 0,0 UV-I 0 W/m 6,9 C 5,4 C 24,1 km/h (4 Bft) 96,00 %
07.10.2017 03:54 8,4 C 12,2 C 91 % 1020,4 hPa 0,0 l/m 11,1 km/h (2 Bft) W-SW 256 0 min 0,000 mm 0,0 UV-I 0 W/m 7,0 C 5,2 C 25,7 km/h (4 Bft) 97,87 %
07.10.2017 03:56 8,4 C 12,2 C 91 % 1020,4 hPa 0,0 l/m 12,8 km/h (3 Bft) W-SW 242 0 min 0,000 mm 0,0 UV-I 0 W/m 7,0 C 4,3 C 24,1 km/h (4 Bft) 97,87 %
07.10.2017 03:58 8,4 C 12,2 C 91 % 1020,4 hPa 0,0 l/m 13,9 km/h (3 Bft) W-SW 244 0 min 0,000 mm 0,0 UV-I 0 W/m 7,0 C 3,7 C 24,1 km/h (4 Bft) 97,87 %
07.10.2017 04:00 8,4 C 12,2 C 91 % 1020,4 hPa 0,0 l/m 13,5 km/h (3 Bft) W 270 0 min 0,026 mm 0,0 UV-I 0 W/m 7,0 C 3,9 C 20,9 km/h (4 Bft) 95,74 %
07.10.2017 04:02 8,4 C 12,2 C 91 % 1020,4 hPa 0,0 l/m 12,9 km/h (3 Bft) W-SW 252 0 min 0,000 mm 0,0 UV-I 0 W/m 7,0 C 4,2 C 22,5 km/h (4 Bft) 95,83 %
07.10.2017 04:04 8,4 C 12,2 C 91 % 1020,5 hPa 0,0 l/m 15,2 km/h (3 Bft) W 279 0 min 0,000 mm 0,0 UV-I 0 W/m 7,0 C 3,1 C 27,4 km/h (4 Bft) 95,74 %
07.10.2017 04:06 8,4 C 12,2 C 91 % 1020,5 hPa 0,0 l/m 15,8 km/h (3 Bft) W 260 0 min 0,000 mm 0,0 UV-I 0 W/m 7,0 C 2,8 C 25,7 km/h (4 Bft) 93,62 %
07.10.2017 04:08 8,4 C 12,2 C 90 % 1020,4 hPa 0,0 l/m 18,7 km/h (3 Bft) W-SW 243 0 min 0,000 mm 0,0 UV-I 0 W/m 6,9 C 1,7 C 27,4 km/h (4 Bft) 97,37 %
07.10.2017 04:10 8,4 C 12,2 C 90 % 1020,5 hPa 0,0 l/m 17,1 km/h (3 Bft) SW 229 0 min 0,000 mm 0,0 UV-I 0 W/m 6,9 C 2,3 C 27,4 km/h (4 Bft) 97,87 %
07.10.2017 04:12 8,4 C 12,2 C 90 % 1020,5 hPa 0,0 l/m 14,8 km/h (3 Bft) W-SW 245 0 min 0,000 mm 0,0 UV-I 0 W/m 6,9 C 3,3 C 25,7 km/h (4 Bft) 93,62 %
07.10.2017 04:14 8,4 C 12,2 C 90 % 1020,5 hPa 0,0 l/m 17,1 km/h (3 Bft) W-SW 246 0 min 0,000 mm 0,0 UV-I 0 W/m 6,9 C 2,3 C 24,1 km/h (4 Bft) 98,00 %
07.10.2017 04:16 8,4 C 12,2 C 90 % 1020,5 hPa 0,0 l/m 15,0 km/h (3 Bft) SW 228 0 min 0,000 mm 0,0 UV-I 0 W/m 6,9 C 3,2 C 22,5 km/h (4 Bft) 98,04 %
07.10.2017 04:18 8,4 C 12,2 C 90 % 1020,6 hPa 0,0 l/m 18,5 km/h (3 Bft) W-SW 246 0 min 0,000 mm 0,0 UV-I 0 W/m 6,9 C 1,8 C 25,7 km/h (4 Bft) 97,87 %
07.10.2017 04:20 8,3 C 12,2 C 90 % 1020,6 hPa 0,0 l/m 15,2 km/h (3 Bft) W-SW 237 0 min 0,000 mm 0,0 UV-I 0 W/m 6,8 C 3,0 C 24,1 km/h (4 Bft) 94,44 %
07.10.2017 04:22 8,3 C 12,2 C 90 % 1020,6 hPa 0,0 l/m 12,5 km/h (3 Bft) W 271 0 min 0,000 mm 0,0 UV-I 0 W/m 6,8 C 4,3 C 17,7 km/h (3 Bft) 92,31 %
07.10.2017 04:24 8,3 C 11,7 C 90 % 1020,6 hPa 0,0 l/m 12,9 km/h (3 Bft) W-SW 244 0 min 0,000 mm 0,0 UV-I 0 W/m 6,8 C 4,1 C 19,3 km/h (3 Bft) 95,74 %
07.10.2017 04:26 8,3 C 12,2 C 90 % 1020,6 hPa 0,0 l/m 15,9 km/h (3 Bft) W-SW 247 0 min 0,000 mm 0,0 UV-I 0 W/m 6,8 C 2,7 C 22,5 km/h (4 Bft) 97,92 %
07.10.2017 04:28 8,4 C 12,2 C 91 % 1020,6 hPa 0,0 l/m 13,5 km/h (3 Bft) SW 232 0 min 0,000 mm 0,0 UV-I 0 W/m 7,0 C 3,9 C 20,9 km/h (4 Bft) 97,87 %
07.10.2017 04:30 8,4 C 12,2 C 91 % 1020,6 hPa 0,0 l/m 12,2 km/h (2 Bft) W 261 0 min 0,000 mm 0,0 UV-I 0 W/m 7,0 C 4,6 C 24,1 km/h (4 Bft) 98,00 %
07.10.2017 04:32 8,4 C 12,2 C 91 % 1020,6 hPa 0,0 l/m 15,4 km/h (3 Bft) W 261 0 min 0,000 mm 0,0 UV-I 0 W/m 7,0 C 3,0 C 20,9 km/h (4 Bft) 97,87 %
07.10.2017 04:34 8,4 C 12,2 C 91 % 1020,7 hPa 0,0 l/m 12,3 km/h (3 Bft) W-SW 240 0 min 0,000 mm 0,0 UV-I 0 W/m 7,0 C 4,5 C 20,9 km/h (4 Bft) 95,74 %
07.10.2017 04:36 8,4 C 12,2 C 91 % 1020,6 hPa 0,0 l/m 15,3 km/h (3 Bft) SW 236 0 min 0,000 mm 0,0 UV-I 0 W/m 7,0 C 3,1 C 24,1 km/h (4 Bft) 97,37 %
07.10.2017 04:38 8,4 C 12,2 C 91 % 1020,7 hPa 0,0 l/m 15,2 km/h (3 Bft) W-SW 248 0 min 0,000 mm 0,0 UV-I 0 W/m 7,0 C 3,1 C 24,1 km/h (4 Bft) 95,74 %
07.10.2017 04:40 8,4 C 11,7 C 91 % 1020,6 hPa 0,0 l/m 12,3 km/h (3 Bft) W 262 0 min 0,000 mm 0,0 UV-I 0 W/m 7,0 C 4,5 C 16,1 km/h (3 Bft) 93,62 %
07.10.2017 04:42 8,4 C 11,7 C 91 % 1020,7 hPa 0,0 l/m 17,0 km/h (3 Bft) W-SW 237 0 min 0,000 mm 0,0 UV-I 0 W/m 7,0 C 2,3 C 24,1 km/h (4 Bft) 95,83 %
07.10.2017 04:44 8,5 C 11,7 C 90 % 1020,6 hPa 0,0 l/m 14,2 km/h (3 Bft) W-SW 257 0 min 0,000 mm 0,0 UV-I 0 W/m 7,0 C 3,7 C 19,3 km/h (3 Bft) 95,74 %
07.10.2017 04:46 8,5 C 12,2 C 90 % 1020,6 hPa 0,0 l/m 14,0 km/h (3 Bft) W 269 0 min 0,000 mm 0,0 UV-I 0 W/m 7,0 C 3,8 C 20,9 km/h (4 Bft) 97,87 %
07.10.2017 04:48 8,5 C 12,2 C 90 % 1020,6 hPa 0,0 l/m 13,5 km/h (3 Bft) W-SW 251 0 min 0,000 mm 0,0 UV-I 0 W/m 7,0 C 4,0 C 24,1 km/h (4 Bft) 96,00 %
07.10.2017 04:50 8,5 C 11,7 C 90 % 1020,6 hPa 0,0 l/m 12,4 km/h (3 Bft) W-SW 242 0 min 0,000 mm 0,0 UV-I 0 W/m 7,0 C 4,6 C 20,9 km/h (4 Bft) 98,00 %
07.10.2017 04:52 8,4 C 11,7 C 90 % 1020,6 hPa 0,0 l/m 16,2 km/h (3 Bft) W-SW 251 0 min 0,000 mm 0,0 UV-I 0 W/m 6,9 C 2,7 C 22,5 km/h (4 Bft) 97,44 %
07.10.2017 04:54 8,5 C 11,7 C 90 % 1020,6 hPa 0,0 l/m 10,8 km/h (2 Bft) W-SW 258 0 min 0,000 mm 0,0 UV-I 0 W/m 7,0 C 5,5 C 16,1 km/h (3 Bft) 95,74 %
07.10.2017 04:56 8,5 C 11,7 C 90 % 1020,6 hPa 0,0 l/m 14,1 km/h (3 Bft) W 263 0 min 0,000 mm 0,0 UV-I 0 W/m 7,0 C 3,7 C 25,7 km/h (4 Bft) 97,87 %
07.10.2017 04:58 8,4 C 11,7 C 90 % 1020,6 hPa 0,0 l/m 16,0 km/h (3 Bft) NW 305 0 min 0,000 mm 0,0 UV-I 0 W/m 6,9 C 2,8 C 27,4 km/h (4 Bft) 95,74 %
07.10.2017 05:00 8,5 C 11,7 C 90 % 1020,6 hPa 0,0 l/m 16,0 km/h (3 Bft) W 277 0 min 0,025 mm 0,0 UV-I 0 W/m 7,0 C 2,9 C 24,1 km/h (4 Bft) 98,00 %
07.10.2017 05:02 8,5 C 11,7 C 90 % 1020,6 hPa 0,0 l/m 15,5 km/h (3 Bft) SW 236 0 min 0,000 mm 0,0 UV-I 0 W/m 7,0 C 3,1 C 24,1 km/h (4 Bft) 97,87 %
07.10.2017 05:04 8,5 C 11,7 C 90 % 1020,6 hPa 0,0 l/m 14,1 km/h (3 Bft) W 259 0 min 0,000 mm 0,0 UV-I 0 W/m 7,0 C 3,7 C 25,7 km/h (4 Bft) 97,87 %
07.10.2017 05:06 8,5 C 11,7 C 90 % 1020,6 hPa 0,0 l/m 10,8 km/h (2 Bft) SW 236 0 min 0,000 mm 0,0 UV-I 0 W/m 7,0 C 5,5 C 17,7 km/h (3 Bft) 98,00 %
07.10.2017 05:08 8,5 C 11,7 C 90 % 1020,6 hPa 0,0 l/m 12,9 km/h (3 Bft) W-SW 254 0 min 0,000 mm 0,0 UV-I 0 W/m 7,0 C 4,3 C 20,9 km/h (4 Bft) 97,44 %
07.10.2017 05:10 8,5 C 11,7 C 90 % 1020,7 hPa 0,0 l/m 12,2 km/h (2 Bft) W-SW 251 0 min 0,000 mm 0,0 UV-I 0 W/m 7,0 C 4,7 C 24,1 km/h (4 Bft) 100,00 %
07.10.2017 05:12 8,5 C 11,7 C 90 % 1020,6 hPa 0,0 l/m 11,3 km/h (2 Bft) W 265 0 min 0,000 mm 0,0 UV-I 0 W/m 7,0 C 5,2 C 19,3 km/h (3 Bft) 97,87 %
07.10.2017 05:14 8,5 C 11,7 C 90 % 1020,7 hPa 0,0 l/m 15,3 km/h (3 Bft) S-SW 205 0 min 0,000 mm 0,0 UV-I 0 W/m 7,0 C 3,2 C 25,7 km/h (4 Bft) 100,00 %
07.10.2017 05:16 8,5 C 11,7 C 90 % 1020,7 hPa 0,0 l/m 13,5 km/h (3 Bft) W 264 0 min 0,000 mm 0,0 UV-I 0 W/m 7,0 C 4,0 C 24,1 km/h (4 Bft) 100,00 %
07.10.2017 05:18 8,5 C 11,7 C 90 % 1020,7 hPa 0,0 l/m 12,6 km/h (3 Bft) W-NW 296 0 min 0,000 mm 0,0 UV-I 0 W/m 7,0 C 4,5 C 20,9 km/h (4 Bft) 100,00 %
07.10.2017 05:20 8,5 C 11,7 C 90 % 1020,7 hPa 0,0 l/m 12,5 km/h (3 Bft) SW 227 0 min 0,000 mm 0,0 UV-I 0 W/m 7,0 C 4,5 C 20,9 km/h (4 Bft) 100,00 %
07.10.2017 05:22 8,5 C 11,7 C 90 % 1020,7 hPa 0,0 l/m 11,9 km/h (2 Bft) S-SW 209 0 min 0,000 mm 0,0 UV-I 0 W/m 7,0 C 4,8 C 24,1 km/h (4 Bft) 100,00 %
07.10.2017 05:24 8,5 C 11,7 C 90 % 1020,8 hPa 0,0 l/m 14,1 km/h (3 Bft) W 274 0 min 0,000 mm 0,0 UV-I 0 W/m 7,0 C 3,7 C 20,9 km/h (4 Bft) 100,00 %
07.10.2017 05:26 8,5 C 11,7 C 90 % 1020,8 hPa 0,0 l/m 14,0 km/h (3 Bft) W-SW 242 0 min 0,000 mm 0,0 UV-I 0 W/m 7,0 C 3,8 C 20,9 km/h (4 Bft) 95,74 %
07.10.2017 05:28 8,5 C 11,7 C 90 % 1020,8 hPa 0,0 l/m 11,2 km/h (2 Bft) W-SW 243 0 min 0,000 mm 0,0 UV-I 0 W/m 7,0 C 5,2 C 17,7 km/h (3 Bft) 100,00 %
07.10.2017 05:30 8,5 C 11,7 C 90 % 1020,7 hPa 0,0 l/m 12,7 km/h (3 Bft) SW 224 0 min 0,000 mm 0,0 UV-I 0 W/m 7,0 C 4,4 C 20,9 km/h (4 Bft) 100,00 %
07.10.2017 05:32 8,5 C 11,7 C 90 % 1020,7 hPa 0,0 l/m 15,5 km/h (3 Bft) W-SW 250 0 min 0,000 mm 0,0 UV-I 0 W/m 7,0 C 3,1 C 25,7 km/h (4 Bft) 100,00 %
07.10.2017 05:34 8,6 C 11,7 C 90 % 1020,8 hPa 0,0 l/m 18,2 km/h (3 Bft) W-SW 251 0 min 0,000 mm 0,0 UV-I 0 W/m 7,1 C 2,1 C 22,5 km/h (4 Bft) 100,00 %
07.10.2017 05:36 8,6 C 11,7 C 90 % 1020,8 hPa 0,0 l/m 14,3 km/h (3 Bft) SW 236 0 min 0,000 mm 0,0 UV-I 0 W/m 7,1 C 3,8 C 20,9 km/h (4 Bft) 100,00 %
07.10.2017 05:38 8,6 C 11,7 C 89 % 1020,8 hPa 0,0 l/m 18,7 km/h (3 Bft) W-SW 253 0 min 0,000 mm 0,0 UV-I 0 W/m 6,9 C 1,9 C 30,6 km/h (5 Bft) 93,62 %
07.10.2017 05:40 8,6 C 11,7 C 89 % 1020,8 hPa 0,0 l/m 18,2 km/h (3 Bft) W 269 0 min 0,000 mm 0,0 UV-I 0 W/m 6,9 C 2,1 C 24,1 km/h (4 Bft) 95,74 %
07.10.2017 05:42 8,6 C 11,7 C 89 % 1020,8 hPa 0,0 l/m 13,9 km/h (3 Bft) W 261 0 min 0,000 mm 0,0 UV-I 0 W/m 6,9 C 3,9 C 22,5 km/h (4 Bft) 97,87 %
07.10.2017 05:44 8,6 C 11,7 C 89 % 1020,8 hPa 0,0 l/m 16,8 km/h (3 Bft) W 269 0 min 0,000 mm 0,0 UV-I 0 W/m 6,9 C 2,7 C 25,7 km/h (4 Bft) 97,87 %
07.10.2017 05:46 8,5 C 11,7 C 89 % 1020,8 hPa 0,0 l/m 17,4 km/h (3 Bft) W 259 0 min 0,000 mm 0,0 UV-I 0 W/m 6,8 C 2,3 C 30,6 km/h (5 Bft) 100,00 %
07.10.2017 05:48 8,5 C 11,7 C 89 % 1020,9 hPa 0,0 l/m 17,8 km/h (3 Bft) W 275 0 min 0,000 mm 0,0 UV-I 0 W/m 6,8 C 2,2 C 33,8 km/h (5 Bft) 97,44 %
07.10.2017 05:50 8,5 C 11,7 C 89 % 1020,9 hPa 0,0 l/m 16,9 km/h (3 Bft) W 272 0 min 0,000 mm 0,0 UV-I 0 W/m 6,8 C 2,5 C 25,7 km/h (4 Bft) 97,87 %
07.10.2017 05:52 8,5 C 11,7 C 89 % 1020,9 hPa 0,0 l/m 13,9 km/h (3 Bft) W-SW 242 0 min 0,000 mm 0,0 UV-I 0 W/m 6,8 C 3,8 C 20,9 km/h (4 Bft) 96,23 %
07.10.2017 05:54 8,5 C 11,7 C 89 % 1020,9 hPa 0,0 l/m 14,1 km/h (3 Bft) W-SW 257 0 min 0,000 mm 0,0 UV-I 0 W/m 6,8 C 3,7 C 25,7 km/h (4 Bft) 98,00 %
07.10.2017 05:56 8,5 C 11,7 C 89 % 1020,9 hPa 0,0 l/m 13,4 km/h (3 Bft) W-SW 237 0 min 0,000 mm 0,0 UV-I 0 W/m 6,8 C 4,1 C 20,9 km/h (4 Bft) 97,87 %
07.10.2017 05:58 8,5 C 11,7 C 89 % 1021,0 hPa 0,0 l/m 13,7 km/h (3 Bft) W-SW 244 0 min 0,000 mm 0,0 UV-I 0 W/m 6,8 C 3,9 C 19,3 km/h (3 Bft) 95,74 %
07.10.2017 06:00 8,4 C 11,7 C 89 % 1020,9 hPa 0,0 l/m 14,1 km/h (3 Bft) W-SW 241 0 min 0,000 mm 0,0 UV-I 0 W/m 6,7 C 3,6 C 19,3 km/h (3 Bft) 97,14 %
07.10.2017 06:02 8,4 C 11,7 C 89 % 1020,9 hPa 0,0 l/m 13,7 km/h (3 Bft) W 263 0 min 0,025 mm 0,0 UV-I 0 W/m 6,7 C 3,8 C 22,5 km/h (4 Bft) 94,00 %
07.10.2017 06:04 8,4 C 11,7 C 89 % 1021,0 hPa 0,0 l/m 13,4 km/h (3 Bft) W-SW 253 0 min 0,000 mm 0,0 UV-I 0 W/m 6,7 C 3,9 C 20,9 km/h (4 Bft) 98,00 %
07.10.2017 06:06 8,4 C 11,7 C 89 % 1020,9 hPa 0,0 l/m 14,6 km/h (3 Bft) W-SW 250 0 min 0,000 mm 0,0 UV-I 0 W/m 6,7 C 3,4 C 20,9 km/h (4 Bft) 97,87 %
07.10.2017 06:08 8,4 C 11,7 C 89 % 1021,1 hPa 0,0 l/m 13,5 km/h (3 Bft) W 261 0 min 0,000 mm 0,0 UV-I 0 W/m 6,7 C 3,9 C 20,9 km/h (4 Bft) 95,74 %
07.10.2017 06:10 8,4 C 11,7 C 89 % 1021,1 hPa 0,0 l/m 12,0 km/h (2 Bft) W-SW 246 0 min 0,000 mm 0,0 UV-I 0 W/m 6,7 C 4,7 C 20,9 km/h (4 Bft) 97,87 %
07.10.2017 06:12 8,4 C 11,7 C 89 % 1021,0 hPa 0,0 l/m 19,2 km/h (3 Bft) W-SW 251 0 min 0,000 mm 0,0 UV-I 0 W/m 6,7 C 1,5 C 25,7 km/h (4 Bft) 98,00 %
07.10.2017 06:14 8,4 C 11,7 C 89 % 1021,1 hPa 0,0 l/m 16,2 km/h (3 Bft) W 277 0 min 0,000 mm 0,0 UV-I 0 W/m 6,7 C 2,7 C 25,7 km/h (4 Bft) 100,00 %
07.10.2017 06:16 8,4 C 11,7 C 89 % 1021,2 hPa 0,0 l/m 11,7 km/h (2 Bft) W-SW 246 0 min 0,000 mm 0,0 UV-I 0 W/m 6,7 C 4,8 C 20,9 km/h (4 Bft) 100,00 %
07.10.2017 06:18 8,4 C 11,7 C 89 % 1021,2 hPa 0,0 l/m 11,1 km/h (2 Bft) W-SW 250 0 min 0,000 mm 0,0 UV-I 0 W/m 6,7 C 5,2 C 20,9 km/h (4 Bft) 97,87 %
07.10.2017 06:20 8,5 C 11,7 C 89 % 1021,3 hPa 0,0 l/m 12,9 km/h (3 Bft) W 277 0 min 0,000 mm 0,0 UV-I 0 W/m 6,8 C 4,3 C 20,9 km/h (4 Bft) 98,00 %
07.10.2017 06:22 8,5 C 11,7 C 89 % 1021,2 hPa 0,0 l/m 17,4 km/h (3 Bft) W-SW 245 0 min 0,000 mm 0,0 UV-I 0 W/m 6,8 C 2,3 C 27,4 km/h (4 Bft) 100,00 %
07.10.2017 06:24 8,6 C 11,7 C 89 % 1021,2 hPa 0,0 l/m 12,1 km/h (2 Bft) W-SW 240 0 min 0,000 mm 0,0 UV-I 0 W/m 6,9 C 4,8 C 20,9 km/h (4 Bft) 100,00 %
07.10.2017 06:26 8,6 C 11,7 C 89 % 1021,3 hPa 0,0 l/m 11,8 km/h (2 Bft) W-SW 258 0 min 0,000 mm 0,0 UV-I 0 W/m 6,9 C 5,0 C 20,9 km/h (4 Bft) 100,00 %
07.10.2017 06:28 8,6 C 11,7 C 89 % 1021,3 hPa 0,0 l/m 15,3 km/h (3 Bft) W-SW 245 0 min 0,000 mm 0,0 UV-I 0 W/m 6,9 C 3,3 C 20,9 km/h (4 Bft) 100,00 %
07.10.2017 06:30 8,6 C 11,7 C 88 % 1021,3 hPa 0,0 l/m 16,5 km/h (3 Bft) SW 224 0 min 0,000 mm 0,0 UV-I 0 W/m 6,7 C 2,8 C 24,1 km/h (4 Bft) 100,00 %
07.10.2017 06:32 8,6 C 11,7 C 88 % 1021,3 hPa 0,0 l/m 15,9 km/h (3 Bft) SW 234 0 min 0,000 mm 0,0 UV-I 0 W/m 6,7 C 3,0 C 22,5 km/h (4 Bft) 100,00 %
07.10.2017 06:34 8,6 C 11,7 C 88 % 1021,3 hPa 0,0 l/m 17,1 km/h (3 Bft) W-SW 252 0 min 0,000 mm 0,0 UV-I 0 W/m 6,7 C 2,6 C 24,1 km/h (4 Bft) 100,00 %
07.10.2017 06:36 8,6 C 11,7 C 88 % 1021,4 hPa 0,0 l/m 16,8 km/h (3 Bft) W 273 0 min 0,000 mm 0,0 UV-I 0 W/m 6,7 C 2,7 C 22,5 km/h (4 Bft) 97,87 %
07.10.2017 06:38 8,6 C 11,7 C 88 % 1021,4 hPa 0,0 l/m 14,7 km/h (3 Bft) W 259 0 min 0,000 mm 0,0 UV-I 0 W/m 6,7 C 3,6 C 22,5 km/h (4 Bft) 100,00 %
07.10.2017 06:40 8,6 C 11,7 C 89 % 1021,3 hPa 0,0 l/m 14,0 km/h (3 Bft) W-SW 246 0 min 0,000 mm 0,0 UV-I 0 W/m 6,9 C 3,9 C 24,1 km/h (4 Bft) 98,00 %
07.10.2017 06:42 8,6 C 11,7 C 89 % 1021,4 hPa 0,0 l/m 15,0 km/h (3 Bft) W-SW 252 0 min 0,000 mm 0,0 UV-I 0 W/m 6,9 C 3,4 C 20,9 km/h (4 Bft) 100,00 %
07.10.2017 06:44 8,6 C 11,7 C 89 % 1021,4 hPa 0,0 l/m 10,9 km/h (2 Bft) SW 232 0 min 0,000 mm 0,0 UV-I 0 W/m 6,9 C 5,5 C 17,7 km/h (3 Bft) 100,00 %
07.10.2017 06:46 8,6 C 11,7 C 89 % 1021,5 hPa 0,0 l/m 14,5 km/h (3 Bft) W-SW 253 0 min 0,000 mm 0,0 UV-I 0 W/m 6,9 C 3,7 C 19,3 km/h (3 Bft) 100,00 %
07.10.2017 06:48 8,5 C 11,7 C 89 % 1021,5 hPa 0,0 l/m 13,0 km/h (3 Bft) W-SW 252 0 min 0,000 mm 0,0 UV-I 0 W/m 6,8 C 4,3 C 17,7 km/h (3 Bft) 100,00 %
07.10.2017 06:50 8,6 C 11,7 C 89 % 1021,5 hPa 0,0 l/m 17,3 km/h (3 Bft) W 277 0 min 0,000 mm 0,0 UV-I 0 W/m 6,9 C 2,5 C 25,7 km/h (4 Bft) 100,00 %
07.10.2017 06:52 8,6 C 11,7 C 89 % 1021,6 hPa 0,0 l/m 10,6 km/h (2 Bft) W-SW 252 0 min 0,000 mm 0,0 UV-I 0 W/m 6,9 C 5,7 C 17,7 km/h (3 Bft) 97,87 %
07.10.2017 06:54 8,6 C 11,7 C 89 % 1021,6 hPa 0,0 l/m 13,5 km/h (3 Bft) SW 229 0 min 0,000 mm 0,0 UV-I 0 W/m 6,9 C 4,1 C 22,5 km/h (4 Bft) 100,00 %
07.10.2017 06:56 8,6 C 11,7 C 89 % 1021,5 hPa 0,0 l/m 12,6 km/h (3 Bft) W 264 0 min 0,000 mm 0,0 UV-I 0 W/m 6,9 C 4,6 C 20,9 km/h (4 Bft) 100,00 %
07.10.2017 06:58 8,6 C 11,7 C 89 % 1021,6 hPa 0,0 l/m 11,2 km/h (2 Bft) W-SW 242 0 min 0,000 mm 0,0 UV-I 0 W/m 6,9 C 5,3 C 17,7 km/h (3 Bft) 100,00 %
07.10.2017 07:00 8,5 C 11,7 C 89 % 1021,6 hPa 0,0 l/m 12,2 km/h (2 Bft) W-SW 251 0 min 0,026 mm 0,0 UV-I 0 W/m 6,8 C 4,7 C 17,7 km/h (3 Bft) 100,00 %
07.10.2017 07:02 8,5 C 11,7 C 89 % 1021,6 hPa 0,0 l/m 9,8 km/h (2 Bft) SW 225 0 min 0,000 mm 0,0 UV-I 0 W/m 6,8 C 6,1 C 16,1 km/h (3 Bft) 98,00 %
07.10.2017 07:04 8,5 C 11,7 C 89 % 1021,6 hPa 0,0 l/m 14,6 km/h (3 Bft) W 269 0 min 0,000 mm 0,0 UV-I 0 W/m 6,8 C 3,5 C 19,3 km/h (3 Bft) 100,00 %
07.10.2017 07:06 8,5 C 11,7 C 89 % 1021,6 hPa 0,0 l/m 11,9 km/h (2 Bft) W 263 0 min 0,000 mm 0,0 UV-I 5 W/m 6,8 C 4,8 C 16,1 km/h (3 Bft) 100,00 %
07.10.2017 07:08 8,5 C 11,7 C 89 % 1021,6 hPa 0,0 l/m 12,2 km/h (2 Bft) SW 234 0 min 0,000 mm 0,0 UV-I 5 W/m 6,8 C 4,7 C 17,7 km/h (3 Bft) 98,00 %
07.10.2017 07:10 8,5 C 11,7 C 89 % 1021,6 hPa 0,0 l/m 13,8 km/h (3 Bft) W-SW 246 0 min 0,000 mm 0,0 UV-I 5 W/m 6,8 C 3,9 C 24,1 km/h (4 Bft) 100,00 %
07.10.2017 07:12 8,5 C 11,7 C 89 % 1021,5 hPa 0,0 l/m 13,0 km/h (3 Bft) W 265 0 min 0,000 mm 0,0 UV-I 5 W/m 6,8 C 4,3 C 20,9 km/h (4 Bft) 100,00 %
07.10.2017 07:14 8,5 C 11,7 C 89 % 1021,5 hPa 0,0 l/m 11,2 km/h (2 Bft) W-SW 257 0 min 0,000 mm 0,0 UV-I 5 W/m 6,8 C 5,2 C 14,5 km/h (3 Bft) 100,00 %
07.10.2017 07:16 8,5 C 11,7 C 89 % 1021,5 hPa 0,0 l/m 14,2 km/h (3 Bft) W 274 0 min 0,000 mm 0,0 UV-I 7 W/m 6,8 C 3,7 C 22,5 km/h (4 Bft) 100,00 %
07.10.2017 07:18 8,5 C 11,7 C 89 % 1021,6 hPa 0,0 l/m 12,3 km/h (3 Bft) W 265 0 min 0,000 mm 0,0 UV-I 7 W/m 6,8 C 4,6 C 17,7 km/h (3 Bft) 98,00 %
07.10.2017 07:20 8,4 C 11,7 C 89 % 1021,6 hPa 0,0 l/m 11,3 km/h (2 Bft) SW 230 0 min 0,000 mm 0,0 UV-I 7 W/m 6,7 C 5,1 C 16,1 km/h (3 Bft) 91,49 %
07.10.2017 07:22 8,5 C 11,7 C 89 % 1021,5 hPa 0,0 l/m 10,3 km/h (2 Bft) W 266 0 min 0,000 mm 0,0 UV-I 7 W/m 6,8 C 5,8 C 14,5 km/h (3 Bft) 100,00 %
07.10.2017 07:24 8,4 C 11,7 C 89 % 1021,6 hPa 0,0 l/m 13,7 km/h (3 Bft) W-SW 245 0 min 0,000 mm 0,0 UV-I 9 W/m 6,7 C 3,8 C 19,3 km/h (3 Bft) 100,00 %
07.10.2017 07:26 8,5 C 11,7 C 89 % 1021,6 hPa 0,0 l/m 11,4 km/h (2 Bft) W-SW 254 0 min 0,000 mm 0,0 UV-I 9 W/m 6,8 C 5,1 C 16,1 km/h (3 Bft) 100,00 %
07.10.2017 07:28 8,4 C 11,7 C 89 % 1021,6 hPa 0,0 l/m 11,9 km/h (2 Bft) W-SW 249 0 min 0,000 mm 0,0 UV-I 9 W/m 6,7 C 4,7 C 17,7 km/h (3 Bft) 97,87 %
07.10.2017 07:30 8,5 C 11,7 C 90 % 1021,6 hPa 0,0 l/m 14,2 km/h (3 Bft) W-SW 247 0 min 0,000 mm 0,0 UV-I 9 W/m 7,0 C 3,7 C 24,1 km/h (4 Bft) 100,00 %
07.10.2017 07:32 8,5 C 11,7 C 89 % 1021,6 hPa 0,0 l/m 10,3 km/h (2 Bft) W-SW 251 0 min 0,000 mm 0,0 UV-I 9 W/m 6,8 C 5,8 C 16,1 km/h (3 Bft) 97,87 %
07.10.2017 07:34 8,5 C 11,7 C 90 % 1021,6 hPa 0,0 l/m 10,7 km/h (2 Bft) W-SW 253 0 min 0,000 mm 0,0 UV-I 7 W/m 7,0 C 5,5 C 17,7 km/h (3 Bft) 100,00 %
07.10.2017 07:36 8,5 C 11,7 C 90 % 1021,6 hPa 0,0 l/m 10,8 km/h (2 Bft) W-SW 255 0 min 0,000 mm 0,0 UV-I 7 W/m 7,0 C 5,5 C 17,7 km/h (3 Bft) 100,00 %
07.10.2017 07:38 8,4 C 11,7 C 90 % 1021,6 hPa 0,0 l/m 11,2 km/h (2 Bft) SW 229 0 min 0,000 mm 0,0 UV-I 7 W/m 6,9 C 5,1 C 17,7 km/h (3 Bft) 97,87 %
07.10.2017 07:40 8,5 C 11,7 C 90 % 1021,6 hPa 0,0 l/m 11,0 km/h (2 Bft) W-SW 252 0 min 0,000 mm 0,0 UV-I 8 W/m 7,0 C 5,3 C 19,3 km/h (3 Bft) 97,87 %
07.10.2017 07:42 8,5 C 11,7 C 90 % 1021,6 hPa 0,0 l/m 14,0 km/h (3 Bft) SW 221 0 min 0,000 mm 0,0 UV-I 9 W/m 7,0 C 3,8 C 19,3 km/h (3 Bft) 100,00 %
07.10.2017 07:44 8,5 C 11,7 C 90 % 1021,6 hPa 0,0 l/m 11,9 km/h (2 Bft) W-SW 257 0 min 0,000 mm 0,0 UV-I 9 W/m 7,0 C 4,8 C 17,7 km/h (3 Bft) 100,00 %
07.10.2017 07:46 8,5 C 11,7 C 90 % 1021,6 hPa 0,0 l/m 10,4 km/h (2 Bft) SW 215 0 min 0,000 mm 0,0 UV-I 10 W/m 7,0 C 5,7 C 17,7 km/h (3 Bft) 97,87 %
07.10.2017 07:48 8,4 C 11,7 C 90 % 1021,6 hPa 0,0 l/m 7,8 km/h (2 Bft) SW 222 0 min 0,000 mm 0,0 UV-I 10 W/m 6,9 C 7,3 C 12,9 km/h (3 Bft) 94,87 %
07.10.2017 07:50 8,4 C 11,7 C 90 % 1021,6 hPa 0,0 l/m 9,7 km/h (2 Bft) SW 221 0 min 0,000 mm 0,0 UV-I 11 W/m 6,9 C 6,0 C 16,1 km/h (3 Bft) 97,87 %
07.10.2017 07:52 8,4 C 11,7 C 91 % 1021,6 hPa 0,0 l/m 8,6 km/h (2 Bft) S-SW 205 0 min 0,000 mm 0,0 UV-I 11 W/m 7,0 C 6,7 C 14,5 km/h (3 Bft) 97,87 %
07.10.2017 07:54 8,3 C 11,7 C 91 % 1021,7 hPa 0,0 l/m 9,0 km/h (2 Bft) W-SW 244 0 min 0,000 mm 0,0 UV-I 11 W/m 6,9 C 6,4 C 14,5 km/h (3 Bft) 95,74 %
07.10.2017 07:56 8,3 C 11,7 C 91 % 1021,6 hPa 0,0 l/m 7,5 km/h (2 Bft) SW 229 0 min 0,000 mm 0,0 UV-I 11 W/m 6,9 C 7,4 C 14,5 km/h (3 Bft) 95,74 %
07.10.2017 07:58 8,3 C 11,7 C 91 % 1021,6 hPa 0,0 l/m 10,2 km/h (2 Bft) W-SW 243 0 min 0,000 mm 0,0 UV-I 11 W/m 6,9 C 5,6 C 17,7 km/h (3 Bft) 93,62 %
07.10.2017 08:00 8,3 C 11,7 C 91 % 1021,7 hPa 0,0 l/m 9,3 km/h (2 Bft) SW 217 0 min 0,025 mm 0,0 UV-I 12 W/m 6,9 C 6,2 C 14,5 km/h (3 Bft) 95,74 %
07.10.2017 08:02 8,3 C 11,7 C 91 % 1021,7 hPa 0,0 l/m 10,1 km/h (2 Bft) SW 214 0 min 0,000 mm 0,0 UV-I 14 W/m 6,9 C 5,7 C 14,5 km/h (3 Bft) 96,00 %
07.10.2017 08:04 8,3 C 11,7 C 91 % 1021,6 hPa 0,0 l/m 12,4 km/h (3 Bft) S-SW 198 0 min 0,000 mm 0,0 UV-I 20 W/m 6,9 C 4,3 C 17,7 km/h (3 Bft) 95,74 %
07.10.2017 08:06 8,3 C 11,7 C 91 % 1021,7 hPa 0,0 l/m 10,3 km/h (2 Bft) S-SW 203 0 min 0,000 mm 0,0 UV-I 25 W/m 6,9 C 5,5 C 17,7 km/h (3 Bft) 95,74 %
07.10.2017 08:08 8,3 C 11,7 C 91 % 1021,7 hPa 0,0 l/m 13,4 km/h (3 Bft) W 269 0 min 0,000 mm 0,0 UV-I 27 W/m 6,9 C 3,8 C 25,7 km/h (4 Bft) 95,74 %
07.10.2017 08:10 8,3 C 11,7 C 91 % 1021,7 hPa 0,0 l/m 11,5 km/h (2 Bft) W-SW 245 0 min 0,000 mm 0,0 UV-I 26 W/m 6,9 C 4,8 C 19,3 km/h (3 Bft) 93,62 %
07.10.2017 08:12 8,4 C 11,7 C 91 % 1021,7 hPa 0,0 l/m 13,5 km/h (3 Bft) W 272 0 min 0,000 mm 0,0 UV-I 25 W/m 7,0 C 3,9 C 17,7 km/h (3 Bft) 89,74 %
07.10.2017 08:14 8,4 C 11,7 C 91 % 1021,7 hPa 0,0 l/m 13,6 km/h (3 Bft) W-SW 254 0 min 0,000 mm 0,0 UV-I 27 W/m 7,0 C 3,9 C 19,3 km/h (3 Bft) 93,62 %
07.10.2017 08:16 8,5 C 11,7 C 91 % 1021,8 hPa 0,0 l/m 16,5 km/h (3 Bft) W-SW 251 0 min 0,000 mm 0,0 UV-I 28 W/m 7,1 C 2,7 C 29,0 km/h (5 Bft) 96,23 %
07.10.2017 08:18 8,6 C 11,7 C 90 % 1021,8 hPa 0,0 l/m 15,4 km/h (3 Bft) W 260 0 min 0,000 mm 0,0 UV-I 28 W/m 7,1 C 3,3 C 22,5 km/h (4 Bft) 94,00 %
07.10.2017 08:20 8,6 C 11,7 C 90 % 1021,7 hPa 0,0 l/m 14,9 km/h (3 Bft) SW 223 0 min 0,000 mm 0,0 UV-I 24 W/m 7,1 C 3,5 C 19,3 km/h (3 Bft) 97,87 %
07.10.2017 08:22 8,7 C 11,7 C 90 % 1021,9 hPa 0,0 l/m 18,2 km/h (3 Bft) SW 222 0 min 0,000 mm 0,0 UV-I 27 W/m 7,2 C 2,3 C 27,4 km/h (4 Bft) 97,87 %
07.10.2017 08:24 8,8 C 11,7 C 89 % 1021,8 hPa 0,0 l/m 19,1 km/h (3 Bft) W-SW 256 0 min 0,000 mm 0,0 UV-I 26 W/m 7,1 C 2,1 C 27,4 km/h (4 Bft) 97,92 %
07.10.2017 08:26 8,8 C 11,7 C 89 % 1021,8 hPa 0,0 l/m 14,2 km/h (3 Bft) W-NW 294 0 min 0,000 mm 0,0 UV-I 26 W/m 7,1 C 4,0 C 20,9 km/h (4 Bft) 97,37 %
07.10.2017 08:28 8,9 C 11,7 C 88 % 1021,9 hPa 0,0 l/m 17,9 km/h (3 Bft) SW 231 0 min 0,000 mm 0,0 UV-I 31 W/m 7,0 C 2,6 C 30,6 km/h (5 Bft) 95,74 %
07.10.2017 08:30 8,9 C 11,7 C 88 % 1021,9 hPa 0,0 l/m 18,9 km/h (3 Bft) W 267 0 min 0,000 mm 0,0 UV-I 36 W/m 7,0 C 2,3 C 29,0 km/h (5 Bft) 96,23 %
07.10.2017 08:32 8,9 C 11,7 C 88 % 1021,9 hPa 0,0 l/m 16,1 km/h (3 Bft) W-SW 257 0 min 0,000 mm 0,0 UV-I 41 W/m 7,0 C 3,3 C 27,4 km/h (4 Bft) 96,00 %
07.10.2017 08:34 9,0 C 11,7 C 88 % 1021,9 hPa 0,0 l/m 15,6 km/h (3 Bft) W-SW 257 0 min 0,000 mm 0,0 UV-I 46 W/m 7,1 C 3,7 C 25,7 km/h (4 Bft) 94,29 %
07.10.2017 08:36 9,0 C 11,7 C 88 % 1021,9 hPa 0,0 l/m 14,2 km/h (3 Bft) W 263 0 min 0,000 mm 0,0 UV-I 62 W/m 7,1 C 4,3 C 25,7 km/h (4 Bft) 98,00 %
07.10.2017 08:38 9,0 C 11,7 C 88 % 1021,9 hPa 0,0 l/m 19,3 km/h (3 Bft) W-SW 244 0 min 0,000 mm 0,0 UV-I 80 W/m 7,1 C 2,2 C 30,6 km/h (5 Bft) 97,87 %
07.10.2017 08:40 9,1 C 11,7 C 88 % 1021,9 hPa 0,0 l/m 16,4 km/h (3 Bft) SW 234 0 min 0,000 mm 0,0 UV-I 87 W/m 7,2 C 3,5 C 24,1 km/h (4 Bft) 98,00 %
07.10.2017 08:42 9,1 C 11,7 C 87 % 1022,0 hPa 0,0 l/m 14,9 km/h (3 Bft) SW 232 0 min 0,000 mm 0,0 UV-I 89 W/m 7,1 C 4,1 C 22,5 km/h (4 Bft) 95,74 %
07.10.2017 08:44 9,1 C 11,7 C 87 % 1022,0 hPa 0,0 l/m 17,0 km/h (3 Bft) W-SW 250 0 min 0,000 mm 0,0 UV-I 79 W/m 7,1 C 3,2 C 25,7 km/h (4 Bft) 97,87 %
07.10.2017 08:46 9,1 C 11,7 C 87 % 1022,0 hPa 0,0 l/m 20,1 km/h (4 Bft) W-SW 239 0 min 0,000 mm 0,0 UV-I 69 W/m 7,1 C 2,1 C 29,0 km/h (5 Bft) 97,87 %
07.10.2017 08:48 9,1 C 11,7 C 87 % 1022,0 hPa 0,0 l/m 20,4 km/h (4 Bft) W-SW 243 0 min 0,000 mm 0,0 UV-I 69 W/m 7,1 C 2,0 C 27,4 km/h (4 Bft) 97,87 %
07.10.2017 08:50 9,2 C 11,7 C 87 % 1022,1 hPa 0,0 l/m 17,2 km/h (3 Bft) W 271 0 min 0,000 mm 0,0 UV-I 62 W/m 7,2 C 3,3 C 25,7 km/h (4 Bft) 95,74 %
07.10.2017 08:52 9,2 C 11,7 C 87 % 1022,1 hPa 0,0 l/m 16,6 km/h (3 Bft) W-SW 252 0 min 0,000 mm 0,0 UV-I 63 W/m 7,2 C 3,5 C 25,7 km/h (4 Bft) 95,74 %
07.10.2017 08:54 9,2 C 11,7 C 87 % 1022,1 hPa 0,0 l/m 13,8 km/h (3 Bft) W 267 0 min 0,000 mm 0,0 UV-I 67 W/m 7,2 C 4,7 C 19,3 km/h (3 Bft) 98,00 %
07.10.2017 08:56 9,2 C 11,7 C 87 % 1022,1 hPa 0,0 l/m 15,2 km/h (3 Bft) W 269 0 min 0,000 mm 0,0 UV-I 63 W/m 7,2 C 4,1 C 20,9 km/h (4 Bft) 97,87 %
07.10.2017 08:58 9,2 C 11,7 C 86 % 1022,1 hPa 0,0 l/m 15,6 km/h (3 Bft) W-SW 255 0 min 0,000 mm 0,0 UV-I 61 W/m 7,0 C 3,9 C 27,4 km/h (4 Bft) 97,22 %
07.10.2017 09:00 9,2 C 11,7 C 86 % 1022,2 hPa 0,0 l/m 11,4 km/h (2 Bft) W-SW 248 0 min 0,051 mm 0,0 UV-I 58 W/m 7,0 C 5,9 C 20,9 km/h (4 Bft) 98,00 %
07.10.2017 09:02 9,2 C 11,7 C 86 % 1022,2 hPa 0,0 l/m 14,6 km/h (3 Bft) W-SW 244 0 min 0,000 mm 0,0 UV-I 55 W/m 7,0 C 4,3 C 20,9 km/h (4 Bft) 95,74 %
07.10.2017 09:04 9,2 C 11,7 C 86 % 1022,1 hPa 0,0 l/m 13,8 km/h (3 Bft) W-SW 245 0 min 0,000 mm 0,0 UV-I 80 W/m 7,0 C 4,7 C 22,5 km/h (4 Bft) 100,00 %
07.10.2017 09:06 9,2 C 11,7 C 86 % 1022,1 hPa 0,0 l/m 15,4 km/h (3 Bft) W-SW 255 0 min 0,000 mm 0,0 UV-I 82 W/m 7,0 C 4,0 C 24,1 km/h (4 Bft) 96,00 %
07.10.2017 09:08 9,2 C 11,7 C 86 % 1022,1 hPa 0,0 l/m 17,6 km/h (3 Bft) SW 232 0 min 0,000 mm 0,0 UV-I 74 W/m 7,0 C 3,1 C 24,1 km/h (4 Bft) 100,00 %
07.10.2017 09:10 9,2 C 11,7 C 86 % 1022,2 hPa 0,0 l/m 12,3 km/h (3 Bft) W-SW 242 0 min 0,000 mm 0,0 UV-I 73 W/m 7,0 C 5,4 C 19,3 km/h (3 Bft) 100,00 %
07.10.2017 09:12 9,2 C 11,7 C 86 % 1022,1 hPa 0,0 l/m 18,6 km/h (3 Bft) W-SW 240 0 min 0,000 mm 0,0 UV-I 84 W/m 7,0 C 2,7 C 25,7 km/h (4 Bft) 97,87 %
07.10.2017 09:14 9,3 C 11,7 C 86 % 1022,2 hPa 0,0 l/m 18,5 km/h (3 Bft) W-SW 244 0 min 0,000 mm 0,0 UV-I 89 W/m 7,1 C 2,9 C 27,4 km/h (4 Bft) 96,00 %
07.10.2017 09:16 9,3 C 11,7 C 85 % 1022,2 hPa 0,0 l/m 16,3 km/h (3 Bft) W-SW 254 0 min 0,000 mm 0,0 UV-I 86 W/m 6,9 C 3,7 C 32,2 km/h (5 Bft) 97,37 %
07.10.2017 09:18 9,3 C 11,7 C 85 % 1022,2 hPa 0,0 l/m 12,7 km/h (3 Bft) W-SW 250 0 min 0,000 mm 0,0 UV-I 95 W/m 6,9 C 5,4 C 16,1 km/h (3 Bft) 100,00 %
07.10.2017 09:20 9,3 C 11,7 C 85 % 1022,3 hPa 0,0 l/m 11,9 km/h (2 Bft) W-SW 242 0 min 0,000 mm 0,0 UV-I 90 W/m 6,9 C 5,8 C 19,3 km/h (3 Bft) 97,87 %
07.10.2017 09:22 9,4 C 11,7 C 85 % 1022,3 hPa 0,0 l/m 12,2 km/h (2 Bft) W-SW 253 0 min 0,000 mm 0,0 UV-I 82 W/m 7,0 C 5,7 C 20,9 km/h (4 Bft) 100,00 %
07.10.2017 09:24 9,4 C 11,7 C 85 % 1022,3 hPa 0,0 l/m 16,5 km/h (3 Bft) W-SW 251 0 min 0,000 mm 0,0 UV-I 100 W/m 7,0 C 3,8 C 25,7 km/h (4 Bft) 98,00 %
07.10.2017 09:26 9,4 C 11,7 C 85 % 1022,4 hPa 0,0 l/m 12,2 km/h (2 Bft) W-SW 245 0 min 0,000 mm 0,0 UV-I 99 W/m 7,0 C 5,7 C 24,1 km/h (4 Bft) 100,00 %
07.10.2017 09:28 9,4 C 11,7 C 85 % 1022,4 hPa 0,0 l/m 11,0 km/h (2 Bft) W 267 0 min 0,000 mm 0,0 UV-I 86 W/m 7,0 C 6,4 C 22,5 km/h (4 Bft) 98,00 %
07.10.2017 09:30 9,4 C 11,7 C 85 % 1022,4 hPa 0,0 l/m 16,1 km/h (3 Bft) W-SW 243 0 min 0,000 mm 0,0 UV-I 64 W/m 7,0 C 3,9 C 20,9 km/h (4 Bft) 96,00 %
07.10.2017 09:32 9,4 C 11,7 C 85 % 1022,4 hPa 0,0 l/m 9,5 km/h (2 Bft) SW 232 0 min 0,000 mm 0,0 UV-I 48 W/m 7,0 C 7,2 C 14,5 km/h (3 Bft) 100,00 %
07.10.2017 09:34 9,4 C 11,7 C 85 % 1022,4 hPa 0,0 l/m 11,4 km/h (2 Bft) W 269 0 min 0,000 mm 0,0 UV-I 46 W/m 7,0 C 6,1 C 17,7 km/h (3 Bft) 97,92 %
07.10.2017 09:36 9,4 C 11,7 C 85 % 1022,4 hPa 0,0 l/m 9,2 km/h (2 Bft) W 271 0 min 0,000 mm 0,0 UV-I 40 W/m 7,0 C 7,4 C 14,5 km/h (3 Bft) 95,74 %
07.10.2017 09:38 9,4 C 11,7 C 84 % 1022,5 hPa 0,0 l/m 16,5 km/h (3 Bft) W-SW 248 0 min 0,000 mm 0,0 UV-I 32 W/m 6,8 C 3,8 C 24,1 km/h (4 Bft) 100,00 %
07.10.2017 09:40 9,3 C 11,7 C 84 % 1022,4 hPa 0,0 l/m 11,4 km/h (2 Bft) W 269 0 min 0,000 mm 0,0 UV-I 28 W/m 6,7 C 6,0 C 16,1 km/h (3 Bft) 100,00 %
07.10.2017 09:42 9,3 C 11,7 C 84 % 1022,4 hPa 0,0 l/m 13,0 km/h (3 Bft) SW 222 0 min 0,000 mm 0,0 UV-I 25 W/m 6,7 C 5,2 C 22,5 km/h (4 Bft) 97,87 %
07.10.2017 09:44 9,3 C 11,7 C 84 % 1022,5 hPa 0,0 l/m 17,4 km/h (3 Bft) W-SW 238 0 min 0,000 mm 0,0 UV-I 26 W/m 6,7 C 3,3 C 24,1 km/h (4 Bft) 98,00 %
07.10.2017 09:46 9,3 C 11,7 C 84 % 1022,4 hPa 0,0 l/m 13,8 km/h (3 Bft) W-SW 240 0 min 0,000 mm 0,0 UV-I 35 W/m 6,7 C 4,8 C 22,5 km/h (4 Bft) 100,00 %
07.10.2017 09:48 9,3 C 11,7 C 84 % 1022,5 hPa 0,0 l/m 14,6 km/h (3 Bft) W-SW 244 0 min 0,000 mm 0,0 UV-I 34 W/m 6,7 C 4,5 C 22,5 km/h (4 Bft) 97,87 %
07.10.2017 09:50 9,3 C 11,7 C 84 % 1022,5 hPa 0,0 l/m 17,8 km/h (3 Bft) S-SW 213 0 min 0,000 mm 0,0 UV-I 37 W/m 6,7 C 3,2 C 27,4 km/h (4 Bft) 92,11 %
07.10.2017 09:52 9,3 C 11,7 C 84 % 1022,5 hPa 0,0 l/m 19,5 km/h (3 Bft) W-SW 250 0 min 0,000 mm 0,0 UV-I 51 W/m 6,7 C 2,6 C 33,8 km/h (5 Bft) 97,87 %
07.10.2017 09:54 9,3 C 11,7 C 83 % 1022,5 hPa 0,0 l/m 16,3 km/h (3 Bft) SW 233 0 min 0,000 mm 0,0 UV-I 66 W/m 6,6 C 3,7 C 25,7 km/h (4 Bft) 95,74 %
07.10.2017 09:56 9,3 C 11,7 C 83 % 1022,5 hPa 0,0 l/m 20,6 km/h (4 Bft) SW 234 0 min 0,000 mm 0,0 UV-I 67 W/m 6,6 C 2,2 C 35,4 km/h (5 Bft) 95,74 %
07.10.2017 09:58 9,3 C 11,7 C 83 % 1022,5 hPa 0,0 l/m 20,7 km/h (4 Bft) W-SW 252 0 min 0,000 mm 0,0 UV-I 58 W/m 6,6 C 2,2 C 29,0 km/h (5 Bft) 97,87 %
07.10.2017 10:00 9,3 C 11,7 C 83 % 1022,6 hPa 0,0 l/m 19,0 km/h (3 Bft) W 259 0 min 0,051 mm 0,0 UV-I 48 W/m 6,6 C 2,7 C 38,6 km/h (5 Bft) 96,00 %
07.10.2017 10:02 9,3 C 11,7 C 83 % 1022,6 hPa 0,0 l/m 21,6 km/h (4 Bft) W-SW 250 0 min 0,000 mm 0,0 UV-I 58 W/m 6,6 C 1,9 C 33,8 km/h (5 Bft) 97,87 %
07.10.2017 10:04 9,3 C 11,7 C 82 % 1022,6 hPa 0,0 l/m 15,6 km/h (3 Bft) W-SW 238 0 min 0,000 mm 0,0 UV-I 76 W/m 6,4 C 4,0 C 27,4 km/h (4 Bft) 95,74 %
07.10.2017 10:06 9,4 C 11,7 C 83 % 1022,6 hPa 0,0 l/m 12,0 km/h (2 Bft) W 262 0 min 0,000 mm 0,4 UV-I 89 W/m 6,7 C 5,8 C 20,9 km/h (4 Bft) 97,87 %
07.10.2017 10:08 9,4 C 11,7 C 83 % 1022,6 hPa 0,0 l/m 15,4 km/h (3 Bft) W-SW 254 0 min 0,000 mm 0,5 UV-I 96 W/m 6,7 C 4,2 C 20,9 km/h (4 Bft) 95,74 %
07.10.2017 10:10 9,4 C 11,7 C 83 % 1022,6 hPa 0,0 l/m 14,8 km/h (3 Bft) W 278 0 min 0,000 mm 0,2 UV-I 96 W/m 6,7 C 4,5 C 20,9 km/h (4 Bft) 97,87 %
07.10.2017 10:12 9,4 C 11,7 C 83 % 1022,6 hPa 0,0 l/m 19,3 km/h (3 Bft) W-SW 257 0 min 0,000 mm 0,0 UV-I 79 W/m 6,7 C 2,7 C 29,0 km/h (5 Bft) 97,87 %
07.10.2017 10:14 9,4 C 11,7 C 83 % 1022,6 hPa 0,0 l/m 14,9 km/h (3 Bft) W 265 0 min 0,000 mm 0,0 UV-I 81 W/m 6,7 C 4,5 C 20,9 km/h (4 Bft) 95,74 %
07.10.2017 10:16 9,4 C 11,7 C 83 % 1022,6 hPa 0,0 l/m 16,7 km/h (3 Bft) W-SW 246 0 min 0,000 mm 0,0 UV-I 53 W/m 6,7 C 3,7 C 25,7 km/h (4 Bft) 98,00 %
07.10.2017 10:18 9,4 C 11,7 C 83 % 1022,6 hPa 0,0 l/m 14,7 km/h (3 Bft) W 263 0 min 0,000 mm 0,0 UV-I 58 W/m 6,7 C 4,5 C 19,3 km/h (3 Bft) 97,44 %
07.10.2017 10:20 9,4 C 11,7 C 83 % 1022,6 hPa 0,0 l/m 15,5 km/h (3 Bft) W-SW 244 0 min 0,000 mm 0,0 UV-I 66 W/m 6,7 C 4,2 C 22,5 km/h (4 Bft) 97,87 %
07.10.2017 10:22 9,4 C 11,7 C 83 % 1022,6 hPa 0,0 l/m 12,1 km/h (2 Bft) W 267 0 min 0,000 mm 0,0 UV-I 80 W/m 6,7 C 5,8 C 17,7 km/h (3 Bft) 95,74 %
07.10.2017 10:24 9,4 C 11,7 C 83 % 1022,6 hPa 0,0 l/m 11,2 km/h (2 Bft) W-SW 248 0 min 0,000 mm 0,0 UV-I 103 W/m 6,7 C 6,2 C 17,7 km/h (3 Bft) 98,00 %
07.10.2017 10:26 9,4 C 11,7 C 83 % 1022,7 hPa 0,0 l/m 12,5 km/h (3 Bft) W-SW 248 0 min 0,000 mm 0,0 UV-I 105 W/m 6,7 C 5,6 C 17,7 km/h (3 Bft) 100,00 %
07.10.2017 10:28 9,5 C 11,7 C 83 % 1022,7 hPa 0,0 l/m 12,6 km/h (3 Bft) SW 219 0 min 0,000 mm 0,3 UV-I 118 W/m 6,8 C 5,6 C 20,9 km/h (4 Bft) 98,00 %
07.10.2017 10:30 9,6 C 11,7 C 82 % 1022,7 hPa 0,0 l/m 19,7 km/h (3 Bft) W-SW 257 0 min 0,000 mm 0,6 UV-I 123 W/m 6,7 C 2,9 C 32,2 km/h (5 Bft) 97,87 %
07.10.2017 10:32 9,6 C 11,7 C 82 % 1022,7 hPa 0,0 l/m 16,1 km/h (3 Bft) W 272 0 min 0,000 mm 0,7 UV-I 144 W/m 6,7 C 4,2 C 24,1 km/h (4 Bft) 97,87 %
07.10.2017 10:34 9,6 C 11,7 C 82 % 1022,7 hPa 0,0 l/m 16,2 km/h (3 Bft) W-SW 256 0 min 0,000 mm 0,6 UV-I 118 W/m 6,7 C 4,2 C 25,7 km/h (4 Bft) 98,00 %
07.10.2017 10:36 9,7 C 11,7 C 82 % 1022,7 hPa 0,0 l/m 18,2 km/h (3 Bft) SW 215 0 min 0,000 mm 0,7 UV-I 138 W/m 6,8 C 3,5 C 25,7 km/h (4 Bft) 97,87 %
07.10.2017 10:38 9,7 C 11,7 C 82 % 1022,7 hPa 0,0 l/m 16,1 km/h (3 Bft) W 274 0 min 0,000 mm 0,8 UV-I 192 W/m 6,8 C 4,3 C 32,2 km/h (5 Bft) 89,36 %
07.10.2017 10:40 9,8 C 11,7 C 82 % 1022,7 hPa 0,0 l/m 13,1 km/h (3 Bft) SW 216 0 min 0,000 mm 0,9 UV-I 194 W/m 6,9 C 5,7 C 20,9 km/h (4 Bft) 100,00 %
07.10.2017 10:42 9,8 C 11,7 C 82 % 1022,7 hPa 0,0 l/m 15,5 km/h (3 Bft) W-SW 246 0 min 0,000 mm 0,9 UV-I 210 W/m 6,9 C 4,7 C 20,9 km/h (4 Bft) 97,37 %
07.10.2017 10:44 9,8 C 11,7 C 82 % 1022,7 hPa 0,0 l/m 13,5 km/h (3 Bft) W-SW 252 0 min 0,000 mm 0,9 UV-I 204 W/m 6,9 C 5,6 C 20,9 km/h (4 Bft) 100,00 %
07.10.2017 10:46 9,9 C 11,7 C 82 % 1022,7 hPa 0,0 l/m 13,1 km/h (3 Bft) W 279 0 min 0,000 mm 0,8 UV-I 181 W/m 7,0 C 5,9 C 22,5 km/h (4 Bft) 100,00 %
07.10.2017 10:48 9,9 C 11,7 C 82 % 1022,6 hPa 0,0 l/m 15,9 km/h (3 Bft) W-SW 238 0 min 0,000 mm 0,8 UV-I 190 W/m 7,0 C 4,6 C 20,9 km/h (4 Bft) 100,00 %
07.10.2017 10:50 10,0 C 11,7 C 81 % 1022,7 hPa 0,0 l/m 15,5 km/h (3 Bft) SW 230 0 min 0,000 mm 0,8 UV-I 206 W/m 6,9 C 4,9 C 22,5 km/h (4 Bft) 97,87 %
07.10.2017 10:52 10,0 C 11,7 C 81 % 1022,6 hPa 0,0 l/m 14,8 km/h (3 Bft) S-SO 160 0 min 0,000 mm 0,8 UV-I 207 W/m 6,9 C 5,2 C 22,5 km/h (4 Bft) 100,00 %
07.10.2017 10:54 10,0 C 11,7 C 81 % 1022,6 hPa 0,0 l/m 17,0 km/h (3 Bft) W-SW 239 0 min 0,000 mm 0,8 UV-I 202 W/m 6,9 C 4,3 C 25,7 km/h (4 Bft) 100,00 %
07.10.2017 10:56 10,0 C 11,7 C 82 % 1022,6 hPa 0,0 l/m 20,7 km/h (4 Bft) W-SW 252 0 min 0,000 mm 0,8 UV-I 187 W/m 7,1 C 3,1 C 29,0 km/h (5 Bft) 95,74 %
07.10.2017 10:58 10,1 C 11,7 C 81 % 1022,5 hPa 0,0 l/m 16,8 km/h (3 Bft) W-NW 284 0 min 0,000 mm 0,8 UV-I 213 W/m 7,0 C 4,5 C 27,4 km/h (4 Bft) 100,00 %
07.10.2017 11:00 10,1 C 11,7 C 81 % 1022,4 hPa 0,0 l/m 18,1 km/h (3 Bft) W-SW 240 0 min 0,101 mm 0,7 UV-I 188 W/m 7,0 C 4,1 C 29,0 km/h (5 Bft) 100,00 %
07.10.2017 11:02 10,1 C 11,7 C 81 % 1022,4 hPa 0,0 l/m 15,7 km/h (3 Bft) W-SW 245 0 min 0,000 mm 0,7 UV-I 190 W/m 7,0 C 5,0 C 25,7 km/h (4 Bft) 100,00 %
07.10.2017 11:04 10,1 C 11,7 C 81 % 1022,4 hPa 0,0 l/m 16,5 km/h (3 Bft) W-SW 240 0 min 0,000 mm 0,7 UV-I 178 W/m 7,0 C 4,7 C 24,1 km/h (4 Bft) 97,87 %
07.10.2017 11:06 10,1 C 11,7 C 81 % 1022,4 hPa 0,0 l/m 19,4 km/h (3 Bft) W-SW 245 0 min 0,000 mm 0,8 UV-I 182 W/m 7,0 C 3,6 C 29,0 km/h (5 Bft) 100,00 %
07.10.2017 11:08 10,1 C 11,7 C 81 % 1022,3 hPa 0,0 l/m 17,3 km/h (3 Bft) W 260 0 min 0,000 mm 0,8 UV-I 187 W/m 7,0 C 4,4 C 25,7 km/h (4 Bft) 97,87 %
07.10.2017 11:10 10,1 C 11,7 C 81 % 1022,3 hPa 0,0 l/m 17,7 km/h (3 Bft) W-SW 238 0 min 0,000 mm 0,8 UV-I 186 W/m 7,0 C 4,2 C 29,0 km/h (5 Bft) 97,87 %
07.10.2017 11:12 10,2 C 11,7 C 81 % 1022,3 hPa 0,0 l/m 13,3 km/h (3 Bft) W-SW 249 0 min 0,000 mm 0,9 UV-I 195 W/m 7,1 C 6,1 C 17,7 km/h (3 Bft) 100,00 %
07.10.2017 11:14 10,2 C 11,7 C 81 % 1022,2 hPa 0,0 l/m 13,9 km/h (3 Bft) S-SW 210 0 min 0,000 mm 0,9 UV-I 197 W/m 7,1 C 5,8 C 22,5 km/h (4 Bft) 100,00 %
07.10.2017 11:16 10,2 C 11,7 C 80 % 1022,2 hPa 0,0 l/m 14,7 km/h (3 Bft) SW 223 0 min 0,000 mm 1,1 UV-I 238 W/m 6,9 C 5,5 C 22,5 km/h (4 Bft) 93,62 %
07.10.2017 11:18 10,2 C 11,7 C 80 % 1022,2 hPa 0,0 l/m 16,9 km/h (3 Bft) SW 234 0 min 0,000 mm 1,1 UV-I 246 W/m 6,9 C 4,6 C 27,4 km/h (4 Bft) 97,87 %
07.10.2017 11:20 10,3 C 11,7 C 80 % 1022,2 hPa 0,0 l/m 17,1 km/h (3 Bft) SW 235 0 min 0,000 mm 1,0 UV-I 225 W/m 7,0 C 4,7 C 24,1 km/h (4 Bft) 95,74 %
07.10.2017 11:22 10,4 C 11,7 C 81 % 1022,2 hPa 0,0 l/m 11,6 km/h (2 Bft) W 276 0 min 0,000 mm 0,9 UV-I 192 W/m 7,3 C 7,2 C 20,9 km/h (4 Bft) 98,00 %
07.10.2017 11:24 10,4 C 11,7 C 80 % 1022,1 hPa 0,0 l/m 17,4 km/h (3 Bft) W 264 0 min 0,000 mm 0,8 UV-I 188 W/m 7,1 C 4,7 C 24,1 km/h (4 Bft) 100,00 %
07.10.2017 11:26 10,4 C 11,7 C 80 % 1022,1 hPa 0,0 l/m 16,6 km/h (3 Bft) W-SW 252 0 min 0,000 mm 0,7 UV-I 175 W/m 7,1 C 5,0 C 24,1 km/h (4 Bft) 100,00 %
07.10.2017 11:28 10,4 C 11,7 C 80 % 1022,1 hPa 0,0 l/m 11,5 km/h (2 Bft) W-SW 249 0 min 0,000 mm 0,7 UV-I 186 W/m 7,1 C 7,2 C 16,1 km/h (3 Bft) 100,00 %
07.10.2017 11:30 10,5 C 11,7 C 79 % 1022,1 hPa 0,0 l/m 20,1 km/h (4 Bft) W-SW 239 0 min 0,000 mm 0,6 UV-I 158 W/m 7,0 C 3,9 C 32,2 km/h (5 Bft) 97,87 %
07.10.2017 11:32 10,4 C 11,7 C 79 % 1022,1 hPa 0,0 l/m 20,2 km/h (4 Bft) W-SW 250 0 min 0,000 mm 0,5 UV-I 138 W/m 6,9 C 3,7 C 32,2 km/h (5 Bft) 97,87 %
07.10.2017 11:34 10,4 C 11,7 C 79 % 1022,1 hPa 0,0 l/m 16,2 km/h (3 Bft) W 263 0 min 0,000 mm 0,6 UV-I 135 W/m 6,9 C 5,1 C 30,6 km/h (5 Bft) 100,00 %
07.10.2017 11:36 10,4 C 11,7 C 79 % 1022,1 hPa 0,0 l/m 14,1 km/h (3 Bft) W 260 0 min 0,000 mm 0,7 UV-I 148 W/m 6,9 C 6,0 C 29,0 km/h (5 Bft) 100,00 %
07.10.2017 11:38 10,4 C 11,7 C 79 % 1022,1 hPa 0,0 l/m 14,8 km/h (3 Bft) W 277 0 min 0,000 mm 1,1 UV-I 205 W/m 6,9 C 5,7 C 22,5 km/h (4 Bft) 100,00 %
07.10.2017 11:40 10,5 C 11,7 C 78 % 1022,2 hPa 0,0 l/m 19,3 km/h (3 Bft) W 261 0 min 0,000 mm 1,2 UV-I 224 W/m 6,8 C 4,2 C 27,4 km/h (4 Bft) 100,00 %
07.10.2017 11:42 10,6 C 11,7 C 79 % 1022,1 hPa 0,0 l/m 12,5 km/h (3 Bft) W 259 0 min 0,000 mm 0,7 UV-I 151 W/m 7,1 C 7,0 C 19,3 km/h (3 Bft) 98,00 %
07.10.2017 11:44 10,6 C 11,7 C 79 % 1022,2 hPa 0,0 l/m 12,4 km/h (3 Bft) W-SW 251 0 min 0,000 mm 0,3 UV-I 99 W/m 7,1 C 7,0 C 19,3 km/h (3 Bft) 97,87 %
07.10.2017 11:46 10,5 C 11,7 C 79 % 1022,1 hPa 0,0 l/m 13,3 km/h (3 Bft) W-SW 250 0 min 0,000 mm 0,6 UV-I 116 W/m 7,0 C 6,5 C 19,3 km/h (3 Bft) 98,00 %
07.10.2017 11:48 10,5 C 11,7 C 79 % 1022,2 hPa 0,0 l/m 15,6 km/h (3 Bft) W 265 0 min 0,000 mm 0,6 UV-I 123 W/m 7,0 C 5,5 C 24,1 km/h (4 Bft) 95,74 %
07.10.2017 11:50 10,4 C 11,7 C 78 % 1022,1 hPa 0,0 l/m 16,9 km/h (3 Bft) W 263 0 min 0,000 mm 0,8 UV-I 137 W/m 6,7 C 4,9 C 24,1 km/h (4 Bft) 95,74 %
07.10.2017 11:52 10,4 C 11,7 C 79 % 1022,1 hPa 0,0 l/m 15,3 km/h (3 Bft) W-SW 241 0 min 0,000 mm 1,0 UV-I 177 W/m 6,9 C 5,5 C 25,7 km/h (4 Bft) 95,74 %
07.10.2017 11:54 10,4 C 11,7 C 79 % 1022,1 hPa 0,0 l/m 14,4 km/h (3 Bft) W-SW 239 0 min 0,000 mm 0,7 UV-I 133 W/m 6,9 C 5,9 C 27,4 km/h (4 Bft) 97,87 %
07.10.2017 11:56 10,4 C 11,7 C 79 % 1022,1 hPa 0,0 l/m 13,7 km/h (3 Bft) W 260 0 min 0,000 mm 0,2 UV-I 86 W/m 6,9 C 6,2 C 22,5 km/h (4 Bft) 91,49 %
07.10.2017 11:58 10,4 C 11,7 C 79 % 1022,1 hPa 0,0 l/m 11,0 km/h (2 Bft) W-SW 257 0 min 0,000 mm 0,0 UV-I 67 W/m 6,9 C 7,5 C 22,5 km/h (4 Bft) 96,00 %
07.10.2017 12:00 10,4 C 11,7 C 79 % 1022,1 hPa 0,0 l/m 14,5 km/h (3 Bft) W 274 0 min 0,102 mm 0,5 UV-I 75 W/m 6,9 C 5,8 C 19,3 km/h (3 Bft) 98,00 %
07.10.2017 12:02 10,4 C 11,7 C 80 % 1022,2 hPa 0,0 l/m 13,1 km/h (3 Bft) SW 214 0 min 0,000 mm 0,9 UV-I 104 W/m 7,1 C 6,4 C 20,9 km/h (4 Bft) 97,87 %
07.10.2017 12:04 10,3 C 11,7 C 79 % 1022,1 hPa 0,0 l/m 14,9 km/h (3 Bft) W-SW 243 0 min 0,000 mm 1,2 UV-I 137 W/m 6,8 C 5,5 C 24,1 km/h (4 Bft) 97,14 %
07.10.2017 12:06 10,4 C 11,7 C 80 % 1022,1 hPa 0,0 l/m 10,3 km/h (2 Bft) W-SW 256 0 min 0,000 mm 1,4 UV-I 181 W/m 7,1 C 7,9 C 16,1 km/h (3 Bft) 94,00 %
07.10.2017 12:08 10,4 C 11,7 C 80 % 1022,1 hPa 0,0 l/m 11,6 km/h (2 Bft) W-SW 253 0 min 0,000 mm 1,7 UV-I 235 W/m 7,1 C 7,2 C 19,3 km/h (3 Bft) 93,62 %
07.10.2017 12:10 10,7 C 11,7 C 80 % 1022,1 hPa 0,0 l/m 12,6 km/h (3 Bft) W-SW 254 0 min 0,000 mm 2,4 UV-I 243 W/m 7,4 C 7,0 C 22,5 km/h (4 Bft) 94,44 %
07.10.2017 12:12 10,9 C 11,7 C 79 % 1022,1 hPa 0,0 l/m 13,6 km/h (3 Bft) W 276 0 min 0,000 mm 2,2 UV-I 243 W/m 7,4 C 6,8 C 24,1 km/h (4 Bft) 95,08 %
07.10.2017 12:14 11,1 C 11,7 C 77 % 1022,1 hPa 0,0 l/m 13,1 km/h (3 Bft) SW 229 0 min 0,000 mm 2,3 UV-I 243 W/m 7,2 C 7,3 C 20,9 km/h (4 Bft) 95,74 %
07.10.2017 12:16 11,2 C 11,7 C 77 % 1022,0 hPa 0,0 l/m 12,4 km/h (3 Bft) W-NW 302 0 min 0,000 mm 2,2 UV-I 243 W/m 7,3 C 7,7 C 24,1 km/h (4 Bft) 91,49 %
07.10.2017 12:18 11,3 C 11,7 C 75 % 1022,1 hPa 0,0 l/m 12,6 km/h (3 Bft) SW 233 0 min 0,000 mm 1,2 UV-I 222 W/m 7,0 C 7,7 C 19,3 km/h (3 Bft) 97,87 %
07.10.2017 12:20 11,2 C 11,7 C 75 % 1022,1 hPa 0,0 l/m 15,0 km/h (3 Bft) W 261 0 min 0,000 mm 1,1 UV-I 176 W/m 6,9 C 6,6 C 29,0 km/h (5 Bft) 97,92 %
07.10.2017 12:22 11,1 C 11,7 C 75 % 1022,1 hPa 0,0 l/m 11,2 km/h (2 Bft) W-SW 254 0 min 0,000 mm 1,2 UV-I 181 W/m 6,8 C 8,2 C 17,7 km/h (3 Bft) 95,74 %
07.10.2017 12:24 11,1 C 11,7 C 75 % 1022,0 hPa 0,0 l/m 14,2 km/h (3 Bft) NW 321 0 min 0,000 mm 1,7 UV-I 240 W/m 6,8 C 6,8 C 25,7 km/h (4 Bft) 97,87 %
07.10.2017 12:26 11,1 C 11,7 C 76 % 1022,0 hPa 0,0 l/m 12,5 km/h (3 Bft) N-NW 338 0 min 0,000 mm 1,8 UV-I 272 W/m 7,0 C 7,5 C 24,1 km/h (4 Bft) 95,74 %
07.10.2017 12:28 11,1 C 11,7 C 76 % 1021,9 hPa 0,0 l/m 11,7 km/h (2 Bft) W 264 0 min 0,000 mm 2,0 UV-I 235 W/m 7,0 C 7,9 C 19,3 km/h (3 Bft) 97,87 %
07.10.2017 12:30 11,1 C 11,7 C 75 % 1021,9 hPa 0,0 l/m 11,4 km/h (2 Bft) W 276 0 min 0,000 mm 1,8 UV-I 200 W/m 6,8 C 8,1 C 20,9 km/h (4 Bft) 95,83 %
07.10.2017 12:32 11,1 C 11,7 C 74 % 1021,9 hPa 0,0 l/m 13,9 km/h (3 Bft) W-SW 253 0 min 0,000 mm 1,9 UV-I 185 W/m 6,6 C 6,9 C 29,0 km/h (5 Bft) 97,92 %
07.10.2017 12:34 11,1 C 11,7 C 74 % 1022,0 hPa 0,0 l/m 15,7 km/h (3 Bft) W-SW 242 0 min 0,000 mm 1,7 UV-I 197 W/m 6,6 C 6,2 C 24,1 km/h (4 Bft) 95,74 %
07.10.2017 12:36 11,0 C 11,7 C 74 % 1021,9 hPa 0,0 l/m 15,0 km/h (3 Bft) W 269 0 min 0,000 mm 1,8 UV-I 233 W/m 6,5 C 6,3 C 29,0 km/h (5 Bft) 95,74 %
07.10.2017 12:38 11,0 C 11,7 C 75 % 1021,9 hPa 0,0 l/m 15,5 km/h (3 Bft) SW 225 0 min 0,000 mm 1,7 UV-I 248 W/m 6,7 C 6,1 C 22,5 km/h (4 Bft) 97,37 %
07.10.2017 12:40 11,0 C 11,7 C 76 % 1021,9 hPa 0,0 l/m 12,9 km/h (3 Bft) W 266 0 min 0,000 mm 1,5 UV-I 195 W/m 6,9 C 7,2 C 19,3 km/h (3 Bft) 92,59 %
07.10.2017 12:42 10,9 C 11,7 C 75 % 1021,9 hPa 0,0 l/m 13,2 km/h (3 Bft) W 268 0 min 0,000 mm 1,4 UV-I 178 W/m 6,6 C 7,0 C 24,1 km/h (4 Bft) 97,87 %
07.10.2017 12:44 10,9 C 11,7 C 75 % 1021,8 hPa 0,0 l/m 13,9 km/h (3 Bft) W 279 0 min 0,000 mm 1,2 UV-I 163 W/m 6,6 C 6,7 C 19,3 km/h (3 Bft) 95,74 %
07.10.2017 12:46 10,9 C 11,7 C 75 % 1021,8 hPa 0,0 l/m 14,1 km/h (3 Bft) SW 230 0 min 0,000 mm 1,0 UV-I 147 W/m 6,6 C 6,6 C 24,1 km/h (4 Bft) 97,37 %
07.10.2017 12:48 10,9 C 11,7 C 76 % 1021,8 hPa 0,0 l/m 12,6 km/h (3 Bft) W 259 0 min 0,000 mm 0,9 UV-I 140 W/m 6,8 C 7,3 C 22,5 km/h (4 Bft) 97,87 %
07.10.2017 12:50 10,9 C 11,7 C 76 % 1021,8 hPa 0,0 l/m 10,6 km/h (2 Bft) W 264 0 min 0,000 mm 1,0 UV-I 172 W/m 6,8 C 8,3 C 19,3 km/h (3 Bft) 98,00 %
07.10.2017 12:52 10,9 C 11,7 C 76 % 1021,8 hPa 0,0 l/m 15,3 km/h (3 Bft) SW 233 0 min 0,000 mm 1,2 UV-I 200 W/m 6,8 C 6,1 C 24,1 km/h (4 Bft) 98,11 %
07.10.2017 12:54 10,9 C 11,7 C 76 % 1021,8 hPa 0,0 l/m 16,9 km/h (3 Bft) W-SW 250 0 min 0,000 mm 1,0 UV-I 182 W/m 6,8 C 5,5 C 24,1 km/h (4 Bft) 97,87 %
07.10.2017 12:56 10,9 C 11,7 C 76 % 1021,8 hPa 0,0 l/m 13,3 km/h (3 Bft) NW 305 0 min 0,000 mm 1,0 UV-I 186 W/m 6,8 C 6,9 C 22,5 km/h (4 Bft) 97,22 %
07.10.2017 12:58 11,0 C 11,7 C 76 % 1021,8 hPa 0,0 l/m 10,5 km/h (2 Bft) W-SW 244 0 min 0,000 mm 1,0 UV-I 193 W/m 6,9 C 8,4 C 17,7 km/h (3 Bft) 95,74 %
07.10.2017 13:00 11,1 C 11,7 C 76 % 1021,7 hPa 0,0 l/m 12,1 km/h (2 Bft) W-SW 243 0 min 0,000 mm 0,9 UV-I 185 W/m 7,0 C 7,7 C 17,7 km/h (3 Bft) 96,00 %
07.10.2017 13:03 11,1 C 11,7 C 76 % 1021,7 hPa 0,0 l/m 12,6 km/h (3 Bft) SW 225 0 min 0,152 mm 1,1 UV-I 208 W/m 7,0 C 7,5 C 20,9 km/h (4 Bft) 97,26 %
07.10.2017 13:04 11,1 C 11,7 C 76 % 1021,7 hPa 0,0 l/m 16,9 km/h (3 Bft) SW 236 0 min 0,000 mm 1,3 UV-I 256 W/m 7,0 C 5,7 C 27,4 km/h (4 Bft) 95,83 %
07.10.2017 13:06 11,2 C 11,7 C 75 % 1021,7 hPa 0,0 l/m 19,3 km/h (3 Bft) W-SW 258 0 min 0,000 mm 1,4 UV-I 277 W/m 6,9 C 5,1 C 33,8 km/h (5 Bft) 95,74 %
07.10.2017 13:08 11,3 C 11,7 C 74 % 1021,6 hPa 0,0 l/m 18,5 km/h (3 Bft) W-SW 257 0 min 0,000 mm 1,5 UV-I 318 W/m 6,8 C 5,4 C 32,2 km/h (5 Bft) 95,74 %
07.10.2017 13:10 11,5 C 11,7 C 73 % 1021,6 hPa 0,0 l/m 18,8 km/h (3 Bft) W 259 2 min 0,000 mm 1,6 UV-I 348 W/m 6,8 C 5,6 C 27,4 km/h (4 Bft) 95,74 %
07.10.2017 13:12 11,7 C 11,7 C 72 % 1021,6 hPa 0,0 l/m 15,8 km/h (3 Bft) W-SW 244 0 min 0,000 mm 1,2 UV-I 265 W/m 6,8 C 6,9 C 29,0 km/h (5 Bft) 97,87 %
07.10.2017 13:14 11,7 C 11,7 C 71 % 1021,5 hPa 0,0 l/m 16,8 km/h (3 Bft) W-SW 251 0 min 0,000 mm 0,8 UV-I 163 W/m 6,6 C 6,5 C 24,1 km/h (4 Bft) 97,87 %
07.10.2017 13:16 11,6 C 11,7 C 72 % 1021,6 hPa 0,0 l/m 17,3 km/h (3 Bft) W-SW 254 0 min 0,000 mm 0,5 UV-I 119 W/m 6,7 C 6,2 C 25,7 km/h (4 Bft) 97,87 %
07.10.2017 13:18 11,5 C 11,7 C 74 % 1021,5 hPa 0,0 l/m 16,8 km/h (3 Bft) SW 226 0 min 0,000 mm 0,0 UV-I 84 W/m 7,0 C 6,3 C 22,5 km/h (4 Bft) 95,74 %
07.10.2017 13:20 11,4 C 11,7 C 74 % 1021,5 hPa 0,0 l/m 14,1 km/h (3 Bft) W 272 0 min 0,000 mm 0,0 UV-I 77 W/m 6,9 C 7,2 C 22,5 km/h (4 Bft) 97,87 %
07.10.2017 13:22 11,3 C 11,7 C 75 % 1021,6 hPa 0,0 l/m 14,1 km/h (3 Bft) S-SW 205 0 min 0,000 mm 0,0 UV-I 76 W/m 7,0 C 7,1 C 20,9 km/h (4 Bft) 93,62 %
07.10.2017 13:24 11,2 C 11,7 C 77 % 1021,6 hPa 0,0 l/m 16,5 km/h (3 Bft) W 259 0 min 0,000 mm 0,3 UV-I 97 W/m 7,3 C 6,0 C 22,5 km/h (4 Bft) 97,37 %
07.10.2017 13:26 11,1 C 11,7 C 77 % 1021,6 hPa 0,0 l/m 19,2 km/h (3 Bft) W-SW 241 0 min 0,000 mm 0,6 UV-I 128 W/m 7,2 C 5,0 C 30,6 km/h (5 Bft) 95,74 %
07.10.2017 13:28 11,0 C 11,7 C 76 % 1021,6 hPa 0,0 l/m 14,9 km/h (3 Bft) W-SW 242 0 min 0,000 mm 0,8 UV-I 178 W/m 6,9 C 6,4 C 22,5 km/h (4 Bft) 100,00 %
07.10.2017 13:30 10,9 C 11,7 C 78 % 1021,5 hPa 0,0 l/m 9,5 km/h (2 Bft) S-SW 209 0 min 0,000 mm 1,2 UV-I 238 W/m 7,2 C 8,9 C 14,5 km/h (3 Bft) 97,87 %
07.10.2017 13:32 10,9 C 11,7 C 77 % 1021,5 hPa 0,0 l/m 15,5 km/h (3 Bft) W-SW 242 0 min 0,000 mm 1,4 UV-I 278 W/m 7,0 C 6,0 C 24,1 km/h (4 Bft) 100,00 %
07.10.2017 13:34 11,0 C 11,7 C 78 % 1021,5 hPa 0,0 l/m 11,6 km/h (2 Bft) W-SW 250 0 min 0,000 mm 1,5 UV-I 290 W/m 7,3 C 7,9 C 16,1 km/h (3 Bft) 100,00 %
07.10.2017 13:36 11,1 C 11,7 C 79 % 1021,5 hPa 0,0 l/m 12,0 km/h (2 Bft) W-SW 242 0 min 0,000 mm 1,4 UV-I 261 W/m 7,6 C 7,8 C 16,1 km/h (3 Bft) 97,92 %
07.10.2017 13:38 11,2 C 11,7 C 79 % 1021,4 hPa 0,0 l/m 15,7 km/h (3 Bft) W 265 0 min 0,000 mm 1,4 UV-I 225 W/m 7,7 C 6,3 C 22,5 km/h (4 Bft) 98,00 %
07.10.2017 13:40 11,2 C 11,7 C 79 % 1021,4 hPa 0,0 l/m 9,9 km/h (2 Bft) SW 235 0 min 0,000 mm 1,1 UV-I 179 W/m 7,7 C 9,0 C 17,7 km/h (3 Bft) 95,74 %
07.10.2017 13:42 11,2 C 11,7 C 78 % 1021,4 hPa 0,0 l/m 15,5 km/h (3 Bft) SW 230 0 min 0,000 mm 0,9 UV-I 150 W/m 7,5 C 6,4 C 22,5 km/h (4 Bft) 98,00 %
07.10.2017 13:44 11,1 C 11,7 C 78 % 1021,4 hPa 0,0 l/m 18,6 km/h (3 Bft) S-SW 197 0 min 0,000 mm 0,7 UV-I 132 W/m 7,4 C 5,2 C 29,0 km/h (5 Bft) 97,87 %
07.10.2017 13:46 11,1 C 11,7 C 79 % 1021,4 hPa 0,0 l/m 16,4 km/h (3 Bft) W 272 0 min 0,000 mm 0,7 UV-I 133 W/m 7,6 C 5,9 C 27,4 km/h (4 Bft) 97,87 %
07.10.2017 13:48 10,9 C 11,7 C 79 % 1021,4 hPa 0,0 l/m 16,1 km/h (3 Bft) S-SW 202 0 min 0,000 mm 0,5 UV-I 102 W/m 7,4 C 5,8 C 25,7 km/h (4 Bft) 93,62 %
07.10.2017 13:50 10,7 C 11,7 C 78 % 1021,4 hPa 0,0 l/m 13,6 km/h (3 Bft) W 265 0 min 0,000 mm 0,6 UV-I 125 W/m 7,0 C 6,6 C 19,3 km/h (3 Bft) 97,37 %
07.10.2017 13:52 10,6 C 11,7 C 79 % 1021,3 hPa 0,0 l/m 10,8 km/h (2 Bft) SW 233 0 min 0,000 mm 0,9 UV-I 173 W/m 7,1 C 7,8 C 19,3 km/h (3 Bft) 95,74 %
07.10.2017 13:54 10,4 C 11,7 C 80 % 1021,3 hPa 0,0 l/m 12,9 km/h (3 Bft) W-SW 240 0 min 0,000 mm 1,0 UV-I 191 W/m 7,1 C 6,5 C 20,9 km/h (4 Bft) 93,62 %
07.10.2017 13:56 10,4 C 11,7 C 79 % 1021,3 hPa 0,0 l/m 10,8 km/h (2 Bft) W-SW 241 0 min 0,000 mm 1,0 UV-I 187 W/m 6,9 C 7,6 C 20,9 km/h (4 Bft) 94,34 %
07.10.2017 13:58 10,5 C 11,7 C 80 % 1021,3 hPa 0,0 l/m 13,0 km/h (3 Bft) W-SW 253 0 min 0,000 mm 1,1 UV-I 203 W/m 7,2 C 6,6 C 16,1 km/h (3 Bft) 97,87 %
07.10.2017 14:00 10,6 C 11,7 C 81 % 1021,3 hPa 0,0 l/m 11,3 km/h (2 Bft) SW 232 0 min 0,000 mm 1,1 UV-I 210 W/m 7,5 C 7,6 C 16,1 km/h (3 Bft) 95,74 %
07.10.2017 14:02 10,6 C 11,7 C 81 % 1021,2 hPa 0,0 l/m 16,3 km/h (3 Bft) W-SW 246 0 min 0,127 mm 1,1 UV-I 207 W/m 7,5 C 5,3 C 22,5 km/h (4 Bft) 97,14 %
07.10.2017 14:04 10,7 C 11,7 C 81 % 1021,2 hPa 0,0 l/m 13,3 km/h (3 Bft) W-SW 247 0 min 0,000 mm 0,9 UV-I 173 W/m 7,6 C 6,7 C 19,3 km/h (3 Bft) 98,00 %
07.10.2017 14:06 10,7 C 11,7 C 81 % 1021,1 hPa 0,0 l/m 13,6 km/h (3 Bft) W-SW 252 0 min 0,000 mm 0,9 UV-I 188 W/m 7,6 C 6,6 C 22,5 km/h (4 Bft) 97,87 %
07.10.2017 14:08 10,8 C 11,7 C 80 % 1021,1 hPa 0,0 l/m 11,7 km/h (2 Bft) W-SW 252 0 min 0,000 mm 1,2 UV-I 275 W/m 7,5 C 7,6 C 17,7 km/h (3 Bft) 97,87 %
07.10.2017 14:10 10,8 C 11,7 C 80 % 1021,0 hPa 0,0 l/m 10,6 km/h (2 Bft) W-SW 251 0 min 0,000 mm 0,9 UV-I 229 W/m 7,5 C 8,2 C 16,1 km/h (3 Bft) 95,74 %
07.10.2017 14:12 10,9 C 11,7 C 80 % 1021,0 hPa 0,0 l/m 12,8 km/h (3 Bft) W 267 0 min 0,000 mm 0,8 UV-I 193 W/m 7,6 C 7,2 C 16,1 km/h (3 Bft) 100,00 %
07.10.2017 14:14 10,9 C 11,7 C 80 % 1021,0 hPa 0,0 l/m 12,5 km/h (3 Bft) W-SW 242 0 min 0,000 mm 0,6 UV-I 140 W/m 7,6 C 7,3 C 17,7 km/h (3 Bft) 95,83 %
07.10.2017 14:16 11,0 C 11,7 C 80 % 1021,0 hPa 0,0 l/m 7,8 km/h (2 Bft) W 261 0 min 0,000 mm 0,6 UV-I 132 W/m 7,7 C 10,0 C 14,5 km/h (3 Bft) 97,87 %
07.10.2017 14:18 11,0 C 11,7 C 79 % 1021,0 hPa 0,0 l/m 14,5 km/h (3 Bft) W 276 0 min 0,000 mm 0,6 UV-I 137 W/m 7,5 C 6,5 C 24,1 km/h (4 Bft) 100,00 %
07.10.2017 14:20 11,0 C 11,7 C 78 % 1020,9 hPa 0,0 l/m 17,1 km/h (3 Bft) W-NW 284 0 min 0,000 mm 0,6 UV-I 133 W/m 7,3 C 5,5 C 25,7 km/h (4 Bft) 100,00 %
07.10.2017 14:22 11,0 C 11,7 C 77 % 1020,9 hPa 0,0 l/m 15,9 km/h (3 Bft) S-SW 208 0 min 0,000 mm 0,6 UV-I 133 W/m 7,1 C 6,0 C 22,5 km/h (4 Bft) 100,00 %
07.10.2017 14:24 11,1 C 11,7 C 78 % 1020,8 hPa 0,0 l/m 14,3 km/h (3 Bft) W-SW 255 0 min 0,000 mm 0,5 UV-I 126 W/m 7,4 C 6,8 C 24,1 km/h (4 Bft) 100,00 %
07.10.2017 14:26 11,1 C 11,7 C 78 % 1020,8 hPa 0,0 l/m 10,4 km/h (2 Bft) W-SW 243 0 min 0,000 mm 0,6 UV-I 141 W/m 7,4 C 8,6 C 19,3 km/h (3 Bft) 100,00 %
07.10.2017 14:28 11,1 C 11,7 C 78 % 1020,8 hPa 0,0 l/m 15,8 km/h (3 Bft) SW 231 0 min 0,000 mm 0,7 UV-I 155 W/m 7,4 C 6,2 C 24,1 km/h (4 Bft) 100,00 %
07.10.2017 14:30 11,1 C 11,7 C 77 % 1020,8 hPa 0,0 l/m 17,5 km/h (3 Bft) SW 236 0 min 0,000 mm 0,6 UV-I 131 W/m 7,2 C 5,5 C 25,7 km/h (4 Bft) 97,87 %
07.10.2017 14:32 11,1 C 11,7 C 77 % 1020,8 hPa 0,0 l/m 15,7 km/h (3 Bft) W-SW 250 0 min 0,000 mm 0,5 UV-I 113 W/m 7,2 C 6,2 C 22,5 km/h (4 Bft) 97,87 %
07.10.2017 14:34 11,0 C 11,7 C 79 % 1020,8 hPa 0,0 l/m 16,2 km/h (3 Bft) W-SW 238 0 min 0,000 mm 0,5 UV-I 114 W/m 7,5 C 5,9 C 27,4 km/h (4 Bft) 100,00 %
07.10.2017 14:36 10,9 C 11,7 C 78 % 1020,7 hPa 0,0 l/m 14,5 km/h (3 Bft) SW 215 0 min 0,000 mm 0,5 UV-I 117 W/m 7,2 C 6,4 C 22,5 km/h (4 Bft) 100,00 %
07.10.2017 14:38 10,9 C 11,7 C 78 % 1020,8 hPa 0,0 l/m 18,6 km/h (3 Bft) W-SW 253 0 min 0,000 mm 0,6 UV-I 128 W/m 7,2 C 4,9 C 25,7 km/h (4 Bft) 97,87 %
07.10.2017 14:40 10,9 C 11,7 C 76 % 1020,8 hPa 0,0 l/m 19,4 km/h (3 Bft) W-SW 257 0 min 0,000 mm 0,7 UV-I 164 W/m 6,8 C 4,6 C 25,7 km/h (4 Bft) 97,87 %
07.10.2017 14:42 11,0 C 11,7 C 76 % 1020,7 hPa 0,0 l/m 14,7 km/h (3 Bft) W-SW 247 0 min 0,000 mm 0,9 UV-I 199 W/m 6,9 C 6,5 C 24,1 km/h (4 Bft) 100,00 %
07.10.2017 14:44 11,1 C 11,7 C 76 % 1020,7 hPa 0,0 l/m 16,9 km/h (3 Bft) SW 223 0 min 0,000 mm 0,9 UV-I 196 W/m 7,0 C 5,7 C 22,5 km/h (4 Bft) 100,00 %
07.10.2017 14:46 11,2 C 11,7 C 76 % 1020,7 hPa 0,0 l/m 15,3 km/h (3 Bft) S-SW 211 0 min 0,000 mm 0,9 UV-I 197 W/m 7,1 C 6,5 C 22,5 km/h (4 Bft) 100,00 %
07.10.2017 14:48 11,2 C 11,7 C 76 % 1020,7 hPa 0,0 l/m 20,4 km/h (4 Bft) SW 234 0 min 0,000 mm 0,9 UV-I 207 W/m 7,1 C 4,7 C 27,4 km/h (4 Bft) 97,14 %
07.10.2017 14:50 11,2 C 11,7 C 76 % 1020,7 hPa 0,0 l/m 17,5 km/h (3 Bft) W-SW 254 0 min 0,000 mm 1,0 UV-I 241 W/m 7,1 C 5,7 C 30,6 km/h (5 Bft) 100,00 %
07.10.2017 14:52 11,3 C 11,7 C 76 % 1020,7 hPa 0,0 l/m 14,7 km/h (3 Bft) W-SW 249 0 min 0,000 mm 1,0 UV-I 246 W/m 7,2 C 6,8 C 29,0 km/h (5 Bft) 98,36 %
07.10.2017 14:54 11,3 C 11,7 C 75 % 1020,7 hPa 0,0 l/m 21,4 km/h (4 Bft) W-SW 242 0 min 0,000 mm 1,0 UV-I 226 W/m 7,0 C 4,6 C 32,2 km/h (5 Bft) 100,00 %
07.10.2017 14:56 11,4 C 11,7 C 75 % 1020,6 hPa 0,0 l/m 16,3 km/h (3 Bft) W-SW 253 0 min 0,000 mm 0,9 UV-I 213 W/m 7,1 C 6,3 C 24,1 km/h (4 Bft) 100,00 %
07.10.2017 14:58 11,4 C 11,7 C 75 % 1020,7 hPa 0,0 l/m 14,9 km/h (3 Bft) W-SW 249 0 min 0,000 mm 0,9 UV-I 203 W/m 7,1 C 6,9 C 24,1 km/h (4 Bft) 100,00 %
07.10.2017 15:00 11,4 C 11,7 C 75 % 1020,7 hPa 0,0 l/m 16,7 km/h (3 Bft) W-SW 245 0 min 0,127 mm 0,8 UV-I 179 W/m 7,1 C 6,2 C 24,1 km/h (4 Bft) 100,00 %
07.10.2017 15:02 11,4 C 11,7 C 75 % 1020,6 hPa 0,0 l/m 17,6 km/h (3 Bft) W-SW 249 0 min 0,000 mm 0,7 UV-I 157 W/m 7,1 C 5,9 C 30,6 km/h (5 Bft) 100,00 %
07.10.2017 15:04 11,4 C 11,7 C 75 % 1020,7 hPa 0,0 l/m 16,4 km/h (3 Bft) W-SW 250 0 min 0,000 mm 0,6 UV-I 148 W/m 7,1 C 6,3 C 29,0 km/h (5 Bft) 98,00 %
07.10.2017 15:06 11,3 C 11,7 C 75 % 1020,6 hPa 0,0 l/m 17,9 km/h (3 Bft) SW 225 0 min 0,000 mm 0,6 UV-I 135 W/m 7,0 C 5,6 C 25,7 km/h (4 Bft) 97,37 %
07.10.2017 15:08 11,3 C 11,7 C 75 % 1020,7 hPa 0,0 l/m 17,2 km/h (3 Bft) SW 230 0 min 0,000 mm 0,5 UV-I 126 W/m 7,0 C 5,9 C 30,6 km/h (5 Bft) 97,87 %
07.10.2017 15:10 11,3 C 11,7 C 75 % 1020,7 hPa 0,0 l/m 14,3 km/h (3 Bft) SW 233 0 min 0,000 mm 0,5 UV-I 126 W/m 7,0 C 7,0 C 20,9 km/h (4 Bft) 97,87 %
07.10.2017 15:12 11,2 C 11,7 C 76 % 1020,6 hPa 0,0 l/m 15,3 km/h (3 Bft) SW 229 0 min 0,000 mm 0,5 UV-I 127 W/m 7,1 C 6,5 C 22,5 km/h (4 Bft) 97,87 %
07.10.2017 15:14 11,2 C 11,7 C 76 % 1020,6 hPa 0,0 l/m 15,3 km/h (3 Bft) SW 228 0 min 0,000 mm 0,5 UV-I 136 W/m 7,1 C 6,5 C 24,1 km/h (4 Bft) 100,00 %
07.10.2017 15:16 11,2 C 11,7 C 76 % 1020,6 hPa 0,0 l/m 16,8 km/h (3 Bft) W-SW 252 0 min 0,000 mm 0,6 UV-I 147 W/m 7,1 C 5,9 C 24,1 km/h (4 Bft) 100,00 %
07.10.2017 15:18 11,2 C 11,7 C 76 % 1020,6 hPa 0,0 l/m 15,5 km/h (3 Bft) W-SW 238 0 min 0,000 mm 0,6 UV-I 160 W/m 7,1 C 6,4 C 19,3 km/h (3 Bft) 97,87 %
07.10.2017 15:20 11,3 C 11,7 C 76 % 1020,6 hPa 0,0 l/m 13,3 km/h (3 Bft) W-SW 249 0 min 0,000 mm 0,7 UV-I 181 W/m 7,2 C 7,4 C 17,7 km/h (3 Bft) 100,00 %
07.10.2017 15:22 11,3 C 11,7 C 77 % 1020,6 hPa 0,0 l/m 14,1 km/h (3 Bft) W-NW 283 0 min 0,000 mm 0,8 UV-I 201 W/m 7,4 C 7,1 C 19,3 km/h (3 Bft) 98,00 %
07.10.2017 15:24 11,4 C 11,7 C 76 % 1020,6 hPa 0,0 l/m 14,5 km/h (3 Bft) SW 227 0 min 0,000 mm 0,8 UV-I 231 W/m 7,3 C 7,0 C 20,9 km/h (4 Bft) 97,87 %
07.10.2017 15:26 11,5 C 11,7 C 75 % 1020,5 hPa 0,0 l/m 15,2 km/h (3 Bft) SW 219 2 min 0,000 mm 0,9 UV-I 254 W/m 7,2 C 6,9 C 24,1 km/h (4 Bft) 100,00 %
07.10.2017 15:28 11,6 C 11,7 C 75 % 1020,5 hPa 0,0 l/m 15,5 km/h (3 Bft) W-SW 248 0 min 0,000 mm 0,9 UV-I 238 W/m 7,3 C 6,9 C 22,5 km/h (4 Bft) 100,00 %
07.10.2017 15:30 11,6 C 11,7 C 75 % 1020,5 hPa 0,0 l/m 17,9 km/h (3 Bft) SW 236 2 min 0,000 mm 0,9 UV-I 268 W/m 7,3 C 6,0 C 29,0 km/h (5 Bft) 100,00 %
07.10.2017 15:32 11,7 C 11,7 C 74 % 1020,5 hPa 0,0 l/m 17,1 km/h (3 Bft) SW 234 2 min 0,000 mm 1,0 UV-I 253 W/m 7,2 C 6,4 C 27,4 km/h (4 Bft) 94,44 %
07.10.2017 15:34 11,8 C 11,7 C 73 % 1020,4 hPa 0,0 l/m 18,8 km/h (3 Bft) W-SW 257 2 min 0,000 mm 0,9 UV-I 258 W/m 7,1 C 6,0 C 27,4 km/h (4 Bft) 98,00 %
07.10.2017 15:36 11,8 C 11,7 C 73 % 1020,4 hPa 0,0 l/m 15,3 km/h (3 Bft) W 261 0 min 0,000 mm 0,7 UV-I 210 W/m 7,1 C 7,2 C 24,1 km/h (4 Bft) 94,00 %
07.10.2017 15:38 11,8 C 11,7 C 73 % 1020,3 hPa 0,0 l/m 20,7 km/h (4 Bft) W-SW 242 0 min 0,000 mm 0,6 UV-I 124 W/m 7,1 C 5,4 C 27,4 km/h (4 Bft) 95,74 %
07.10.2017 15:40 11,7 C 11,7 C 73 % 1020,3 hPa 0,0 l/m 13,7 km/h (3 Bft) SW 214 0 min 0,000 mm 0,1 UV-I 90 W/m 7,0 C 7,7 C 20,9 km/h (4 Bft) 95,74 %
07.10.2017 15:42 11,6 C 11,7 C 73 % 1020,3 hPa 0,0 l/m 13,7 km/h (3 Bft) W-SW 240 0 min 0,000 mm 0,0 UV-I 69 W/m 6,9 C 7,6 C 19,3 km/h (3 Bft) 93,62 %
07.10.2017 15:44 11,5 C 11,7 C 74 % 1020,2 hPa 0,0 l/m 12,6 km/h (3 Bft) SW 220 0 min 0,000 mm 0,0 UV-I 50 W/m 7,0 C 8,0 C 17,7 km/h (3 Bft) 96,00 %
07.10.2017 15:46 11,4 C 11,7 C 74 % 1020,2 hPa 0,0 l/m 18,3 km/h (3 Bft) S-SW 210 0 min 0,000 mm 0,0 UV-I 49 W/m 6,9 C 5,6 C 25,7 km/h (4 Bft) 95,74 %
07.10.2017 15:48 11,3 C 11,7 C 74 % 1020,2 hPa 0,0 l/m 20,4 km/h (4 Bft) W-SW 243 0 min 0,000 mm 0,0 UV-I 54 W/m 6,8 C 4,8 C 30,6 km/h (5 Bft) 97,87 %
07.10.2017 15:50 11,3 C 11,7 C 75 % 1020,3 hPa 0,0 l/m 20,7 km/h (4 Bft) SW 234 0 min 0,000 mm 0,0 UV-I 74 W/m 7,0 C 4,8 C 38,6 km/h (5 Bft) 97,87 %
07.10.2017 15:52 11,2 C 11,7 C 74 % 1020,2 hPa 0,0 l/m 21,7 km/h (4 Bft) SW 235 0 min 0,000 mm 0,0 UV-I 106 W/m 6,7 C 4,3 C 35,4 km/h (5 Bft) 97,87 %
07.10.2017 15:54 11,1 C 11,7 C 75 % 1020,3 hPa 0,0 l/m 18,0 km/h (3 Bft) W 267 0 min 0,000 mm 0,0 UV-I 141 W/m 6,8 C 5,4 C 25,7 km/h (4 Bft) 95,74 %
07.10.2017 15:56 10,9 C 11,7 C 76 % 1020,2 hPa 0,0 l/m 13,5 km/h (3 Bft) W-SW 238 0 min 0,000 mm 0,3 UV-I 164 W/m 6,8 C 6,9 C 20,9 km/h (4 Bft) 89,47 %
07.10.2017 15:58 10,9 C 11,7 C 76 % 1020,1 hPa 0,0 l/m 16,2 km/h (3 Bft) SW 236 0 min 0,000 mm 0,5 UV-I 176 W/m 6,8 C 5,8 C 25,7 km/h (4 Bft) 97,87 %
07.10.2017 16:00 11,0 C 11,7 C 77 % 1020,1 hPa 0,0 l/m 13,4 km/h (3 Bft) W-SW 240 0 min 0,000 mm 0,6 UV-I 195 W/m 7,1 C 7,0 C 19,3 km/h (3 Bft) 93,62 %
07.10.2017 16:02 11,1 C 11,7 C 77 % 1020,1 hPa 0,0 l/m 14,2 km/h (3 Bft) W-SW 240 0 min 0,127 mm 0,6 UV-I 197 W/m 7,2 C 6,8 C 20,9 km/h (4 Bft) 98,00 %
07.10.2017 16:04 11,2 C 11,7 C 77 % 1020,0 hPa 0,0 l/m 14,8 km/h (3 Bft) SW 232 0 min 0,000 mm 0,6 UV-I 184 W/m 7,3 C 6,7 C 20,9 km/h (4 Bft) 95,74 %
07.10.2017 16:06 11,3 C 11,7 C 75 % 1020,0 hPa 0,0 l/m 18,5 km/h (3 Bft) W 262 2 min 0,000 mm 0,6 UV-I 205 W/m 7,0 C 5,4 C 25,7 km/h (4 Bft) 97,87 %
07.10.2017 16:08 11,3 C 11,7 C 75 % 1020,0 hPa 0,0 l/m 16,8 km/h (3 Bft) W-SW 244 0 min 0,000 mm 0,6 UV-I 185 W/m 7,0 C 6,0 C 22,5 km/h (4 Bft) 100,00 %
07.10.2017 16:10 11,4 C 11,7 C 75 % 1019,9 hPa 0,0 l/m 11,6 km/h (2 Bft) SW 224 0 min 0,000 mm 0,6 UV-I 177 W/m 7,1 C 8,3 C 20,9 km/h (4 Bft) 100,00 %
07.10.2017 16:12 11,4 C 11,7 C 74 % 1019,9 hPa 0,0 l/m 14,4 km/h (3 Bft) S-SW 211 0 min 0,000 mm 0,6 UV-I 148 W/m 6,9 C 7,1 C 25,7 km/h (4 Bft) 100,00 %
07.10.2017 16:14 11,4 C 11,7 C 73 % 1019,8 hPa 0,0 l/m 17,8 km/h (3 Bft) W-SW 243 0 min 0,000 mm 0,6 UV-I 114 W/m 6,7 C 5,8 C 27,4 km/h (4 Bft) 100,00 %
07.10.2017 16:16 11,4 C 11,7 C 73 % 1019,8 hPa 0,0 l/m 21,6 km/h (4 Bft) SW 224 0 min 0,000 mm 0,6 UV-I 118 W/m 6,7 C 4,6 C 29,0 km/h (5 Bft) 97,22 %
07.10.2017 16:18 11,3 C 11,7 C 72 % 1019,8 hPa 0,0 l/m 18,3 km/h (3 Bft) W-SW 246 0 min 0,000 mm 0,6 UV-I 134 W/m 6,4 C 5,5 C 27,4 km/h (4 Bft) 100,00 %
07.10.2017 16:20 11,3 C 11,7 C 72 % 1019,8 hPa 0,0 l/m 18,3 km/h (3 Bft) W-SW 242 0 min 0,000 mm 0,6 UV-I 132 W/m 6,4 C 5,5 C 27,4 km/h (4 Bft) 97,87 %
07.10.2017 16:22 11,3 C 11,7 C 72 % 1019,7 hPa 0,0 l/m 15,1 km/h (3 Bft) W-NW 290 0 min 0,000 mm 0,5 UV-I 131 W/m 6,4 C 6,7 C 24,1 km/h (4 Bft) 100,00 %
07.10.2017 16:24 11,3 C 11,7 C 73 % 1019,8 hPa 0,0 l/m 18,6 km/h (3 Bft) W-SW 252 0 min 0,000 mm 0,5 UV-I 130 W/m 6,6 C 5,4 C 29,0 km/h (5 Bft) 100,00 %
07.10.2017 16:26 11,3 C 11,7 C 71 % 1019,7 hPa 0,0 l/m 17,7 km/h (3 Bft) SW 230 0 min 0,000 mm 0,5 UV-I 123 W/m 6,2 C 5,7 C 25,7 km/h (4 Bft) 95,74 %
07.10.2017 16:28 11,3 C 11,7 C 71 % 1019,7 hPa 0,0 l/m 14,6 km/h (3 Bft) W 268 0 min 0,000 mm 0,5 UV-I 115 W/m 6,2 C 6,9 C 20,9 km/h (4 Bft) 97,87 %
07.10.2017 16:30 11,3 C 11,7 C 72 % 1019,6 hPa 0,0 l/m 15,8 km/h (3 Bft) W-SW 258 0 min 0,000 mm 0,5 UV-I 126 W/m 6,4 C 6,4 C 24,1 km/h (4 Bft) 95,74 %
07.10.2017 16:32 11,3 C 11,7 C 71 % 1019,6 hPa 0,0 l/m 19,5 km/h (3 Bft) W-SW 246 0 min 0,000 mm 0,5 UV-I 140 W/m 6,2 C 5,1 C 30,6 km/h (5 Bft) 98,00 %
07.10.2017 16:34 11,4 C 11,7 C 70 % 1019,6 hPa 0,0 l/m 17,4 km/h (3 Bft) W-SW 242 0 min 0,000 mm 0,5 UV-I 156 W/m 6,1 C 5,9 C 25,7 km/h (4 Bft) 91,49 %
07.10.2017 16:36 11,4 C 11,7 C 70 % 1019,6 hPa 0,0 l/m 14,2 km/h (3 Bft) S-SW 210 0 min 0,000 mm 0,2 UV-I 153 W/m 6,1 C 7,2 C 20,9 km/h (4 Bft) 97,87 %
07.10.2017 16:38 11,5 C 11,7 C 70 % 1019,6 hPa 0,0 l/m 17,8 km/h (3 Bft) SW 215 2 min 0,000 mm 0,0 UV-I 164 W/m 6,2 C 5,9 C 27,4 km/h (4 Bft) 97,87 %
07.10.2017 16:40 11,5 C 11,7 C 70 % 1019,6 hPa 0,0 l/m 14,3 km/h (3 Bft) W-SW 254 2 min 0,000 mm 0,4 UV-I 199 W/m 6,2 C 7,2 C 24,1 km/h (4 Bft) 97,87 %
07.10.2017 16:42 11,6 C 11,7 C 69 % 1019,5 hPa 0,0 l/m 16,5 km/h (3 Bft) W-SW 254 2 min 0,000 mm 0,4 UV-I 284 W/m 6,1 C 6,5 C 27,4 km/h (4 Bft) 98,00 %
07.10.2017 16:44 11,7 C 11,7 C 68 % 1019,5 hPa 0,0 l/m 18,6 km/h (3 Bft) W-SW 248 2 min 0,000 mm 0,0 UV-I 222 W/m 6,0 C 5,9 C 25,7 km/h (4 Bft) 97,87 %
07.10.2017 16:46 11,8 C 11,7 C 68 % 1019,5 hPa 0,0 l/m 19,6 km/h (3 Bft) S-SW 213 2 min 0,000 mm 0,0 UV-I 151 W/m 6,1 C 5,7 C 27,4 km/h (4 Bft) 95,74 %
07.10.2017 16:48 11,8 C 11,7 C 68 % 1019,5 hPa 0,0 l/m 15,5 km/h (3 Bft) W-SW 252 0 min 0,000 mm 0,0 UV-I 130 W/m 6,1 C 7,1 C 27,4 km/h (4 Bft) 97,22 %
07.10.2017 16:50 11,7 C 11,7 C 68 % 1019,4 hPa 0,0 l/m 17,3 km/h (3 Bft) W 263 0 min 0,000 mm 0,0 UV-I 141 W/m 6,0 C 6,4 C 24,1 km/h (4 Bft) 98,00 %
07.10.2017 16:52 11,7 C 11,7 C 68 % 1019,4 hPa 0,0 l/m 13,2 km/h (3 Bft) W-SW 247 0 min 0,000 mm 0,0 UV-I 127 W/m 6,0 C 7,9 C 24,1 km/h (4 Bft) 98,00 %
07.10.2017 16:54 11,7 C 11,7 C 69 % 1019,4 hPa 0,0 l/m 11,3 km/h (2 Bft) W 266 0 min 0,000 mm 0,0 UV-I 123 W/m 6,2 C 8,8 C 17,7 km/h (3 Bft) 97,87 %
07.10.2017 16:56 11,6 C 11,7 C 69 % 1019,3 hPa 0,0 l/m 12,3 km/h (3 Bft) SW 229 0 min 0,000 mm 0,0 UV-I 113 W/m 6,1 C 8,2 C 19,3 km/h (3 Bft) 93,62 %
07.10.2017 16:58 11,6 C 11,7 C 69 % 1019,3 hPa 0,0 l/m 14,1 km/h (3 Bft) SW 220 0 min 0,000 mm 0,0 UV-I 103 W/m 6,1 C 7,4 C 22,5 km/h (4 Bft) 97,87 %
07.10.2017 17:00 11,6 C 11,7 C 69 % 1019,3 hPa 0,0 l/m 10,5 km/h (2 Bft) W-SW 252 0 min 0,000 mm 0,0 UV-I 109 W/m 6,1 C 9,1 C 16,1 km/h (3 Bft) 98,00 %
07.10.2017 17:02 11,6 C 11,7 C 69 % 1019,2 hPa 0,0 l/m 16,0 km/h (3 Bft) W-SW 242 0 min 0,127 mm 0,0 UV-I 114 W/m 6,1 C 6,7 C 24,1 km/h (4 Bft) 95,74 %
07.10.2017 17:04 11,6 C 11,7 C 70 % 1019,1 hPa 0,0 l/m 12,2 km/h (2 Bft) W-SW 248 2 min 0,000 mm 0,0 UV-I 136 W/m 6,3 C 8,3 C 20,9 km/h (4 Bft) 97,87 %
07.10.2017 17:06 11,6 C 11,7 C 69 % 1019,1 hPa 0,0 l/m 17,4 km/h (3 Bft) W-SW 241 2 min 0,000 mm 0,0 UV-I 244 W/m 6,1 C 6,2 C 24,1 km/h (4 Bft) 93,62 %
07.10.2017 17:08 11,7 C 11,7 C 69 % 1019,2 hPa 0,0 l/m 15,4 km/h (3 Bft) W 259 2 min 0,000 mm 0,0 UV-I 193 W/m 6,2 C 7,0 C 24,1 km/h (4 Bft) 97,87 %
07.10.2017 17:10 11,7 C 11,7 C 68 % 1019,2 hPa 0,0 l/m 18,7 km/h (3 Bft) S-SW 213 2 min 0,000 mm 0,0 UV-I 229 W/m 6,0 C 5,9 C 27,4 km/h (4 Bft) 97,87 %
07.10.2017 17:12 11,7 C 11,7 C 68 % 1019,2 hPa 0,0 l/m 16,3 km/h (3 Bft) W-SW 238 2 min 0,000 mm 0,0 UV-I 187 W/m 6,0 C 6,7 C 25,7 km/h (4 Bft) 97,30 %
07.10.2017 17:14 11,8 C 11,7 C 68 % 1019,2 hPa 0,0 l/m 15,3 km/h (3 Bft) S-SW 211 2 min 0,000 mm 0,0 UV-I 140 W/m 6,1 C 7,2 C 27,4 km/h (4 Bft) 96,23 %
07.10.2017 17:16 11,8 C 11,7 C 68 % 1019,1 hPa 0,0 l/m 18,0 km/h (3 Bft) W-SW 251 0 min 0,000 mm 0,0 UV-I 86 W/m 6,1 C 6,2 C 25,7 km/h (4 Bft) 97,37 %
07.10.2017 17:18 11,7 C 11,7 C 68 % 1019,0 hPa 0,0 l/m 14,7 km/h (3 Bft) W-SW 239 0 min 0,000 mm 0,0 UV-I 78 W/m 6,0 C 7,3 C 20,9 km/h (4 Bft) 96,00 %
07.10.2017 17:20 11,6 C 11,7 C 69 % 1019,0 hPa 0,0 l/m 11,2 km/h (2 Bft) W 265 0 min 0,000 mm 0,0 UV-I 76 W/m 6,1 C 8,7 C 20,9 km/h (4 Bft) 91,84 %
07.10.2017 17:22 11,6 C 11,7 C 69 % 1019,0 hPa 0,0 l/m 10,6 km/h (2 Bft) SW 227 0 min 0,000 mm 0,0 UV-I 70 W/m 6,1 C 9,0 C 22,5 km/h (4 Bft) 97,92 %
07.10.2017 17:24 11,5 C 11,7 C 70 % 1019,0 hPa 0,0 l/m 14,5 km/h (3 Bft) W 279 0 min 0,000 mm 0,0 UV-I 77 W/m 6,2 C 7,2 C 20,9 km/h (4 Bft) 97,87 %
07.10.2017 17:26 11,4 C 11,7 C 70 % 1019,0 hPa 0,0 l/m 12,1 km/h (2 Bft) SW 227 2 min 0,000 mm 0,0 UV-I 106 W/m 6,1 C 8,1 C 16,1 km/h (3 Bft) 98,00 %
07.10.2017 17:28 11,4 C 11,7 C 70 % 1018,9 hPa 0,0 l/m 12,6 km/h (3 Bft) W 265 2 min 0,000 mm 0,0 UV-I 114 W/m 6,1 C 7,8 C 19,3 km/h (3 Bft) 95,74 %
07.10.2017 17:30 11,4 C 11,7 C 71 % 1018,9 hPa 0,0 l/m 15,2 km/h (3 Bft) W-SW 253 2 min 0,000 mm 0,0 UV-I 112 W/m 6,3 C 6,8 C 24,1 km/h (4 Bft) 92,68 %
07.10.2017 17:32 11,4 C 11,7 C 70 % 1018,9 hPa 0,0 l/m 11,2 km/h (2 Bft) W 279 2 min 0,000 mm 0,0 UV-I 123 W/m 6,1 C 8,5 C 19,3 km/h (3 Bft) 94,00 %
07.10.2017 17:34 11,4 C 11,7 C 71 % 1018,9 hPa 0,0 l/m 14,1 km/h (3 Bft) W-SW 244 2 min 0,000 mm 0,0 UV-I 125 W/m 6,3 C 7,2 C 17,7 km/h (3 Bft) 96,00 %
07.10.2017 17:36 11,4 C 11,7 C 71 % 1018,9 hPa 0,0 l/m 11,5 km/h (2 Bft) W 259 2 min 0,000 mm 0,0 UV-I 135 W/m 6,3 C 8,4 C 19,3 km/h (3 Bft) 95,74 %
07.10.2017 17:38 11,4 C 11,7 C 71 % 1018,8 hPa 0,0 l/m 13,7 km/h (3 Bft) SW 232 2 min 0,000 mm 0,0 UV-I 135 W/m 6,3 C 7,4 C 20,9 km/h (4 Bft) 95,74 %
07.10.2017 17:40 11,5 C 11,7 C 71 % 1018,8 hPa 0,0 l/m 8,8 km/h (2 Bft) SW 228 2 min 0,000 mm 0,0 UV-I 128 W/m 6,4 C 9,9 C 12,9 km/h (3 Bft) 95,74 %
07.10.2017 17:42 11,5 C 11,7 C 71 % 1018,8 hPa 0,0 l/m 11,7 km/h (2 Bft) W-SW 241 2 min 0,000 mm 0,0 UV-I 114 W/m 6,4 C 8,4 C 16,1 km/h (3 Bft) 97,87 %
07.10.2017 17:44 11,5 C 11,7 C 71 % 1018,7 hPa 0,0 l/m 11,3 km/h (2 Bft) W-SW 249 2 min 0,000 mm 0,0 UV-I 111 W/m 6,4 C 8,6 C 20,9 km/h (4 Bft) 97,37 %
07.10.2017 17:46 11,5 C 11,7 C 71 % 1018,7 hPa 0,0 l/m 8,5 km/h (2 Bft) SW 229 2 min 0,000 mm 0,0 UV-I 111 W/m 6,4 C 10,1 C 17,7 km/h (3 Bft) 95,74 %
07.10.2017 17:48 11,5 C 11,7 C 70 % 1018,7 hPa 0,0 l/m 11,4 km/h (2 Bft) SW 231 2 min 0,000 mm 0,0 UV-I 104 W/m 6,2 C 8,5 C 20,9 km/h (4 Bft) 95,74 %
07.10.2017 17:50 11,5 C 11,7 C 70 % 1018,6 hPa 0,0 l/m 9,6 km/h (2 Bft) SW 225 2 min 0,000 mm 0,0 UV-I 93 W/m 6,2 C 9,5 C 16,1 km/h (3 Bft) 96,00 %
07.10.2017 17:52 11,5 C 11,7 C 70 % 1018,6 hPa 0,0 l/m 8,8 km/h (2 Bft) W 262 2 min 0,000 mm 0,0 UV-I 55 W/m 6,2 C 9,9 C 14,5 km/h (3 Bft) 97,87 %
07.10.2017 17:54 11,4 C 11,7 C 70 % 1018,6 hPa 0,0 l/m 11,3 km/h (2 Bft) W-SW 248 2 min 0,000 mm 0,0 UV-I 50 W/m 6,1 C 8,5 C 16,1 km/h (3 Bft) 98,00 %
07.10.2017 17:56 11,4 C 11,7 C 71 % 1018,5 hPa 0,0 l/m 8,5 km/h (2 Bft) W-SW 240 2 min 0,000 mm 0,0 UV-I 61 W/m 6,3 C 10,0 C 12,9 km/h (3 Bft) 96,00 %
07.10.2017 17:58 11,3 C 11,7 C 71 % 1018,6 hPa 0,0 l/m 9,3 km/h (2 Bft) W-SW 254 2 min 0,000 mm 0,0 UV-I 65 W/m 6,2 C 9,4 C 14,5 km/h (3 Bft) 93,62 %
07.10.2017 18:00 11,2 C 11,7 C 71 % 1018,6 hPa 0,0 l/m 9,0 km/h (2 Bft) W-SW 240 2 min 0,102 mm 0,0 UV-I 59 W/m 6,1 C 9,5 C 14,5 km/h (3 Bft) 100,00 %
07.10.2017 18:02 11,2 C 11,7 C 72 % 1018,6 hPa 0,0 l/m 7,0 km/h (2 Bft) W-SW 237 2 min 0,000 mm 0,0 UV-I 49 W/m 6,3 C 10,8 C 9,7 km/h (2 Bft) 91,67 %
07.10.2017 18:04 11,1 C 11,7 C 72 % 1018,6 hPa 0,0 l/m 7,5 km/h (2 Bft) W-SW 252 2 min 0,000 mm 0,0 UV-I 43 W/m 6,2 C 10,3 C 11,3 km/h (2 Bft) 97,87 %
07.10.2017 18:06 11,0 C 11,7 C 73 % 1018,6 hPa 0,0 l/m 6,3 km/h (2 Bft) W-SW 258 2 min 0,000 mm 0,0 UV-I 41 W/m 6,4 C 11,0 C 11,3 km/h (2 Bft) 97,87 %
07.10.2017 18:08 10,9 C 11,7 C 73 % 1018,6 hPa 0,0 l/m 5,9 km/h (2 Bft) W 261 2 min 0,000 mm 0,0 UV-I 33 W/m 6,3 C 10,9 C 9,7 km/h (2 Bft) 98,00 %
07.10.2017 18:10 10,8 C 11,7 C 73 % 1018,5 hPa 0,0 l/m 8,2 km/h (2 Bft) W-SW 249 2 min 0,000 mm 0,0 UV-I 28 W/m 6,2 C 9,6 C 14,5 km/h (3 Bft) 97,87 %
07.10.2017 18:12 10,8 C 11,7 C 73 % 1018,5 hPa 0,0 l/m 6,2 km/h (2 Bft) SW 230 2 min 0,000 mm 0,0 UV-I 24 W/m 6,2 C 10,8 C 11,3 km/h (2 Bft) 97,92 %
07.10.2017 18:14 10,7 C 11,7 C 73 % 1018,5 hPa 0,0 l/m 7,0 km/h (2 Bft) W-SW 240 2 min 0,000 mm 0,0 UV-I 21 W/m 6,1 C 10,3 C 11,3 km/h (2 Bft) 98,00 %
07.10.2017 18:16 10,6 C 11,7 C 74 % 1018,4 hPa 0,0 l/m 5,7 km/h (1 Bft) SW 235 2 min 0,000 mm 0,0 UV-I 18 W/m 6,2 C 10,6 C 9,7 km/h (2 Bft) 100,00 %
07.10.2017 18:18 10,6 C 11,7 C 74 % 1018,4 hPa 0,0 l/m 4,5 km/h (1 Bft) SW 227 2 min 0,000 mm 0,0 UV-I 15 W/m 6,2 C 10,6 C 6,4 km/h (2 Bft) 100,00 %
07.10.2017 18:20 10,4 C 11,7 C 75 % 1018,4 hPa 0,0 l/m 5,7 km/h (1 Bft) SW 233 2 min 0,000 mm 0,0 UV-I 14 W/m 6,2 C 10,4 C 8,0 km/h (2 Bft) 100,00 %
07.10.2017 18:22 10,3 C 11,7 C 75 % 1018,4 hPa 0,0 l/m 6,3 km/h (2 Bft) W-SW 250 0 min 0,000 mm 0,0 UV-I 12 W/m 6,1 C 10,3 C 8,0 km/h (2 Bft) 100,00 %
07.10.2017 18:24 10,2 C 11,7 C 76 % 1018,4 hPa 0,0 l/m 6,6 km/h (2 Bft) W-SW 237 0 min 0,000 mm 0,0 UV-I 11 W/m 6,2 C 10,1 C 9,7 km/h (2 Bft) 100,00 %
07.10.2017 18:26 10,1 C 11,7 C 76 % 1018,5 hPa 0,0 l/m 6,0 km/h (2 Bft) S-SW 197 0 min 0,000 mm 0,0 UV-I 10 W/m 6,1 C 10,1 C 11,3 km/h (2 Bft) 100,00 %
07.10.2017 18:28 10,0 C 11,7 C 77 % 1018,5 hPa 0,0 l/m 6,9 km/h (2 Bft) SW 215 0 min 0,000 mm 0,0 UV-I 9 W/m 6,2 C 9,6 C 9,7 km/h (2 Bft) 97,87 %
07.10.2017 18:30 9,9 C 11,7 C 77 % 1018,5 hPa 0,0 l/m 6,6 km/h (2 Bft) S-SW 213 0 min 0,000 mm 0,0 UV-I 7 W/m 6,1 C 9,8 C 9,7 km/h (2 Bft) 95,74 %
07.10.2017 18:32 9,9 C 11,7 C 77 % 1018,5 hPa 0,0 l/m 6,0 km/h (2 Bft) SW 226 0 min 0,000 mm 0,0 UV-I 7 W/m 6,1 C 9,9 C 9,7 km/h (2 Bft) 100,00 %
07.10.2017 18:34 9,8 C 11,7 C 77 % 1018,4 hPa 0,0 l/m 5,1 km/h (1 Bft) SW 217 0 min 0,000 mm 0,0 UV-I 6 W/m 6,0 C 9,8 C 8,0 km/h (2 Bft) 97,87 %
07.10.2017 18:36 9,7 C 11,7 C 78 % 1018,4 hPa 0,0 l/m 6,7 km/h (2 Bft) SW 219 0 min 0,000 mm 0,0 UV-I 5 W/m 6,1 C 9,5 C 11,3 km/h (2 Bft) 97,87 %
07.10.2017 18:38 9,7 C 11,7 C 78 % 1018,4 hPa 0,0 l/m 5,9 km/h (2 Bft) SW 224 0 min 0,000 mm 0,0 UV-I 5 W/m 6,1 C 9,7 C 9,7 km/h (2 Bft) 100,00 %
07.10.2017 18:40 9,6 C 11,7 C 78 % 1018,4 hPa 0,0 l/m 5,5 km/h (1 Bft) S-SW 209 0 min 0,000 mm 0,0 UV-I 5 W/m 6,0 C 9,6 C 8,0 km/h (2 Bft) 98,00 %
07.10.2017 18:42 9,6 C 11,7 C 78 % 1018,4 hPa 0,0 l/m 5,4 km/h (1 Bft) SW 235 0 min 0,000 mm 0,0 UV-I 5 W/m 6,0 C 9,6 C 6,4 km/h (2 Bft) 100,00 %
07.10.2017 18:46 9,6 C 11,7 C 78 % 1018,4 hPa 0,0 l/m 6,3 km/h (2 Bft) SW 225 0 min 0,000 mm 0,0 UV-I 0 W/m 6,0 C 9,6 C 8,0 km/h (2 Bft) 100,00 %
07.10.2017 18:48 9,5 C 11,7 C 78 % 1018,4 hPa 0,0 l/m 5,0 km/h (1 Bft) SW 231 0 min 0,000 mm 0,0 UV-I 0 W/m 5,9 C 9,5 C 6,4 km/h (2 Bft) 100,00 %
07.10.2017 18:50 9,4 C 11,7 C 78 % 1018,4 hPa 0,0 l/m 5,7 km/h (1 Bft) SW 216 0 min 0,000 mm 0,0 UV-I 0 W/m 5,8 C 9,4 C 8,0 km/h (2 Bft) 100,00 %
07.10.2017 18:52 9,3 C 11,7 C 79 % 1018,3 hPa 0,0 l/m 5,1 km/h (1 Bft) SW 217 0 min 0,000 mm 0,0 UV-I 0 W/m 5,8 C 9,3 C 8,0 km/h (2 Bft) 100,00 %
07.10.2017 18:54 9,3 C 11,7 C 79 % 1018,3 hPa 0,0 l/m 5,3 km/h (1 Bft) S-SW 211 0 min 0,000 mm 0,0 UV-I 0 W/m 5,8 C 9,3 C 6,4 km/h (2 Bft) 100,00 %
07.10.2017 18:56 9,3 C 11,7 C 78 % 1018,3 hPa 0,0 l/m 4,9 km/h (1 Bft) SW 232 0 min 0,000 mm 0,0 UV-I 0 W/m 5,7 C 9,3 C 6,4 km/h (2 Bft) 97,87 %
07.10.2017 18:58 9,2 C 11,7 C 79 % 1018,3 hPa 0,0 l/m 5,9 km/h (2 Bft) SW 217 0 min 0,000 mm 0,0 UV-I 0 W/m 5,8 C 9,2 C 8,0 km/h (2 Bft) 98,11 %
07.10.2017 19:00 9,1 C 11,7 C 79 % 1018,2 hPa 0,0 l/m 5,9 km/h (2 Bft) S-SW 213 0 min 0,000 mm 0,0 UV-I 0 W/m 5,7 C 9,1 C 8,0 km/h (2 Bft) 100,00 %
07.10.2017 19:02 9,1 C 11,7 C 79 % 1018,2 hPa 0,0 l/m 6,7 km/h (2 Bft) S-SW 197 0 min 0,025 mm 0,0 UV-I 0 W/m 5,7 C 8,9 C 11,3 km/h (2 Bft) 97,56 %
07.10.2017 19:04 9,0 C 11,7 C 79 % 1018,2 hPa 0,0 l/m 6,9 km/h (2 Bft) SW 219 0 min 0,000 mm 0,0 UV-I 0 W/m 5,6 C 8,6 C 11,3 km/h (2 Bft) 100,00 %
07.10.2017 19:06 8,9 C 11,7 C 79 % 1018,2 hPa 0,0 l/m 6,6 km/h (2 Bft) SW 225 0 min 0,000 mm 0,0 UV-I 0 W/m 5,5 C 8,8 C 11,3 km/h (2 Bft) 100,00 %
07.10.2017 19:08 8,9 C 11,7 C 80 % 1018,1 hPa 0,0 l/m 4,4 km/h (1 Bft) SW 233 0 min 0,000 mm 0,0 UV-I 0 W/m 5,6 C 8,9 C 6,4 km/h (2 Bft) 100,00 %
07.10.2017 19:10 8,8 C 11,7 C 80 % 1018,1 hPa 0,0 l/m 4,9 km/h (1 Bft) SW 216 0 min 0,000 mm 0,0 UV-I 0 W/m 5,5 C 8,8 C 9,7 km/h (2 Bft) 100,00 %
07.10.2017 19:12 8,8 C 11,7 C 79 % 1018,1 hPa 0,0 l/m 4,5 km/h (1 Bft) S-SW 209 0 min 0,000 mm 0,0 UV-I 0 W/m 5,4 C 8,8 C 8,0 km/h (2 Bft) 100,00 %
07.10.2017 19:14 8,9 C 11,7 C 79 % 1018,1 hPa 0,0 l/m 6,6 km/h (2 Bft) SW 214 0 min 0,000 mm 0,0 UV-I 0 W/m 5,5 C 8,8 C 14,5 km/h (3 Bft) 100,00 %
07.10.2017 19:16 8,9 C 11,7 C 79 % 1018,0 hPa 0,0 l/m 7,2 km/h (2 Bft) SW 216 0 min 0,000 mm 0,0 UV-I 0 W/m 5,5 C 8,3 C 9,7 km/h (2 Bft) 97,87 %
07.10.2017 19:18 8,9 C 11,7 C 79 % 1017,9 hPa 0,0 l/m 5,8 km/h (2 Bft) S 190 0 min 0,000 mm 0,0 UV-I 0 W/m 5,5 C 8,9 C 11,3 km/h (2 Bft) 100,00 %
07.10.2017 19:20 8,9 C 11,7 C 79 % 1017,9 hPa 0,0 l/m 8,0 km/h (2 Bft) S-SW 201 0 min 0,000 mm 0,0 UV-I 0 W/m 5,5 C 7,7 C 11,3 km/h (2 Bft) 100,00 %
07.10.2017 19:22 8,9 C 11,7 C 79 % 1017,9 hPa 0,0 l/m 7,2 km/h (2 Bft) SW 225 0 min 0,000 mm 0,0 UV-I 0 W/m 5,5 C 8,3 C 11,3 km/h (2 Bft) 94,92 %
07.10.2017 19:24 8,9 C 11,7 C 79 % 1017,9 hPa 0,0 l/m 6,7 km/h (2 Bft) SW 215 0 min 0,000 mm 0,0 UV-I 0 W/m 5,5 C 8,7 C 9,7 km/h (2 Bft) 100,00 %
07.10.2017 19:26 8,9 C 11,7 C 79 % 1017,9 hPa 0,0 l/m 7,9 km/h (2 Bft) S 182 0 min 0,000 mm 0,0 UV-I 0 W/m 5,5 C 7,8 C 11,3 km/h (2 Bft) 100,00 %
07.10.2017 19:28 8,9 C 11,7 C 79 % 1017,9 hPa 0,0 l/m 6,7 km/h (2 Bft) S-SW 197 0 min 0,000 mm 0,0 UV-I 0 W/m 5,5 C 8,7 C 11,3 km/h (2 Bft) 100,00 %
07.10.2017 19:30 8,9 C 11,7 C 79 % 1017,8 hPa 0,0 l/m 4,1 km/h (1 Bft) S-SW 200 0 min 0,000 mm 0,0 UV-I 0 W/m 5,5 C 8,9 C 8,0 km/h (2 Bft) 100,00 %
07.10.2017 19:32 8,9 C 11,7 C 79 % 1017,8 hPa 0,0 l/m 3,7 km/h (1 Bft) S-SW 196 0 min 0,000 mm 0,0 UV-I 0 W/m 5,5 C 8,9 C 6,4 km/h (2 Bft) 100,00 %
07.10.2017 19:34 8,9 C 11,7 C 79 % 1017,9 hPa 0,0 l/m 3,8 km/h (1 Bft) S 183 0 min 0,000 mm 0,0 UV-I 0 W/m 5,5 C 8,9 C 6,4 km/h (2 Bft) 100,00 %
07.10.2017 19:36 8,9 C 11,7 C 79 % 1017,9 hPa 0,0 l/m 3,2 km/h (1 Bft) S 179 0 min 0,000 mm 0,0 UV-I 0 W/m 5,5 C 8,9 C 6,4 km/h (2 Bft) 100,00 %
07.10.2017 19:38 9,0 C 11,7 C 79 % 1017,8 hPa 0,0 l/m 4,3 km/h (1 Bft) S 187 0 min 0,000 mm 0,0 UV-I 0 W/m 5,6 C 9,0 C 8,0 km/h (2 Bft) 97,87 %
07.10.2017 19:40 9,1 C 11,7 C 79 % 1017,9 hPa 0,0 l/m 3,9 km/h (1 Bft) S 179 0 min 0,000 mm 0,0 UV-I 0 W/m 5,7 C 9,1 C 8,0 km/h (2 Bft) 97,87 %
07.10.2017 19:42 9,1 C 11,7 C 78 % 1017,9 hPa 0,0 l/m 3,5 km/h (1 Bft) S 191 0 min 0,000 mm 0,0 UV-I 0 W/m 5,5 C 9,1 C 6,4 km/h (2 Bft) 97,87 %
07.10.2017 19:44 9,1 C 11,7 C 78 % 1017,9 hPa 0,0 l/m 4,3 km/h (1 Bft) S-SO 167 0 min 0,000 mm 0,0 UV-I 0 W/m 5,5 C 9,1 C 9,7 km/h (2 Bft) 100,00 %
07.10.2017 19:46 9,1 C 11,7 C 78 % 1017,8 hPa 0,0 l/m 4,9 km/h (1 Bft) S-SO 163 0 min 0,000 mm 0,0 UV-I 0 W/m 5,5 C 9,1 C 8,0 km/h (2 Bft) 95,12 %
07.10.2017 19:48 9,1 C 11,7 C 78 % 1017,8 hPa 0,0 l/m 4,4 km/h (1 Bft) S 187 0 min 0,000 mm 0,0 UV-I 0 W/m 5,5 C 9,1 C 9,7 km/h (2 Bft) 97,87 %
07.10.2017 19:50 9,1 C 11,7 C 78 % 1017,8 hPa 0,0 l/m 4,1 km/h (1 Bft) S-SW 198 0 min 0,000 mm 0,0 UV-I 0 W/m 5,5 C 9,1 C 6,4 km/h (2 Bft) 94,00 %
07.10.2017 19:52 9,1 C 11,7 C 79 % 1017,8 hPa 0,0 l/m 3,8 km/h (1 Bft) S 189 0 min 0,000 mm 0,0 UV-I 0 W/m 5,7 C 9,1 C 6,4 km/h (2 Bft) 97,87 %
07.10.2017 19:54 9,1 C 11,7 C 79 % 1017,8 hPa 0,0 l/m 4,9 km/h (1 Bft) S-SO 163 0 min 0,000 mm 0,0 UV-I 0 W/m 5,7 C 9,1 C 9,7 km/h (2 Bft) 97,14 %
07.10.2017 19:56 9,1 C 11,7 C 79 % 1017,8 hPa 0,0 l/m 6,9 km/h (2 Bft) S-SW 201 0 min 0,000 mm 0,0 UV-I 0 W/m 5,7 C 8,7 C 11,3 km/h (2 Bft) 96,23 %
07.10.2017 19:58 9,1 C 11,7 C 79 % 1017,8 hPa 0,0 l/m 5,7 km/h (1 Bft) S-SW 202 0 min 0,000 mm 0,0 UV-I 0 W/m 5,7 C 9,1 C 8,0 km/h (2 Bft) 95,74 %
07.10.2017 20:00 9,1 C 11,7 C 79 % 1017,8 hPa 0,0 l/m 6,7 km/h (2 Bft) S-SW 200 0 min 0,000 mm 0,0 UV-I 0 W/m 5,7 C 8,9 C 9,7 km/h (2 Bft) 97,87 %
07.10.2017 20:02 9,1 C 11,7 C 79 % 1017,7 hPa 0,0 l/m 8,4 km/h (2 Bft) S-SW 200 0 min 0,026 mm 0,0 UV-I 0 W/m 5,7 C 7,6 C 14,5 km/h (3 Bft) 96,00 %
07.10.2017 20:04 9,1 C 11,7 C 79 % 1017,7 hPa 0,0 l/m 6,1 km/h (2 Bft) S-SW 209 0 min 0,000 mm 0,0 UV-I 0 W/m 5,7 C 9,1 C 9,7 km/h (2 Bft) 98,00 %
07.10.2017 20:06 9,2 C 11,7 C 79 % 1017,7 hPa 0,0 l/m 6,3 km/h (2 Bft) S-SW 196 0 min 0,000 mm 0,0 UV-I 0 W/m 5,8 C 9,2 C 11,3 km/h (2 Bft) 97,87 %
07.10.2017 20:08 9,2 C 11,7 C 79 % 1017,7 hPa 0,0 l/m 6,0 km/h (2 Bft) S-SW 198 0 min 0,000 mm 0,0 UV-I 0 W/m 5,8 C 9,2 C 11,3 km/h (2 Bft) 97,44 %
07.10.2017 20:10 9,2 C 11,7 C 79 % 1017,7 hPa 0,0 l/m 8,2 km/h (2 Bft) S 190 0 min 0,000 mm 0,0 UV-I 0 W/m 5,8 C 7,9 C 14,5 km/h (3 Bft) 97,87 %
07.10.2017 20:12 9,2 C 11,7 C 79 % 1017,7 hPa 0,0 l/m 6,5 km/h (2 Bft) S 172 0 min 0,000 mm 0,0 UV-I 0 W/m 5,8 C 9,2 C 11,3 km/h (2 Bft) 96,00 %
07.10.2017 20:14 9,2 C 11,7 C 79 % 1017,7 hPa 0,0 l/m 7,2 km/h (2 Bft) S-SW 205 0 min 0,000 mm 0,0 UV-I 0 W/m 5,8 C 8,6 C 12,9 km/h (3 Bft) 97,87 %
07.10.2017 20:16 9,2 C 11,7 C 79 % 1017,7 hPa 0,0 l/m 5,8 km/h (2 Bft) S 178 0 min 0,000 mm 0,0 UV-I 0 W/m 5,8 C 9,2 C 8,0 km/h (2 Bft) 97,87 %
07.10.2017 20:18 9,3 C 11,7 C 79 % 1017,7 hPa 0,0 l/m 6,0 km/h (2 Bft) S-SO 157 0 min 0,000 mm 0,0 UV-I 0 W/m 5,8 C 9,3 C 9,7 km/h (2 Bft) 92,00 %
07.10.2017 20:20 9,3 C 11,7 C 79 % 1017,7 hPa 0,0 l/m 6,9 km/h (2 Bft) S-SW 198 0 min 0,000 mm 0,0 UV-I 0 W/m 5,8 C 8,9 C 12,9 km/h (3 Bft) 94,74 %
07.10.2017 20:22 9,3 C 11,7 C 79 % 1017,6 hPa 0,0 l/m 5,8 km/h (2 Bft) S-SO 163 0 min 0,000 mm 0,0 UV-I 0 W/m 5,8 C 9,3 C 12,9 km/h (3 Bft) 96,00 %
07.10.2017 20:24 9,3 C 11,7 C 79 % 1017,6 hPa 0,0 l/m 8,1 km/h (2 Bft) S-SW 209 0 min 0,000 mm 0,0 UV-I 0 W/m 5,8 C 8,0 C 12,9 km/h (3 Bft) 98,00 %
07.10.2017 20:26 9,3 C 11,7 C 79 % 1017,6 hPa 0,0 l/m 6,0 km/h (2 Bft) S 186 0 min 0,000 mm 0,0 UV-I 0 W/m 5,8 C 9,3 C 12,9 km/h (3 Bft) 98,00 %
07.10.2017 20:28 9,3 C 11,7 C 79 % 1017,6 hPa 0,0 l/m 4,8 km/h (1 Bft) SW 232 0 min 0,000 mm 0,0 UV-I 0 W/m 5,8 C 9,3 C 9,7 km/h (2 Bft) 95,74 %
07.10.2017 20:30 9,3 C 11,7 C 80 % 1017,6 hPa 0,0 l/m 3,9 km/h (1 Bft) SW 232 0 min 0,000 mm 0,0 UV-I 0 W/m 6,0 C 9,3 C 6,4 km/h (2 Bft) 100,00 %
07.10.2017 20:32 9,2 C 11,7 C 80 % 1017,6 hPa 0,0 l/m 3,8 km/h (1 Bft) S 190 0 min 0,000 mm 0,0 UV-I 0 W/m 5,9 C 9,2 C 6,4 km/h (2 Bft) 93,62 %
07.10.2017 20:34 9,2 C 11,7 C 80 % 1017,5 hPa 0,0 l/m 6,1 km/h (2 Bft) S-SW 208 0 min 0,000 mm 0,0 UV-I 0 W/m 5,9 C 9,2 C 9,7 km/h (2 Bft) 97,87 %
07.10.2017 20:36 9,2 C 11,7 C 80 % 1017,6 hPa 0,0 l/m 7,6 km/h (2 Bft) S-SW 202 0 min 0,000 mm 0,0 UV-I 0 W/m 5,9 C 8,3 C 11,3 km/h (2 Bft) 98,00 %
07.10.2017 20:38 9,1 C 11,7 C 80 % 1017,5 hPa 0,0 l/m 6,5 km/h (2 Bft) S-SW 198 0 min 0,000 mm 0,0 UV-I 0 W/m 5,8 C 9,1 C 9,7 km/h (2 Bft) 97,87 %
07.10.2017 20:40 9,1 C 11,7 C 80 % 1017,5 hPa 0,0 l/m 5,7 km/h (1 Bft) S-SW 212 0 min 0,000 mm 0,0 UV-I 0 W/m 5,8 C 9,1 C 11,3 km/h (2 Bft) 97,87 %
07.10.2017 20:42 9,1 C 11,7 C 80 % 1017,5 hPa 0,0 l/m 7,4 km/h (2 Bft) SW 227 0 min 0,000 mm 0,0 UV-I 0 W/m 5,8 C 8,3 C 12,9 km/h (3 Bft) 97,87 %
07.10.2017 20:44 9,1 C 11,7 C 80 % 1017,5 hPa 0,0 l/m 7,8 km/h (2 Bft) SW 220 0 min 0,000 mm 0,0 UV-I 0 W/m 5,8 C 8,1 C 14,5 km/h (3 Bft) 97,87 %
07.10.2017 20:46 9,1 C 11,7 C 80 % 1017,5 hPa 0,0 l/m 6,1 km/h (2 Bft) S-SW 211 0 min 0,000 mm 0,0 UV-I 0 W/m 5,8 C 9,1 C 9,7 km/h (2 Bft) 97,92 %
07.10.2017 20:48 9,1 C 11,7 C 81 % 1017,4 hPa 0,0 l/m 4,9 km/h (1 Bft) S-SW 213 0 min 0,000 mm 0,0 UV-I 0 W/m 6,0 C 9,1 C 9,7 km/h (2 Bft) 97,87 %
07.10.2017 20:50 9,0 C 11,7 C 81 % 1017,4 hPa 0,0 l/m 6,1 km/h (2 Bft) S-SW 213 0 min 0,000 mm 0,0 UV-I 0 W/m 5,9 C 9,0 C 11,3 km/h (2 Bft) 96,00 %
07.10.2017 20:52 9,0 C 11,7 C 81 % 1017,3 hPa 0,0 l/m 5,6 km/h (1 Bft) SW 227 0 min 0,000 mm 0,0 UV-I 0 W/m 5,9 C 9,0 C 9,7 km/h (2 Bft) 100,00 %
07.10.2017 20:54 9,0 C 11,7 C 81 % 1017,3 hPa 0,0 l/m 6,0 km/h (2 Bft) S-SW 209 0 min 0,000 mm 0,0 UV-I 0 W/m 5,9 C 9,0 C 9,7 km/h (2 Bft) 96,00 %
07.10.2017 20:56 9,0 C 11,7 C 81 % 1017,2 hPa 0,0 l/m 5,4 km/h (1 Bft) S-SW 198 0 min 0,000 mm 0,0 UV-I 0 W/m 5,9 C 9,0 C 9,7 km/h (2 Bft) 97,87 %
07.10.2017 20:58 9,0 C 11,7 C 81 % 1017,2 hPa 0,0 l/m 5,1 km/h (1 Bft) S-SW 208 0 min 0,000 mm 0,0 UV-I 0 W/m 5,9 C 9,0 C 9,7 km/h (2 Bft) 97,87 %
07.10.2017 21:00 8,9 C 11,7 C 81 % 1017,2 hPa 0,0 l/m 4,5 km/h (1 Bft) S-SW 213 0 min 0,025 mm 0,0 UV-I 0 W/m 5,8 C 8,9 C 8,0 km/h (2 Bft) 95,74 %
07.10.2017 21:02 8,9 C 11,7 C 81 % 1017,1 hPa 0,0 l/m 5,1 km/h (1 Bft) S-SW 210 0 min 0,000 mm 0,0 UV-I 0 W/m 5,8 C 8,9 C 8,0 km/h (2 Bft) 97,87 %
07.10.2017 21:04 8,9 C 11,7 C 82 % 1017,1 hPa 0,0 l/m 4,5 km/h (1 Bft) S-SW 210 0 min 0,000 mm 0,0 UV-I 0 W/m 6,0 C 8,9 C 6,4 km/h (2 Bft) 95,74 %
07.10.2017 21:06 8,9 C 11,7 C 82 % 1017,0 hPa 0,0 l/m 6,6 km/h (2 Bft) S-SW 200 0 min 0,000 mm 0,0 UV-I 0 W/m 6,0 C 8,8 C 11,3 km/h (2 Bft) 92,00 %
07.10.2017 21:08 8,9 C 11,7 C 81 % 1017,0 hPa 0,0 l/m 6,7 km/h (2 Bft) S-SW 206 0 min 0,000 mm 0,0 UV-I 0 W/m 5,8 C 8,7 C 8,0 km/h (2 Bft) 95,74 %
07.10.2017 21:10 8,8 C 11,7 C 82 % 1016,9 hPa 0,0 l/m 5,1 km/h (1 Bft) S-SW 209 0 min 0,000 mm 0,0 UV-I 0 W/m 5,9 C 8,8 C 8,0 km/h (2 Bft) 97,87 %
07.10.2017 21:12 8,8 C 11,7 C 82 % 1016,9 hPa 0,0 l/m 6,1 km/h (2 Bft) SW 216 0 min 0,000 mm 0,0 UV-I 0 W/m 5,9 C 8,8 C 8,0 km/h (2 Bft) 97,87 %
07.10.2017 21:14 8,8 C 11,7 C 82 % 1016,9 hPa 0,0 l/m 7,1 km/h (2 Bft) SW 214 0 min 0,000 mm 0,0 UV-I 0 W/m 5,9 C 8,3 C 9,7 km/h (2 Bft) 93,62 %
07.10.2017 21:16 8,8 C 11,7 C 82 % 1016,8 hPa 0,0 l/m 6,3 km/h (2 Bft) S-SW 197 0 min 0,000 mm 0,0 UV-I 0 W/m 5,9 C 8,8 C 9,7 km/h (2 Bft) 97,87 %
07.10.2017 21:18 8,8 C 11,7 C 82 % 1016,8 hPa 0,0 l/m 6,9 km/h (2 Bft) SW 220 0 min 0,000 mm 0,0 UV-I 0 W/m 5,9 C 8,4 C 9,7 km/h (2 Bft) 95,74 %
07.10.2017 21:20 8,8 C 11,7 C 82 % 1016,8 hPa 0,0 l/m 7,6 km/h (2 Bft) S-SW 208 0 min 0,000 mm 0,0 UV-I 0 W/m 5,9 C 7,9 C 11,3 km/h (2 Bft) 95,74 %
07.10.2017 21:22 8,8 C 11,7 C 82 % 1016,7 hPa 0,0 l/m 6,4 km/h (2 Bft) S-SW 207 0 min 0,000 mm 0,0 UV-I 0 W/m 5,9 C 8,8 C 9,7 km/h (2 Bft) 97,87 %
07.10.2017 21:24 8,8 C 11,7 C 82 % 1016,7 hPa 0,0 l/m 7,4 km/h (2 Bft) S-SW 207 0 min 0,000 mm 0,0 UV-I 0 W/m 5,9 C 8,0 C 9,7 km/h (2 Bft) 97,22 %
07.10.2017 21:26 8,8 C 11,7 C 82 % 1016,7 hPa 0,0 l/m 7,2 km/h (2 Bft) S-SW 207 0 min 0,000 mm 0,0 UV-I 0 W/m 5,9 C 8,2 C 9,7 km/h (2 Bft) 100,00 %
07.10.2017 21:28 8,8 C 11,7 C 82 % 1016,7 hPa 0,0 l/m 6,2 km/h (2 Bft) S-SW 213 0 min 0,000 mm 0,0 UV-I 0 W/m 5,9 C 8,8 C 8,0 km/h (2 Bft) 100,00 %
07.10.2017 21:30 8,8 C 11,7 C 82 % 1016,6 hPa 0,0 l/m 6,0 km/h (2 Bft) SW 232 0 min 0,000 mm 0,0 UV-I 0 W/m 5,9 C 8,8 C 8,0 km/h (2 Bft) 96,00 %
07.10.2017 21:32 8,8 C 11,7 C 82 % 1016,7 hPa 0,0 l/m 6,6 km/h (2 Bft) SW 232 0 min 0,000 mm 0,0 UV-I 0 W/m 5,9 C 8,7 C 12,9 km/h (3 Bft) 100,00 %
07.10.2017 21:34 8,8 C 11,7 C 83 % 1016,6 hPa 0,0 l/m 7,4 km/h (2 Bft) W-SW 248 0 min 0,000 mm 0,0 UV-I 0 W/m 6,1 C 8,0 C 11,3 km/h (2 Bft) 100,00 %
07.10.2017 21:36 8,8 C 11,7 C 83 % 1016,6 hPa 0,0 l/m 7,6 km/h (2 Bft) S-SW 213 0 min 0,000 mm 0,0 UV-I 0 W/m 6,1 C 7,9 C 11,3 km/h (2 Bft) 100,00 %
07.10.2017 21:38 8,9 C 11,7 C 82 % 1016,5 hPa 0,0 l/m 9,3 km/h (2 Bft) SW 217 0 min 0,000 mm 0,0 UV-I 0 W/m 6,0 C 6,8 C 16,1 km/h (3 Bft) 96,00 %
07.10.2017 21:40 8,9 C 11,7 C 82 % 1016,6 hPa 0,0 l/m 9,3 km/h (2 Bft) S-SW 200 0 min 0,000 mm 0,0 UV-I 0 W/m 6,0 C 6,8 C 11,3 km/h (2 Bft) 100,00 %
07.10.2017 21:42 9,0 C 11,7 C 82 % 1016,5 hPa 0,0 l/m 9,9 km/h (2 Bft) S-SW 200 0 min 0,000 mm 0,0 UV-I 0 W/m 6,1 C 6,6 C 16,1 km/h (3 Bft) 97,87 %
07.10.2017 21:44 9,0 C 11,7 C 81 % 1016,5 hPa 0,0 l/m 8,4 km/h (2 Bft) S 178 0 min 0,000 mm 0,0 UV-I 0 W/m 5,9 C 7,5 C 12,9 km/h (3 Bft) 100,00 %
07.10.2017 21:46 9,1 C 11,7 C 81 % 1016,5 hPa 0,0 l/m 8,2 km/h (2 Bft) W-SW 240 0 min 0,000 mm 0,0 UV-I 0 W/m 6,0 C 7,8 C 12,9 km/h (3 Bft) 97,87 %
07.10.2017 21:48 9,1 C 11,7 C 81 % 1016,4 hPa 0,0 l/m 8,5 km/h (2 Bft) SW 225 0 min 0,000 mm 0,0 UV-I 0 W/m 6,0 C 7,6 C 12,9 km/h (3 Bft) 100,00 %
07.10.2017 21:50 9,2 C 11,7 C 81 % 1016,5 hPa 0,0 l/m 8,4 km/h (2 Bft) W-SW 244 0 min 0,000 mm 0,0 UV-I 0 W/m 6,1 C 7,7 C 11,3 km/h (2 Bft) 97,87 %
07.10.2017 21:52 9,2 C 11,7 C 81 % 1016,5 hPa 0,0 l/m 7,5 km/h (2 Bft) SW 228 0 min 0,000 mm 0,0 UV-I 0 W/m 6,1 C 8,4 C 11,3 km/h (2 Bft) 97,87 %
07.10.2017 21:54 9,2 C 11,7 C 81 % 1016,5 hPa 0,0 l/m 6,2 km/h (2 Bft) W-SW 238 0 min 0,000 mm 0,0 UV-I 0 W/m 6,1 C 9,2 C 9,7 km/h (2 Bft) 97,87 %
07.10.2017 21:56 9,2 C 11,7 C 81 % 1016,5 hPa 0,0 l/m 5,8 km/h (2 Bft) S-SW 209 0 min 0,000 mm 0,0 UV-I 0 W/m 6,1 C 9,2 C 9,7 km/h (2 Bft) 97,87 %
07.10.2017 21:58 9,1 C 11,7 C 81 % 1016,5 hPa 0,0 l/m 5,1 km/h (1 Bft) SW 236 0 min 0,000 mm 0,0 UV-I 0 W/m 6,0 C 9,1 C 6,4 km/h (2 Bft) 97,87 %
07.10.2017 22:00 9,1 C 11,7 C 81 % 1016,5 hPa 0,0 l/m 7,0 km/h (2 Bft) SW 234 0 min 0,000 mm 0,0 UV-I 0 W/m 6,0 C 8,7 C 9,7 km/h (2 Bft) 95,83 %
07.10.2017 22:06 8,9 C 11,7 C 82 % 1016,3 hPa 0,0 l/m 6,5 km/h (2 Bft) SW 232 0 min 0,026 mm 0,0 UV-I 0 W/m 6,0 C 8,9 C 9,7 km/h (2 Bft) 96,89 %
07.10.2017 22:08 8,9 C 11,7 C 83 % 1016,4 hPa 0,0 l/m 6,8 km/h (2 Bft) SW 228 0 min 0,000 mm 0,0 UV-I 0 W/m 6,2 C 8,6 C 9,7 km/h (2 Bft) 97,22 %
07.10.2017 22:10 8,9 C 11,7 C 82 % 1016,3 hPa 0,0 l/m 7,0 km/h (2 Bft) SW 230 0 min 0,000 mm 0,0 UV-I 0 W/m 6,0 C 8,4 C 11,3 km/h (2 Bft) 98,21 %
07.10.2017 22:12 8,9 C 11,7 C 82 % 1016,3 hPa 0,0 l/m 7,2 km/h (2 Bft) SW 232 0 min 0,000 mm 0,0 UV-I 0 W/m 6,0 C 8,3 C 11,3 km/h (2 Bft) 97,56 %
07.10.2017 22:14 8,9 C 11,7 C 82 % 1016,3 hPa 0,0 l/m 7,8 km/h (2 Bft) SW 221 0 min 0,000 mm 0,0 UV-I 0 W/m 6,0 C 7,8 C 11,3 km/h (2 Bft) 96,43 %
07.10.2017 22:16 8,9 C 11,7 C 82 % 1016,3 hPa 0,0 l/m 7,7 km/h (2 Bft) SW 223 0 min 0,000 mm 0,0 UV-I 0 W/m 6,0 C 7,9 C 9,7 km/h (2 Bft) 97,37 %
07.10.2017 22:18 8,9 C 11,7 C 82 % 1016,2 hPa 0,0 l/m 6,4 km/h (2 Bft) SW 226 0 min 0,000 mm 0,0 UV-I 0 W/m 6,0 C 8,9 C 11,3 km/h (2 Bft) 96,43 %
07.10.2017 22:20 9,1 C 11,7 C 83 % 1016,2 hPa 0,0 l/m 5,8 km/h (2 Bft) W-SW 239 0 min 0,000 mm 0,0 UV-I 0 W/m 6,4 C 9,1 C 6,4 km/h (2 Bft) 97,56 %
07.10.2017 22:22 9,1 C 11,7 C 84 % 1016,2 hPa 0,0 l/m 5,7 km/h (1 Bft) SW 221 0 min 0,000 mm 0,0 UV-I 0 W/m 6,5 C 9,1 C 8,0 km/h (2 Bft) 96,00 %
07.10.2017 22:24 9,0 C 11,7 C 82 % 1016,2 hPa 0,0 l/m 6,1 km/h (2 Bft) W-SW 248 0 min 0,000 mm 0,0 UV-I 0 W/m 6,1 C 9,0 C 11,3 km/h (2 Bft) 97,87 %
07.10.2017 22:26 9,0 C 11,7 C 82 % 1016,2 hPa 0,0 l/m 7,0 km/h (2 Bft) W-SW 244 0 min 0,000 mm 0,0 UV-I 0 W/m 6,1 C 8,5 C 11,3 km/h (2 Bft) 96,00 %
07.10.2017 22:28 8,9 C 11,7 C 82 % 1016,1 hPa 0,0 l/m 6,7 km/h (2 Bft) W-SW 252 0 min 0,000 mm 0,0 UV-I 0 W/m 6,0 C 8,7 C 11,3 km/h (2 Bft) 100,00 %
07.10.2017 22:30 8,9 C 11,7 C 83 % 1016,1 hPa 0,0 l/m 6,8 km/h (2 Bft) W-SW 258 0 min 0,000 mm 0,0 UV-I 0 W/m 6,2 C 8,6 C 9,7 km/h (2 Bft) 98,00 %
07.10.2017 22:32 8,9 C 11,7 C 82 % 1016,1 hPa 0,0 l/m 6,8 km/h (2 Bft) W-SW 252 0 min 0,000 mm 0,0 UV-I 0 W/m 6,0 C 8,6 C 11,3 km/h (2 Bft) 100,00 %
07.10.2017 22:34 8,9 C 11,7 C 82 % 1016,0 hPa 0,0 l/m 7,6 km/h (2 Bft) W 279 0 min 0,000 mm 0,0 UV-I 0 W/m 6,0 C 8,0 C 11,3 km/h (2 Bft) 97,37 %
07.10.2017 22:36 8,9 C 11,7 C 82 % 1016,0 hPa 0,0 l/m 8,6 km/h (2 Bft) W-SW 252 0 min 0,000 mm 0,0 UV-I 0 W/m 6,0 C 7,3 C 11,3 km/h (2 Bft) 100,00 %
07.10.2017 22:38 9,0 C 11,7 C 82 % 1016,0 hPa 0,0 l/m 8,3 km/h (2 Bft) W 262 0 min 0,000 mm 0,0 UV-I 0 W/m 6,1 C 7,6 C 11,3 km/h (2 Bft) 98,00 %
07.10.2017 22:40 9,0 C 11,7 C 82 % 1015,9 hPa 0,0 l/m 7,5 km/h (2 Bft) W-SW 248 0 min 0,000 mm 0,0 UV-I 0 W/m 6,1 C 8,2 C 12,9 km/h (3 Bft) 97,56 %
07.10.2017 22:42 9,0 C 11,7 C 82 % 1015,9 hPa 0,0 l/m 5,9 km/h (2 Bft) W-SW 255 0 min 0,000 mm 0,0 UV-I 0 W/m 6,1 C 9,0 C 8,0 km/h (2 Bft) 100,00 %
07.10.2017 22:44 9,0 C 11,7 C 81 % 1015,9 hPa 0,0 l/m 5,7 km/h (1 Bft) SW 225 0 min 0,000 mm 0,0 UV-I 0 W/m 5,9 C 9,0 C 8,0 km/h (2 Bft) 100,00 %
07.10.2017 22:46 9,0 C 11,7 C 82 % 1015,9 hPa 0,0 l/m 4,8 km/h (1 Bft) SW 229 0 min 0,000 mm 0,0 UV-I 0 W/m 6,1 C 9,0 C 6,4 km/h (2 Bft) 100,00 %
07.10.2017 22:48 8,9 C 11,7 C 82 % 1015,8 hPa 0,0 l/m 4,1 km/h (1 Bft) W-SW 244 0 min 0,000 mm 0,0 UV-I 0 W/m 6,0 C 8,9 C 8,0 km/h (2 Bft) 100,00 %
07.10.2017 22:50 8,9 C 11,7 C 82 % 1015,8 hPa 0,0 l/m 5,4 km/h (1 Bft) SW 234 0 min 0,000 mm 0,0 UV-I 0 W/m 6,0 C 8,9 C 6,4 km/h (2 Bft) 100,00 %
07.10.2017 22:52 8,9 C 11,7 C 82 % 1015,9 hPa 0,0 l/m 4,8 km/h (1 Bft) W 267 0 min 0,000 mm 0,0 UV-I 0 W/m 6,0 C 8,9 C 6,4 km/h (2 Bft) 98,00 %
07.10.2017 22:54 8,9 C 11,7 C 82 % 1015,9 hPa 0,0 l/m 4,9 km/h (1 Bft) W-SW 250 0 min 0,000 mm 0,0 UV-I 0 W/m 6,0 C 8,9 C 6,4 km/h (2 Bft) 100,00 %
07.10.2017 22:56 8,8 C 11,7 C 83 % 1015,8 hPa 0,0 l/m 4,2 km/h (1 Bft) W-SW 250 0 min 0,000 mm 0,0 UV-I 0 W/m 6,1 C 8,8 C 6,4 km/h (2 Bft) 100,00 %
07.10.2017 22:58 8,8 C 11,7 C 83 % 1015,8 hPa 0,0 l/m 4,0 km/h (1 Bft) W-SW 240 0 min 0,000 mm 0,0 UV-I 0 W/m 6,1 C 8,8 C 4,8 km/h (1 Bft) 98,11 %
07.10.2017 23:00 8,8 C 11,7 C 83 % 1015,8 hPa 0,0 l/m 5,6 km/h (1 Bft) SW 228 0 min 0,025 mm 0,0 UV-I 0 W/m 6,1 C 8,8 C 8,0 km/h (2 Bft) 100,00 %
07.10.2017 23:02 8,7 C 11,7 C 83 % 1015,7 hPa 0,0 l/m 5,4 km/h (1 Bft) SW 219 0 min 0,000 mm 0,0 UV-I 0 W/m 6,0 C 8,7 C 8,0 km/h (2 Bft) 100,00 %
07.10.2017 23:04 8,7 C 11,7 C 83 % 1015,6 hPa 0,0 l/m 5,9 km/h (2 Bft) S-SW 202 0 min 0,000 mm 0,0 UV-I 0 W/m 6,0 C 8,7 C 11,3 km/h (2 Bft) 100,00 %
07.10.2017 23:06 8,8 C 11,7 C 83 % 1015,5 hPa 0,0 l/m 6,6 km/h (2 Bft) SW 223 0 min 0,000 mm 0,0 UV-I 0 W/m 6,1 C 8,7 C 8,0 km/h (2 Bft) 100,00 %
07.10.2017 23:08 8,8 C 11,7 C 83 % 1015,6 hPa 0,0 l/m 6,4 km/h (2 Bft) SW 231 0 min 0,000 mm 0,0 UV-I 0 W/m 6,1 C 8,8 C 8,0 km/h (2 Bft) 100,00 %
07.10.2017 23:10 8,8 C 11,7 C 82 % 1015,5 hPa 0,0 l/m 6,0 km/h (2 Bft) SW 225 0 min 0,000 mm 0,0 UV-I 0 W/m 5,9 C 8,8 C 9,7 km/h (2 Bft) 100,00 %
07.10.2017 23:12 8,8 C 11,7 C 83 % 1015,5 hPa 0,0 l/m 5,3 km/h (1 Bft) SW 228 0 min 0,000 mm 0,0 UV-I 0 W/m 6,1 C 8,8 C 8,0 km/h (2 Bft) 100,00 %
07.10.2017 23:14 8,8 C 11,7 C 83 % 1015,4 hPa 0,0 l/m 5,2 km/h (1 Bft) W-SW 238 0 min 0,000 mm 0,0 UV-I 0 W/m 6,1 C 8,8 C 8,0 km/h (2 Bft) 100,00 %
07.10.2017 23:16 8,8 C 11,7 C 83 % 1015,4 hPa 0,0 l/m 5,9 km/h (2 Bft) SW 214 0 min 0,000 mm 0,0 UV-I 0 W/m 6,1 C 8,8 C 8,0 km/h (2 Bft) 100,00 %
07.10.2017 23:18 8,8 C 11,7 C 83 % 1015,4 hPa 0,0 l/m 6,1 km/h (2 Bft) SW 227 0 min 0,000 mm 0,0 UV-I 0 W/m 6,1 C 8,8 C 9,7 km/h (2 Bft) 100,00 %
07.10.2017 23:20 8,8 C 11,7 C 83 % 1015,2 hPa 0,0 l/m 6,0 km/h (2 Bft) S-SW 213 0 min 0,000 mm 0,0 UV-I 0 W/m 6,1 C 8,8 C 12,9 km/h (3 Bft) 100,00 %
07.10.2017 23:23 8,8 C 11,7 C 83 % 1015,3 hPa 0,0 l/m 8,4 km/h (2 Bft) S-SW 212 0 min 0,000 mm 0,0 UV-I 0 W/m 6,1 C 7,3 C 12,9 km/h (3 Bft) 98,46 %
07.10.2017 23:24 8,8 C 11,7 C 83 % 1015,3 hPa 0,0 l/m 8,4 km/h (2 Bft) W-SW 238 0 min 0,000 mm 0,0 UV-I 0 W/m 6,1 C 7,3 C 11,3 km/h (2 Bft) 100,00 %
07.10.2017 23:26 8,8 C 11,7 C 83 % 1015,2 hPa 0,0 l/m 7,3 km/h (2 Bft) S-SW 210 0 min 0,000 mm 0,0 UV-I 0 W/m 6,1 C 8,1 C 12,9 km/h (3 Bft) 100,00 %
07.10.2017 23:28 8,8 C 11,7 C 83 % 1015,2 hPa 0,0 l/m 9,3 km/h (2 Bft) W-SW 244 0 min 0,000 mm 0,0 UV-I 0 W/m 6,1 C 6,7 C 12,9 km/h (3 Bft) 100,00 %
07.10.2017 23:30 8,8 C 11,7 C 84 % 1015,2 hPa 0,0 l/m 7,8 km/h (2 Bft) W-SW 240 0 min 0,000 mm 0,0 UV-I 0 W/m 6,2 C 7,7 C 11,3 km/h (2 Bft) 100,00 %
07.10.2017 23:32 8,8 C 11,7 C 84 % 1015,2 hPa 0,0 l/m 6,0 km/h (2 Bft) W-SW 254 0 min 0,000 mm 0,0 UV-I 0 W/m 6,2 C 8,8 C 8,0 km/h (2 Bft) 100,00 %
07.10.2017 23:34 8,8 C 11,7 C 84 % 1015,2 hPa 0,0 l/m 7,6 km/h (2 Bft) SW 227 0 min 0,000 mm 0,0 UV-I 0 W/m 6,2 C 7,9 C 12,9 km/h (3 Bft) 100,00 %
07.10.2017 23:36 8,7 C 11,7 C 84 % 1015,1 hPa 0,0 l/m 7,1 km/h (2 Bft) SW 229 0 min 0,000 mm 0,0 UV-I 0 W/m 6,2 C 8,2 C 11,3 km/h (2 Bft) 98,00 %
07.10.2017 23:38 8,7 C 11,7 C 84 % 1015,1 hPa 0,0 l/m 6,5 km/h (2 Bft) W-SW 237 0 min 0,000 mm 0,0 UV-I 0 W/m 6,2 C 8,6 C 9,7 km/h (2 Bft) 94,74 %
07.10.2017 23:40 8,7 C 11,7 C 84 % 1015,1 hPa 0,0 l/m 7,1 km/h (2 Bft) SW 225 0 min 0,000 mm 0,0 UV-I 0 W/m 6,2 C 8,2 C 9,7 km/h (2 Bft) 100,00 %
07.10.2017 23:42 8,7 C 11,7 C 84 % 1015,1 hPa 0,0 l/m 6,9 km/h (2 Bft) W-SW 242 0 min 0,000 mm 0,0 UV-I 0 W/m 6,2 C 8,3 C 11,3 km/h (2 Bft) 98,00 %
07.10.2017 23:44 8,7 C 11,7 C 85 % 1015,1 hPa 0,0 l/m 5,1 km/h (1 Bft) SW 227 0 min 0,000 mm 0,0 UV-I 0 W/m 6,3 C 8,7 C 8,0 km/h (2 Bft) 100,00 %
07.10.2017 23:46 8,7 C 11,7 C 85 % 1015,1 hPa 0,0 l/m 6,2 km/h (2 Bft) W-SW 241 0 min 0,000 mm 0,0 UV-I 0 W/m 6,3 C 8,7 C 8,0 km/h (2 Bft) 97,37 %
07.10.2017 23:48 8,7 C 11,7 C 85 % 1015,1 hPa 0,0 l/m 6,6 km/h (2 Bft) W-SW 251 0 min 0,000 mm 0,0 UV-I 0 W/m 6,3 C 8,6 C 11,3 km/h (2 Bft) 100,00 %
07.10.2017 23:50 8,6 C 11,7 C 85 % 1015,1 hPa 0,0 l/m 6,6 km/h (2 Bft) SW 232 0 min 0,000 mm 0,0 UV-I 0 W/m 6,2 C 8,5 C 11,3 km/h (2 Bft) 100,00 %
07.10.2017 23:52 8,6 C 11,7 C 85 % 1015,0 hPa 0,0 l/m 7,9 km/h (2 Bft) W-SW 239 0 min 0,000 mm 0,0 UV-I 0 W/m 6,2 C 7,5 C 11,3 km/h (2 Bft) 100,00 %
07.10.2017 23:54 8,7 C 11,7 C 84 % 1015,0 hPa 0,0 l/m 7,5 km/h (2 Bft) W-SW 251 0 min 0,000 mm 0,0 UV-I 0 W/m 6,2 C 7,9 C 11,3 km/h (2 Bft) 100,00 %
07.10.2017 23:56 8,7 C 11,7 C 84 % 1015,0 hPa 0,0 l/m 7,2 km/h (2 Bft) SW 229 0 min 0,000 mm 0,0 UV-I 0 W/m 6,2 C 8,1 C 9,7 km/h (2 Bft) 98,00 %
07.10.2017 23:58 8,7 C 11,7 C 84 % 1014,9 hPa 0,0 l/m 6,7 km/h (2 Bft) W-SW 238 0 min 0,000 mm 0,0 UV-I 0 W/m 6,2 C 8,5 C 11,3 km/h (2 Bft) 97,37 %
_ Min-Zeit 00:00 04:24 16:44 23:58 - 19:36 - - - - - - 19:12 02:20 22:58 10:38
Minimum _ 7,6 C 11,7 C 68 % 1014,9 hPa - 3,2 km/h (1 Bft) - - - - - - 5,4 C -0,4 C 4,8 km/h (1 Bft) 89,36 %
_ Max-Zeit 15:34 00:00 01:18 10:26 00:46 02:20 - - 13:10 13:03 12:10 13:10 13:38 18:06 02:28 00:02
Maximum _ 11,8 C 12,2 C 93 % 1022,7 hPa 0,2 l/m 24,2 km/h
W (4 Bft)
- - 2 min 0,152 mm 2,4 UV-I 348 W/m 7,7 C 11,0 C 38,6 km/h
W (5 Bft)
100,00 %
Durchschnitt _ 9,4 C 11,8 C 83 % 1019,9 hPa #0,8 l/m 12,5 km/h (3 Bft) W-SW - #1:30 h #1,397 mm 0,9 UV-I 121 W/m 6,6 C 5,8 C 19,6 km/h (3 Bft) 97,76 %